GFSSW_500_temp_000.txt.gz
Temp
-8 -7 -7 -7 -7 -6 -6 -6 -6 -6 -6 -6 -6 -6 -5 -5 -5 -6 -6 -6 -5 -5 -5 -5 -5 -5 -5 -5 -5 -6 -6 -7 -7 -6 -7 -7 -7 -8 -8 -7 -7 -8 -8 -10 -9
-8 -8 -7 -7 -7 -7 -6 -6 -6 -6 -6 -6 -6 -6 -6 -5 -6 -6 -6 -6 -6 -6 -5 -5 -5 -5 -5 -5 -6 -7 -7 -6 -7 -8 -7 -8 -7 -8 -8 -7 -6 -7 -8 -8 -8
-8 -8 -8 -8 -7 -7 -7 -7 -6 -6 -6 -6 -6 -5 -5 -5 -6 -6 -6 -6 -6 -6 -6 -6 -6 -6 -6 -6 -6 -6 -8 -7 -7 -7 -6 -6 -8 -8 -8 -8 -8 -8 -8 -7 -8
-8 -8 -8 -8 -8 -7 -7 -7 -7 -7 -6 -6 -6 -6 -6 -5 -5 -6 -6 -6 -6 -6 -6 -6 -6 -6 -6 -6 -6 -6 -7 -7 -7 -7 -6 -7 -8 -8 -8 -8 -8 -8 -8 -8 -8
-8 -8 -8 -8 -8 -8 -7 -7 -7 -7 -7 -6 -6 -6 -6 -6 -6 -6 -6 -6 -6 -6 -6 -6 -6 -7 -7 -7 -7 -7 -6 -6 -6 -6 -6 -7 -7 -8 -7 -9 -8 -8 -8 -8 -8
-8 -8 -8 -8 -8 -8 -7 -7 -7 -7 -7 -7 -7 -6 -6 -6 -6 -6 -6 -6 -6 -6 -6 -6 -6 -6 -7 -7 -6 -6 -6 -6 -6 -6 -6 -8 -7 -6 -8 -8 -8 -8 -8 -8 -8
-8 -8 -8 -8 -8 -8 -8 -7 -7 -7 -7 -7 -7 -6 -6 -6 -6 -6 -6 -6 -6 -6 -6 -6 -6 -6 -6 -7 -7 -6 -6 -6 -6 -7 -8 -7 -7 -7 -7 -7 -8 -8 -9 -9 -9
-8 -8 -8 -8 -8 -8 -7 -7 -7 -7 -7 -7 -7 -7 -6 -6 -6 -6 -6 -6 -6 -6 -6 -6 -6 -6 -6 -6 -6 -6 -6 -6 -7 -8 -8 -7 -8 -7 -7 -7 -8 -8 -9 -9 -9
-8 -8 -8 -8 -8 -8 -7 -7 -7 -7 -7 -7 -7 -7 -6 -6 -6 -6 -6 -6 -6 -6 -6 -6 -6 -6 -6 -6 -6 -6 -6 -8 -8 -7 -8 -7 -8 -8 -8 -8 -9 -8 -9 -9 -9
-9 -9 -9 -8 -8 -8 -8 -8 -7 -7 -7 -7 -7 -7 -6 -6 -6 -6 -6 -6 -6 -6 -6 -6 -6 -6 -6 -6 -6 -7 -8 -8 -8 -8 -8 -8 -8 -8 -8 -9 -9 -9 -8 -8 -8
-9 -8 -8 -8 -8 -8 -8 -8 -8 -7 -7 -7 -7 -7 -7 -7 -7 -6 -6 -6 -6 -6 -6 -6 -6 -6 -7 -6 -6 -6 -6 -8 -8 -8 -7 -7 -7 -8 -9 -7 -9 -9 -8 -8 -9
-8 -8 -8 -8 -8 -8 -8 -8 -8 -8 -8 -8 -7 -7 -7 -7 -7 -6 -6 -6 -6 -6 -6 -6 -6 -6 -7 -6 -6 -6 -6 -7 -7 -7 -7 -7 -7 -8 -8 -8 -8 -9 -10 -9 -8
-8 -8 -8 -8 -8 -8 -8 -8 -8 -8 -8 -8 -8 -7 -7 -7 -7 -6 -6 -6 -6 -6 -6 -6 -6 -6 -6 -6 -7 -7 -7 -7 -7 -7 -8 -7 -7 -8 -8 -8 -8 -8 -9 -9 -9
-8 -8 -8 -8 -8 -9 -8 -8 -8 -8 -8 -8 -8 -8 -7 -7 -7 -7 -7 -7 -6 -6 -6 -6 -7 -7 -7 -7 -7 -7 -8 -7 -7 -7 -8 -8 -8 -8 -8 -8 -8 -7 -9 -9 -9
-9 -9 -9 -9 -8 -9 -8 -9 -9 -8 -8 -8 -7 -7 -7 -7 -7 -7 -7 -7 -7 -7 -7 -7 -7 -7 -7 -7 -7 -7 -9 -8 -7 -7 -8 -7 -8 -8 -8 -8 -8 -9 -7 -9 -8
-9 -9 -9 -9 -9 -9 -9 -9 -9 -9 -8 -9 -7 -7 -7 -8 -8 -8 -7 -7 -7 -7 -7 -7 -8 -7 -7 -7 -7 -8 -8 -7 -7 -7 -8 -8 -8 -8 -8 -9 -9 -8 -9 -9 -9
-9 -9 -9 -9 -9 -9 -9 -9 -9 -9 -9 -9 -8 -8 -8 -8 -8 -8 -7 -8 -8 -7 -7 -7 -7 -7 -7 -7 -8 -7 -7 -7 -8 -9 -8 -8 -8 -8 -9 -8 -8 -9 -9 -9 -8
-9 -9 -9 -9 -9 -9 -9 -9 -8 -8 -9 -10 -10 -10 -8 -8 -8 -8 -8 -8 -8 -8 -8 -8 -8 -7 -8 -7 -8 -7 -7 -7 -8 -8 -9 -8 -8 -8 -9 -8 -8 -9 -8 -8 -8
-9 -10 -10 -9 -9 -9 -9 -9 -8 -9 -9 -10 -11 -9 -9 -8 -9 -10 -7 -8 -8 -8 -8 -9 -9 -9 -9 -8 -7 -8 -7 -8 -8 -8 -8 -8 -8 -7 -9 -9 -8 -9 -10 -10 -9
-10 -10 -10 -10 -10 -9 -9 -8 -9 -10 -9 -9 -8 -9 -8 -10 -10 -10 -10 -8 -8 -8 -8 -8 -9 -9 -9 -9 -7 -7 -9 -8 -8 -9 -8 -8 -9 -8 -8 -8 -8 -9 -10 -11 -9
-10 -11 -10 -10 -10 -10 -9 -9 -9 -10 -9 -9 -9 -9 -10 -10 -10 -10 -10 -10 -10 -9 -10 -9 -8 -8 -9 -9 -8 -9 -8 -9 -9 -9 -8 -8 -8 -8 -9 -9 -9 -10 -10 -10 -10
-11 -11 -10 -10 -10 -10 -9 -10 -10 -10 -9 -9 -9 -9 -9 -10 -11 -11 -11 -10 -10 -10 -10 -10 -9 -8 -9 -9 -8 -9 -9 -9 -9 -9 -8 -8 -8 -8 -9 -9 -9 -10 -10 -10 -10
-11 -11 -10 -10 -10 -10 -10 -10 -10 -9 -9 -9 -9 -9 -10 -9 -10 -9 -10 -10 -10 -11 -10 -10 -9 -10 -9 -9 -9 -8 -9 -10 -9 -9 -9 -9 -9 -10 -8 -8 -6 -10 -10 -10 -10
-12 -12 -11 -10 -11 -11 -11 -10 -11 -10 -9 -9 -9 -9 -9 -9 -10 -9 -9 -11 -11 -11 -10 -10 -10 -9 -9 -9 -9 -10 -9 -9 -9 -9 -9 -9 -9 -8 -8 -8 -9 -10 -10 -10 -10
-13 -13 -12 -11 -12 -11 -11 -11 -10 -11 -10 -10 -10 -9 -10 -9 -9 -9 -10 -10 -12 -10 -10 -10 -9 -10 -8 -10 -9 -9 -9 -9 -9 -9 -9 -9 -9 -9 -8 -8 -9 -9 -10 -10 -10
-13 -14 -12 -12 -11 -11 -10 -11 -11 -11 -11 -11 -10 -10 -10 -10 -9 -9 -10 -10 -10 -12 -9 -10 -10 -9 -9 -10 -10 -10 -9 -9 -9 -9 -9 -9 -10 -10 -9 -9 -10 -9 -11 -10 -10
-15 -15 -14 -14 -14 -13 -13 -12 -12 -11 -11 -11 -11 -11 -11 -10 -10 -10 -10 -11 -10 -11 -11 -10 -10 -10 -10 -9 -10 -10 -9 -10 -10 -10 -10 -10 -10 -10 -9 -9 -10 -11 -11 -11 -11

GFSSW_500_temp_003.txt.gz
Temp
-8 -7 -7 -7 -7 -6 -6 -6 -6 -6 -6 -6 -5 -5 -5 -5 -5 -5 -5 -5 -5 -5 -5 -5 -5 -5 -6 -6 -6 -6 -6 -6 -7 -7 -8 -7 -8 -8 -8 -7 -7 -8 -7 -8 -7
-8 -8 -7 -7 -7 -7 -6 -6 -6 -6 -6 -6 -5 -5 -5 -5 -5 -5 -5 -5 -5 -5 -5 -5 -6 -6 -6 -6 -5 -7 -6 -6 -7 -7 -8 -8 -8 -7 -8 -7 -7 -8 -8 -8 -8
-8 -8 -8 -7 -7 -7 -7 -6 -6 -6 -6 -6 -6 -5 -5 -5 -5 -5 -5 -5 -5 -5 -5 -6 -6 -6 -6 -6 -6 -6 -6 -6 -8 -7 -7 -8 -9 -8 -9 -7 -7 -8 -8 -8 -8
-8 -8 -8 -8 -7 -7 -7 -7 -7 -6 -6 -6 -6 -6 -5 -5 -5 -5 -6 -6 -6 -6 -5 -6 -6 -6 -6 -6 -6 -4 -6 -7 -8 -8 -8 -8 -8 -7 -7 -7 -7 -6 -7 -8 -8
-9 -8 -8 -8 -8 -7 -7 -7 -7 -7 -6 -6 -6 -6 -6 -5 -5 -6 -6 -6 -6 -6 -6 -6 -6 -6 -7 -6 -6 -5 -7 -8 -7 -8 -7 -8 -7 -8 -7 -7 -7 -6 -7 -8 -7
-9 -8 -8 -8 -8 -8 -7 -7 -7 -7 -7 -6 -6 -6 -6 -6 -6 -6 -6 -6 -6 -6 -6 -6 -6 -6 -6 -6 -6 -6 -6 -7 -7 -7 -8 -8 -8 -8 -8 -8 -7 -7 -7 -7 -7
-9 -8 -8 -8 -8 -8 -8 -7 -7 -7 -7 -7 -7 -7 -6 -6 -6 -6 -6 -6 -6 -6 -6 -6 -6 -6 -6 -6 -5 -6 -6 -6 -7 -8 -8 -7 -7 -7 -8 -8 -7 -7 -7 -8 -7
-9 -8 -8 -8 -8 -8 -8 -8 -7 -7 -7 -7 -7 -7 -6 -6 -6 -6 -6 -6 -6 -6 -6 -6 -6 -6 -6 -6 -6 -6 -6 -7 -7 -7 -8 -8 -8 -8 -8 -8 -7 -8 -8 -8 -8
-9 -8 -8 -8 -8 -8 -8 -8 -7 -7 -7 -7 -7 -7 -7 -6 -6 -6 -6 -6 -6 -6 -6 -6 -6 -5 -5 -5 -5 -6 -7 -7 -7 -7 -7 -7 -8 -8 -9 -6 -7 -8 -8 -8 -9
-9 -9 -9 -8 -8 -8 -8 -8 -7 -7 -7 -7 -7 -7 -7 -7 -7 -6 -6 -6 -6 -6 -6 -6 -5 -5 -6 -6 -6 -6 -8 -9 -8 -7 -7 -7 -7 -8 -8 -7 -8 -8 -7 -8 -8
-9 -9 -9 -9 -9 -8 -8 -8 -8 -7 -7 -7 -7 -7 -7 -7 -7 -6 -6 -6 -6 -6 -6 -6 -5 -6 -6 -6 -6 -6 -7 -8 -8 -8 -8 -8 -7 -8 -7 -8 -8 -9 -7 -7 -9
-9 -9 -9 -9 -9 -9 -8 -8 -8 -8 -8 -7 -7 -7 -7 -7 -7 -7 -7 -6 -6 -6 -6 -6 -6 -6 -6 -6 -6 -6 -6 -7 -7 -8 -8 -9 -8 -8 -8 -8 -8 -9 -7 -7 -8
-9 -9 -9 -9 -9 -9 -8 -8 -8 -8 -8 -8 -7 -7 -7 -7 -7 -7 -7 -7 -7 -6 -6 -6 -6 -6 -6 -6 -6 -6 -6 -6 -7 -8 -8 -8 -8 -8 -8 -8 -8 -8 -7 -9 -7
-9 -8 -8 -8 -9 -8 -8 -8 -8 -8 -8 -8 -8 -7 -7 -7 -7 -7 -7 -7 -6 -7 -7 -6 -7 -6 -6 -6 -7 -6 -7 -7 -7 -8 -7 -8 -8 -8 -8 -8 -8 -8 -7 -7 -9
-9 -9 -8 -8 -8 -8 -8 -9 -8 -8 -8 -8 -8 -8 -8 -7 -8 -7 -7 -7 -7 -7 -7 -7 -7 -7 -7 -7 -7 -7 -7 -7 -7 -7 -7 -7 -7 -7 -8 -8 -8 -8 -8 -7 -8
-9 -9 -8 -9 -8 -8 -9 -9 -9 -9 -8 -9 -8 -8 -8 -8 -8 -8 -7 -7 -8 -7 -7 -7 -7 -7 -7 -7 -7 -7 -7 -7 -6 -7 -7 -7 -8 -9 -8 -8 -9 -8 -8 -7 -7
-9 -9 -9 -9 -8 -9 -9 -9 -9 -8 -9 -9 -9 -8 -8 -8 -8 -8 -7 -7 -8 -8 -8 -8 -7 -7 -7 -7 -7 -7 -7 -7 -7 -7 -7 -8 -8 -8 -8 -9 -9 -9 -8 -8 -9
-9 -9 -9 -9 -9 -9 -9 -9 -8 -8 -9 -10 -9 -9 -8 -8 -8 -8 -8 -7 -8 -8 -8 -8 -7 -7 -8 -8 -8 -7 -7 -7 -7 -8 -9 -8 -9 -8 -8 -9 -8 -9 -9 -9 -8
-9 -9 -9 -9 -9 -9 -9 -8 -8 -9 -9 -9 -10 -10 -11 -10 -9 -8 -8 -8 -8 -8 -8 -8 -8 -9 -9 -9 -8 -8 -8 -7 -7 -8 -9 -9 -8 -8 -7 -9 -9 -9 -9 -8 -9
-10 -10 -10 -9 -9 -9 -9 -8 -9 -10 -9 -9 -9 -9 -10 -10 -9 -10 -11 -10 -9 -8 -8 -9 -8 -9 -10 -9 -9 -8 -8 -8 -8 -8 -8 -8 -8 -9 -9 -9 -9 -10 -9 -9 -9
-10 -10 -10 -10 -10 -9 -9 -9 -9 -10 -10 -10 -9 -9 -8 -9 -10 -10 -10 -10 -10 -9 -8 -9 -9 -9 -9 -9 -9 -9 -8 -8 -8 -9 -9 -9 -9 -9 -9 -8 -9 -8 -8 -10 -10
-11 -10 -10 -10 -10 -10 -9 -9 -9 -10 -9 -9 -10 -10 -9 -9 -9 -10 -10 -10 -10 -10 -10 -9 -9 -8 -9 -9 -9 -9 -9 -9 -9 -8 -9 -9 -9 -9 -9 -9 -9 -9 -9 -10 -10
-11 -11 -10 -10 -10 -10 -10 -10 -10 -10 -9 -9 -9 -9 -10 -10 -10 -10 -10 -10 -10 -10 -10 -10 -11 -9 -8 -9 -9 -9 -9 -9 -9 -9 -9 -9 -9 -9 -9 -9 -9 -9 -9 -9 -11
-11 -11 -11 -10 -11 -10 -10 -10 -10 -10 -10 -10 -9 -9 -10 -10 -10 -9 -10 -10 -11 -10 -10 -10 -10 -9 -9 -9 -10 -10 -9 -9 -9 -9 -9 -9 -10 -9 -9 -9 -9 -9 -9 -8 -10
-12 -11 -10 -10 -10 -10 -10 -10 -10 -10 -10 -10 -10 -9 -9 -9 -10 -10 -10 -10 -10 -11 -11 -11 -10 -10 -9 -9 -9 -10 -9 -9 -9 -9 -9 -9 -9 -9 -9 -10 -9 -9 -8 -7 -11
-13 -13 -13 -13 -12 -11 -10 -10 -10 -10 -11 -10 -10 -10 -10 -10 -10 -10 -10 -11 -11 -11 -11 -11 -11 -10 -9 -9 -10 -9 -9 -10 -9 -9 -10 -9 -9 -10 -10 -10 -10 -9 -10 -8 -10
-14 -13 -13 -13 -13 -13 -13 -12 -11 -11 -11 -11 -10 -10 -10 -10 -10 -10 -10 -11 -11 -11 -10 -9 -10 -10 -9 -9 -10 -9 -10 -9 -10 -9 -10 -9 -9 -10 -10 -10 -10 -10 -10 -9 -10

GFSSW_500_temp_006.txt.gz
Temp
-8 -7 -7 -7 -7 -7 -6 -6 -6 -6 -6 -5 -5 -5 -5 -5 -5 -5 -5 -5 -5 -5 -5 -6 -6 -6 -5 -5 -6 -8 -7 -7 -8 -8 -8 -7 -8 -7 -8 -7 -8 -8 -8 -7 -6
-8 -8 -7 -7 -7 -7 -7 -6 -6 -6 -6 -6 -5 -5 -5 -5 -5 -5 -5 -5 -6 -6 -5 -6 -6 -6 -6 -6 -7 -8 -7 -7 -9 -9 -9 -9 -8 -6 -7 -8 -8 -8 -8 -8 -7
-8 -8 -8 -7 -7 -7 -7 -7 -6 -6 -6 -6 -6 -5 -5 -5 -5 -5 -5 -6 -6 -6 -6 -6 -6 -6 -6 -6 -7 -7 -6 -7 -8 -8 -9 -8 -7 -7 -8 -8 -8 -9 -8 -9 -8
-8 -8 -8 -8 -8 -7 -7 -7 -7 -6 -6 -6 -6 -5 -5 -5 -5 -5 -5 -5 -6 -6 -6 -6 -6 -6 -6 -7 -6 -7 -6 -6 -7 -8 -8 -9 -7 -8 -8 -8 -8 -9 -8 -9 -9
-9 -9 -8 -8 -8 -8 -7 -7 -7 -6 -6 -6 -6 -6 -6 -6 -5 -5 -5 -5 -6 -6 -6 -6 -6 -6 -6 -6 -6 -7 -6 -6 -7 -8 -9 -8 -8 -9 -8 -8 -8 -8 -8 -8 -8
-9 -9 -9 -8 -8 -8 -8 -8 -7 -7 -6 -6 -6 -6 -6 -6 -6 -5 -5 -6 -6 -6 -6 -6 -6 -6 -6 -6 -6 -6 -6 -6 -6 -7 -8 -8 -8 -9 -9 -8 -8 -8 -8 -9 -9
-9 -9 -9 -8 -8 -8 -8 -8 -7 -7 -7 -7 -6 -6 -6 -6 -6 -6 -6 -6 -6 -6 -6 -6 -6 -6 -6 -6 -6 -7 -7 -6 -6 -7 -6 -7 -8 -8 -8 -9 -8 -8 -8 -10 -10
-9 -9 -9 -9 -8 -8 -8 -8 -8 -7 -7 -7 -7 -7 -6 -6 -6 -6 -6 -6 -6 -6 -6 -6 -6 -6 -6 -6 -6 -6 -7 -7 -7 -6 -6 -6 -7 -8 -8 -9 -8 -8 -8 -8 -10
-9 -9 -9 -9 -8 -8 -8 -8 -8 -7 -7 -7 -7 -7 -7 -6 -6 -6 -6 -6 -6 -6 -6 -6 -6 -6 -6 -6 -6 -6 -6 -6 -7 -6 -7 -7 -7 -8 -9 -9 -7 -8 -8 -8 -9
-9 -9 -9 -9 -8 -8 -8 -8 -8 -8 -7 -7 -7 -7 -7 -7 -7 -7 -6 -6 -6 -6 -6 -6 -6 -6 -6 -6 -6 -6 -6 -6 -6 -6 -6 -6 -8 -8 -8 -8 -8 -8 -9 -9 -9
-9 -8 -9 -9 -8 -8 -8 -8 -8 -8 -8 -7 -7 -7 -7 -7 -7 -7 -7 -6 -6 -6 -6 -6 -6 -6 -6 -6 -6 -6 -6 -6 -6 -7 -6 -8 -8 -8 -8 -9 -8 -9 -9 -9 -9
-9 -9 -9 -9 -9 -8 -8 -8 -8 -8 -8 -7 -7 -7 -7 -7 -7 -7 -7 -7 -7 -6 -6 -6 -6 -6 -6 -6 -6 -6 -6 -6 -6 -7 -7 -8 -8 -8 -8 -9 -8 -8 -9 -9 -8
-9 -9 -9 -9 -9 -9 -8 -8 -8 -8 -8 -8 -7 -7 -7 -7 -7 -7 -7 -7 -7 -7 -6 -6 -6 -6 -6 -6 -6 -6 -6 -7 -7 -7 -7 -8 -8 -9 -8 -9 -9 -9 -9 -9 -8
-9 -9 -9 -9 -9 -9 -9 -9 -8 -8 -8 -8 -8 -8 -7 -7 -7 -7 -7 -7 -7 -7 -7 -6 -7 -6 -6 -6 -6 -6 -7 -7 -7 -7 -7 -8 -8 -9 -9 -9 -9 -9 -9 -9 -8
-9 -9 -9 -9 -9 -9 -9 -9 -8 -8 -8 -8 -8 -8 -8 -7 -8 -7 -7 -7 -7 -7 -7 -6 -7 -7 -6 -6 -6 -7 -7 -7 -7 -7 -7 -7 -8 -8 -8 -8 -8 -9 -9 -9 -9
-10 -10 -9 -9 -9 -9 -9 -9 -9 -9 -8 -8 -8 -8 -8 -8 -8 -8 -7 -7 -7 -7 -7 -7 -7 -7 -7 -7 -6 -7 -7 -7 -7 -7 -7 -8 -7 -7 -8 -9 -9 -9 -9 -9 -9
-9 -9 -9 -9 -9 -9 -9 -8 -9 -8 -9 -9 -9 -9 -9 -8 -8 -8 -7 -7 -8 -7 -7 -8 -7 -7 -7 -7 -7 -7 -7 -7 -7 -7 -7 -8 -8 -8 -8 -8 -8 -8 -9 -9 -9
-10 -9 -9 -9 -9 -9 -9 -8 -8 -8 -9 -9 -9 -8 -8 -8 -8 -8 -8 -8 -8 -8 -8 -7 -7 -7 -8 -8 -8 -8 -8 -7 -7 -7 -8 -8 -7 -8 -9 -9 -9 -8 -9 -9 -10
-10 -10 -10 -9 -9 -9 -9 -9 -9 -9 -9 -9 -9 -9 -9 -9 -9 -9 -9 -8 -8 -9 -8 -8 -8 -8 -8 -8 -8 -9 -8 -8 -7 -8 -8 -8 -8 -9 -9 -9 -8 -8 -9 -9 -9
-10 -10 -10 -10 -9 -9 -9 -9 -9 -10 -10 -10 -10 -9 -9 -9 -9 -9 -9 -8 -8 -8 -8 -8 -8 -8 -8 -8 -7 -8 -9 -9 -8 -8 -8 -8 -9 -9 -9 -8 -8 -8 -8 -10 -10
-10 -10 -10 -10 -9 -9 -9 -9 -10 -10 -10 -9 -10 -10 -10 -9 -9 -8 -9 -9 -9 -10 -9 -9 -9 -8 -9 -9 -8 -9 -9 -9 -9 -9 -9 -9 -9 -9 -9 -9 -9 -9 -9 -9 -10
-11 -11 -10 -10 -10 -9 -9 -10 -10 -10 -10 -10 -10 -10 -10 -10 -9 -9 -10 -10 -10 -10 -10 -9 -10 -8 -8 -9 -9 -9 -10 -10 -9 -9 -9 -9 -10 -9 -10 -9 -9 -9 -9 -9 -9
-11 -11 -11 -10 -10 -10 -10 -10 -10 -10 -10 -10 -10 -10 -10 -10 -10 -10 -10 -11 -10 -11 -11 -10 -10 -9 -9 -9 -9 -10 -9 -10 -10 -9 -9 -10 -10 -10 -9 -9 -9 -9 -10 -10 -10
-11 -11 -11 -11 -11 -10 -10 -10 -10 -10 -10 -9 -9 -10 -10 -10 -10 -10 -10 -11 -10 -10 -11 -10 -10 -10 -9 -9 -9 -9 -10 -9 -9 -9 -9 -9 -10 -10 -10 -9 -9 -9 -10 -10 -10
-12 -11 -11 -11 -11 -10 -10 -10 -10 -10 -10 -10 -10 -9 -9 -10 -10 -9 -11 -11 -10 -11 -11 -10 -10 -11 -10 -9 -10 -10 -10 -9 -9 -10 -10 -9 -10 -9 -9 -10 -10 -10 -10 -10 -9
-12 -12 -11 -11 -11 -11 -11 -11 -10 -10 -10 -11 -10 -10 -9 -9 -10 -9 -10 -11 -11 -11 -11 -10 -10 -11 -10 -10 -10 -10 -10 -9 -9 -9 -10 -10 -10 -10 -10 -10 -10 -10 -10 -9 -10
-13 -12 -12 -11 -11 -11 -11 -11 -11 -10 -10 -11 -10 -10 -9 -9 -10 -9 -10 -11 -11 -11 -11 -10 -10 -9 -9 -9 -10 -10 -10 -10 -10 -9 -9 -10 -9 -10 -10 -10 -10 -10 -10 -9 -10

GFSSW_500_temp_009.txt.gz
Temp
-7 -7 -7 -7 -7 -7 -6 -6 -6 -6 -6 -5 -5 -5 -5 -5 -5 -5 -5 -5 -5 -6 -5 -5 -5 -5 -6 -6 -7 -8 -7 -6 -6 -6 -7 -7 -7 -8 -8 -9 -8 -9 -9 -9 -8
-8 -7 -7 -7 -7 -7 -7 -6 -6 -6 -6 -6 -6 -6 -6 -6 -5 -5 -6 -5 -6 -6 -6 -6 -5 -5 -6 -6 -7 -8 -7 -6 -5 -5 -6 -7 -7 -8 -8 -9 -9 -9 -9 -8 -8
-8 -8 -8 -8 -7 -7 -7 -7 -6 -6 -6 -6 -6 -6 -6 -6 -6 -6 -6 -6 -6 -6 -6 -6 -6 -6 -6 -7 -7 -7 -7 -6 -6 -6 -6 -7 -7 -8 -8 -9 -9 -9 -9 -8 -8
-8 -8 -8 -7 -7 -7 -7 -7 -7 -6 -6 -6 -6 -6 -6 -6 -5 -5 -5 -6 -6 -6 -6 -6 -6 -6 -7 -7 -7 -7 -7 -6 -6 -6 -5 -6 -7 -7 -8 -8 -9 -9 -9 -8 -7
-8 -8 -8 -8 -8 -7 -7 -7 -7 -6 -6 -6 -6 -6 -6 -6 -6 -6 -6 -6 -6 -6 -6 -6 -6 -6 -6 -7 -7 -7 -6 -7 -6 -6 -6 -7 -7 -7 -8 -9 -9 -9 -9 -9 -9
-9 -9 -8 -8 -8 -8 -7 -7 -7 -7 -6 -6 -6 -6 -6 -6 -6 -5 -5 -6 -6 -6 -6 -6 -7 -6 -6 -6 -7 -7 -7 -7 -7 -7 -6 -7 -7 -8 -8 -8 -8 -9 -9 -9 -9
-9 -9 -9 -8 -8 -8 -8 -7 -7 -7 -7 -7 -7 -6 -6 -6 -6 -6 -6 -6 -6 -6 -6 -6 -7 -7 -6 -6 -7 -6 -7 -7 -7 -7 -7 -7 -7 -8 -7 -7 -8 -8 -9 -9 -9
-9 -9 -9 -9 -8 -8 -8 -8 -8 -7 -7 -7 -7 -7 -7 -6 -6 -6 -6 -6 -6 -6 -6 -6 -6 -6 -6 -6 -6 -6 -6 -7 -7 -7 -7 -7 -7 -8 -8 -8 -8 -8 -9 -9 -9
-9 -9 -9 -9 -9 -8 -8 -8 -8 -7 -7 -7 -7 -7 -7 -7 -7 -6 -6 -6 -6 -6 -6 -6 -6 -6 -6 -7 -6 -6 -6 -6 -7 -7 -7 -7 -7 -8 -8 -8 -9 -8 -9 -9 -9
-9 -9 -9 -9 -9 -8 -8 -8 -8 -8 -7 -7 -7 -7 -7 -7 -7 -7 -7 -7 -7 -6 -6 -6 -6 -6 -6 -6 -6 -6 -6 -6 -6 -6 -6 -7 -8 -9 -8 -8 -9 -8 -9 -9 -9
-9 -9 -9 -9 -8 -8 -8 -8 -8 -8 -8 -7 -7 -7 -7 -7 -7 -7 -7 -7 -7 -7 -6 -6 -6 -6 -6 -6 -6 -6 -6 -6 -7 -7 -6 -8 -7 -9 -9 -8 -8 -9 -9 -9 -9
-9 -9 -9 -8 -8 -8 -8 -8 -8 -8 -8 -8 -8 -8 -7 -7 -7 -7 -7 -7 -7 -7 -6 -6 -7 -6 -6 -6 -6 -6 -6 -6 -7 -7 -6 -7 -8 -8 -8 -8 -8 -9 -9 -9 -10
-10 -9 -9 -9 -9 -8 -8 -9 -8 -8 -8 -8 -8 -8 -7 -7 -7 -7 -7 -7 -7 -7 -7 -7 -7 -7 -6 -6 -6 -6 -6 -7 -6 -7 -7 -7 -7 -8 -9 -8 -8 -9 -9 -9 -9
-10 -10 -9 -9 -9 -8 -9 -9 -8 -8 -8 -8 -8 -8 -7 -8 -7 -8 -8 -7 -7 -7 -7 -7 -7 -7 -7 -7 -7 -7 -7 -7 -6 -6 -7 -7 -7 -8 -8 -8 -9 -9 -9 -9 -9
-10 -10 -10 -9 -9 -9 -9 -9 -9 -9 -8 -8 -8 -8 -8 -8 -8 -8 -8 -7 -7 -7 -7 -7 -7 -7 -7 -7 -7 -7 -6 -6 -6 -7 -7 -8 -7 -7 -7 -8 -8 -8 -9 -9 -9
-10 -10 -10 -10 -10 -9 -9 -9 -9 -9 -9 -8 -8 -8 -8 -8 -8 -8 -8 -8 -8 -7 -7 -7 -7 -7 -7 -7 -7 -7 -7 -7 -7 -7 -7 -8 -8 -8 -8 -8 -9 -9 -9 -8 -8
-10 -10 -10 -10 -9 -9 -9 -9 -9 -9 -9 -9 -9 -8 -8 -8 -8 -8 -8 -8 -8 -8 -7 -7 -7 -7 -7 -7 -7 -7 -7 -7 -7 -7 -8 -8 -8 -8 -8 -8 -8 -9 -9 -9 -8
-10 -10 -10 -10 -10 -10 -9 -9 -9 -9 -9 -9 -9 -9 -9 -9 -9 -8 -8 -8 -8 -8 -8 -7 -7 -8 -8 -8 -8 -8 -8 -7 -8 -8 -8 -8 -8 -8 -8 -8 -8 -9 -9 -9 -9
-10 -10 -10 -10 -10 -10 -9 -9 -9 -9 -9 -9 -9 -9 -9 -9 -9 -9 -8 -8 -9 -8 -8 -7 -7 -8 -8 -8 -8 -8 -7 -8 -8 -8 -8 -8 -8 -8 -9 -9 -9 -9 -8 -8 -9
-10 -10 -10 -10 -10 -10 -9 -9 -9 -9 -9 -9 -9 -9 -9 -9 -9 -9 -8 -8 -9 -9 -9 -8 -8 -8 -8 -8 -8 -8 -9 -8 -8 -8 -9 -9 -9 -9 -9 -9 -9 -9 -9 -10 -10
-11 -11 -11 -11 -10 -10 -10 -10 -10 -10 -10 -10 -10 -10 -9 -9 -9 -9 -9 -9 -9 -9 -9 -8 -8 -8 -9 -9 -9 -9 -9 -9 -9 -9 -9 -9 -9 -9 -10 -9 -9 -9 -9 -10 -9
-11 -11 -11 -11 -10 -10 -10 -10 -10 -10 -10 -10 -10 -10 -10 -9 -9 -9 -9 -10 -9 -9 -9 -9 -8 -9 -9 -10 -9 -9 -9 -9 -9 -9 -10 -10 -9 -9 -9 -9 -9 -10 -10 -10 -10
-11 -11 -11 -11 -10 -10 -10 -10 -10 -10 -10 -9 -10 -10 -10 -10 -10 -10 -10 -10 -10 -10 -9 -9 -8 -8 -9 -10 -10 -10 -9 -9 -9 -10 -10 -10 -9 -10 -10 -10 -10 -10 -10 -9 -10
-12 -11 -11 -11 -11 -10 -10 -10 -10 -10 -10 -10 -10 -10 -10 -10 -10 -10 -10 -11 -11 -11 -10 -9 -8 -9 -9 -9 -10 -10 -10 -10 -10 -10 -10 -9 -10 -10 -10 -10 -10 -10 -10 -10 -10
-12 -12 -11 -11 -11 -11 -10 -10 -10 -10 -10 -10 -10 -10 -10 -10 -10 -10 -11 -11 -11 -11 -11 -10 -9 -9 -10 -9 -10 -10 -10 -10 -10 -10 -10 -9 -9 -10 -10 -10 -10 -10 -10 -10 -10
-12 -12 -12 -11 -11 -11 -11 -11 -10 -10 -10 -11 -10 -10 -10 -10 -10 -10 -10 -11 -11 -11 -11 -11 -11 -10 -10 -10 -10 -10 -10 -10 -10 -10 -10 -9 -9 -10 -9 -9 -10 -10 -10 -10 -10
-13 -13 -12 -12 -12 -11 -11 -11 -10 -11 -11 -11 -10 -11 -10 -9 -10 -10 -10 -10 -11 -11 -11 -11 -11 -10 -11 -10 -9 -9 -10 -11 -11 -10 -10 -9 -9 -9 -10 -10 -10 -10 -10 -10 -10

GFSSW_500_temp_012.txt.gz
Temp
-8 -8 -7 -7 -7 -7 -7 -6 -6 -6 -6 -6 -6 -5 -5 -5 -6 -6 -6 -6 -6 -6 -5 -5 -6 -6 -6 -6 -5 -6 -7 -6 -6 -6 -6 -7 -7 -8 -7 -7 -7 -7 -8 -7 -8
-8 -8 -8 -7 -7 -7 -7 -6 -6 -6 -6 -6 -6 -6 -6 -6 -6 -6 -6 -6 -6 -6 -6 -5 -6 -6 -6 -5 -5 -5 -6 -6 -5 -5 -6 -6 -7 -7 -7 -7 -7 -8 -9 -9 -8
-8 -8 -8 -8 -7 -7 -7 -6 -6 -6 -6 -6 -6 -6 -6 -6 -6 -6 -6 -6 -6 -6 -6 -6 -6 -6 -5 -6 -6 -5 -6 -6 -6 -6 -6 -6 -6 -6 -6 -7 -7 -8 -9 -9 -9
-8 -8 -8 -8 -8 -7 -7 -7 -7 -6 -6 -6 -6 -6 -6 -6 -6 -6 -6 -6 -6 -6 -6 -6 -6 -6 -5 -6 -6 -6 -7 -7 -7 -7 -6 -6 -6 -7 -7 -7 -7 -8 -9 -9 -9
-8 -8 -8 -8 -8 -7 -7 -7 -7 -7 -7 -6 -6 -6 -6 -6 -6 -6 -6 -6 -6 -6 -6 -6 -6 -6 -6 -6 -6 -6 -7 -7 -7 -7 -7 -7 -7 -7 -7 -7 -8 -8 -9 -9 -9
-8 -8 -8 -8 -8 -8 -8 -7 -7 -7 -7 -7 -7 -6 -6 -6 -6 -6 -6 -6 -6 -6 -6 -6 -6 -6 -6 -6 -7 -7 -7 -7 -7 -7 -7 -7 -7 -7 -7 -7 -8 -8 -9 -9 -10
-9 -9 -8 -8 -8 -8 -8 -8 -7 -7 -7 -7 -7 -7 -6 -6 -6 -6 -6 -6 -6 -6 -6 -6 -6 -6 -6 -6 -7 -7 -7 -7 -7 -7 -6 -6 -6 -7 -7 -7 -8 -9 -9 -9 -9
-9 -9 -9 -9 -8 -8 -8 -8 -8 -7 -7 -7 -7 -7 -7 -6 -6 -6 -6 -6 -6 -6 -6 -7 -7 -6 -6 -6 -7 -7 -7 -7 -7 -7 -7 -7 -7 -7 -8 -7 -9 -9 -9 -9 -9
-9 -9 -9 -9 -9 -8 -8 -8 -8 -8 -7 -7 -7 -7 -7 -7 -7 -6 -6 -6 -6 -6 -7 -7 -7 -6 -6 -6 -6 -6 -7 -7 -7 -7 -7 -7 -7 -7 -8 -8 -9 -9 -9 -9 -9
-9 -9 -9 -9 -9 -8 -8 -8 -8 -8 -8 -7 -7 -7 -7 -7 -7 -7 -7 -7 -7 -7 -7 -7 -7 -6 -7 -6 -6 -6 -6 -6 -7 -7 -7 -7 -6 -6 -7 -8 -9 -9 -9 -9 -9
-9 -9 -9 -9 -9 -8 -9 -9 -8 -8 -8 -8 -8 -8 -8 -7 -7 -7 -7 -7 -7 -7 -7 -7 -7 -7 -6 -6 -6 -6 -6 -6 -7 -7 -7 -6 -6 -6 -7 -7 -8 -9 -9 -9 -9
-9 -9 -9 -9 -9 -8 -8 -8 -8 -8 -8 -8 -8 -8 -8 -8 -7 -7 -7 -7 -7 -7 -7 -7 -7 -6 -6 -6 -6 -6 -6 -7 -7 -7 -6 -6 -7 -7 -7 -7 -8 -9 -9 -9 -9
-10 -9 -9 -9 -9 -9 -8 -8 -8 -8 -8 -8 -8 -8 -8 -8 -8 -7 -7 -7 -7 -7 -7 -7 -7 -7 -7 -7 -7 -7 -7 -7 -7 -7 -7 -6 -7 -7 -7 -7 -8 -9 -9 -9 -9
-11 -10 -10 -9 -9 -9 -9 -8 -8 -8 -8 -8 -8 -8 -8 -8 -8 -8 -8 -8 -8 -8 -7 -7 -7 -7 -7 -7 -7 -7 -6 -6 -7 -7 -7 -7 -7 -7 -7 -7 -8 -8 -9 -9 -9
-11 -10 -10 -10 -9 -9 -9 -9 -9 -8 -8 -9 -8 -8 -8 -8 -8 -8 -8 -8 -8 -8 -7 -7 -7 -7 -7 -7 -7 -7 -7 -7 -7 -7 -7 -7 -8 -7 -7 -7 -7 -8 -9 -9 -9
-11 -11 -11 -10 -10 -10 -9 -9 -9 -9 -9 -8 -8 -8 -8 -8 -8 -8 -8 -8 -8 -8 -8 -8 -8 -8 -7 -7 -7 -7 -7 -7 -7 -7 -7 -7 -8 -7 -7 -8 -8 -9 -9 -9 -9
-11 -11 -11 -11 -10 -10 -10 -10 -9 -9 -9 -9 -9 -8 -8 -8 -8 -8 -8 -8 -8 -8 -8 -8 -8 -7 -7 -7 -7 -7 -8 -8 -8 -7 -7 -8 -7 -7 -7 -8 -8 -8 -8 -9 -9
-11 -11 -11 -11 -10 -10 -10 -10 -9 -9 -9 -9 -9 -8 -9 -8 -8 -8 -8 -8 -8 -8 -8 -8 -8 -8 -8 -8 -8 -8 -8 -8 -7 -8 -8 -8 -7 -7 -7 -8 -8 -8 -9 -9 -10
-11 -11 -11 -11 -10 -10 -10 -10 -9 -9 -9 -9 -9 -9 -9 -9 -8 -8 -8 -8 -8 -8 -8 -8 -8 -8 -8 -8 -8 -8 -8 -8 -8 -8 -8 -8 -8 -8 -7 -7 -8 -9 -9 -9 -10
-11 -11 -11 -10 -10 -10 -10 -10 -9 -9 -9 -9 -9 -9 -9 -9 -9 -9 -9 -9 -9 -9 -9 -8 -8 -8 -8 -8 -8 -9 -9 -9 -9 -8 -8 -8 -8 -8 -7 -7 -8 -9 -10 -9 -10
-11 -11 -10 -10 -10 -10 -10 -10 -10 -9 -9 -9 -9 -9 -9 -9 -9 -9 -9 -9 -9 -9 -9 -8 -8 -9 -8 -8 -9 -9 -8 -9 -9 -9 -9 -8 -9 -9 -9 -9 -9 -9 -9 -9 -9
-11 -11 -11 -11 -11 -10 -10 -10 -10 -10 -10 -10 -10 -9 -9 -9 -9 -9 -10 -10 -10 -10 -10 -10 -9 -9 -8 -9 -9 -9 -9 -9 -9 -9 -9 -9 -8 -10 -9 -10 -9 -10 -10 -10 -10
-11 -11 -11 -11 -11 -11 -10 -10 -10 -10 -10 -10 -10 -10 -9 -9 -9 -10 -10 -10 -10 -10 -10 -10 -10 -9 -9 -9 -9 -10 -10 -9 -9 -9 -9 -9 -9 -10 -10 -10 -10 -10 -10 -10 -10
-12 -11 -11 -11 -11 -11 -10 -11 -11 -11 -10 -10 -10 -10 -10 -10 -10 -10 -10 -11 -11 -10 -10 -10 -10 -9 -10 -10 -10 -10 -10 -10 -10 -10 -9 -9 -9 -10 -10 -10 -10 -10 -10 -10 -10
-12 -12 -12 -11 -11 -11 -11 -11 -11 -11 -11 -10 -10 -10 -10 -10 -10 -10 -11 -11 -11 -11 -11 -11 -10 -10 -10 -10 -10 -10 -11 -10 -10 -10 -10 -10 -10 -10 -10 -10 -10 -10 -10 -10 -11
-13 -12 -12 -12 -11 -11 -11 -11 -11 -11 -11 -11 -10 -10 -10 -10 -10 -10 -10 -11 -12 -12 -11 -11 -11 -11 -10 -10 -10 -10 -10 -10 -11 -11 -10 -10 -10 -10 -10 -10 -10 -10 -10 -10 -11
-13 -13 -13 -12 -12 -12 -11 -11 -11 -11 -11 -11 -11 -11 -11 -10 -10 -10 -10 -11 -11 -12 -12 -12 -12 -11 -11 -10 -10 -10 -10 -10 -10 -11 -10 -10 -10 -10 -10 -10 -10 -10 -10 -10 -10

GFSSW_500_temp_018.txt.gz
Temp
-8 -8 -8 -8 -7 -7 -7 -7 -7 -6 -6 -6 -6 -6 -6 -5 -5 -5 -5 -5 -5 -5 -5 -5 -5 -5 -5 -5 -6 -6 -6 -7 -7 -7 -7 -7 -7 -7 -7 -7 -7 -7 -7 -7 -7
-8 -8 -8 -8 -8 -7 -7 -7 -7 -7 -6 -6 -6 -6 -6 -6 -5 -5 -5 -5 -5 -5 -5 -5 -5 -5 -5 -5 -6 -6 -8 -7 -7 -7 -7 -7 -7 -7 -7 -7 -7 -7 -7 -7 -8
-8 -8 -8 -8 -8 -8 -7 -7 -7 -7 -7 -6 -6 -6 -6 -6 -6 -6 -6 -5 -5 -5 -5 -5 -5 -5 -5 -5 -6 -6 -7 -6 -7 -7 -7 -7 -7 -7 -8 -8 -7 -7 -8 -7 -7
-9 -8 -8 -8 -8 -8 -7 -7 -7 -7 -7 -6 -6 -6 -6 -6 -6 -6 -6 -6 -6 -5 -5 -5 -5 -5 -5 -6 -6 -6 -6 -6 -6 -7 -7 -7 -7 -8 -8 -8 -8 -8 -8 -7 -8
-9 -9 -8 -8 -8 -8 -8 -8 -7 -7 -7 -7 -6 -6 -6 -6 -6 -6 -6 -6 -6 -6 -6 -6 -6 -6 -6 -6 -6 -6 -6 -6 -6 -6 -6 -7 -7 -7 -8 -8 -8 -8 -8 -7 -7
-9 -9 -8 -8 -8 -8 -8 -8 -8 -7 -7 -7 -7 -6 -6 -6 -6 -6 -6 -6 -6 -6 -6 -6 -6 -6 -6 -6 -6 -6 -6 -7 -6 -6 -6 -7 -7 -7 -7 -7 -8 -8 -8 -7 -7
-9 -9 -9 -8 -8 -8 -8 -8 -8 -8 -8 -7 -7 -7 -6 -6 -6 -6 -6 -6 -6 -6 -6 -6 -6 -6 -6 -6 -7 -7 -7 -7 -6 -6 -6 -7 -7 -7 -7 -7 -7 -8 -8 -8 -7
-9 -9 -9 -9 -8 -8 -8 -8 -8 -8 -8 -7 -7 -7 -7 -6 -6 -6 -6 -6 -6 -6 -6 -6 -6 -6 -6 -6 -6 -6 -7 -7 -6 -6 -6 -7 -8 -7 -8 -8 -8 -8 -8 -8 -8
-9 -9 -9 -9 -9 -8 -8 -8 -8 -8 -8 -8 -7 -7 -7 -7 -7 -6 -6 -6 -6 -6 -6 -6 -6 -6 -7 -6 -6 -6 -7 -7 -6 -6 -6 -6 -7 -7 -7 -8 -8 -7 -7 -7 -8
-9 -9 -9 -9 -9 -9 -9 -8 -8 -8 -8 -8 -8 -7 -7 -7 -7 -7 -6 -6 -6 -6 -6 -7 -6 -6 -6 -7 -7 -6 -6 -7 -6 -6 -6 -6 -6 -7 -7 -7 -8 -8 -7 -7 -8
-10 -9 -9 -9 -9 -9 -9 -8 -8 -8 -8 -8 -8 -8 -7 -7 -7 -7 -7 -7 -6 -6 -6 -7 -7 -7 -6 -6 -6 -6 -6 -7 -6 -6 -6 -6 -7 -7 -7 -7 -7 -7 -7 -7 -7
-10 -9 -9 -9 -9 -9 -9 -9 -8 -8 -8 -8 -8 -8 -8 -7 -7 -7 -7 -7 -7 -7 -7 -7 -7 -7 -6 -6 -6 -6 -6 -6 -6 -6 -6 -6 -7 -7 -7 -7 -7 -7 -7 -7 -7
-10 -10 -10 -9 -9 -9 -9 -9 -9 -8 -8 -8 -8 -8 -8 -8 -8 -8 -7 -7 -7 -7 -7 -7 -7 -7 -7 -7 -7 -6 -6 -6 -6 -6 -6 -6 -7 -7 -7 -7 -7 -7 -7 -7 -8
-11 -11 -10 -10 -9 -9 -9 -9 -9 -9 -9 -8 -8 -8 -8 -8 -8 -8 -8 -8 -8 -7 -7 -7 -7 -7 -7 -7 -7 -7 -7 -6 -6 -7 -8 -7 -8 -7 -7 -7 -7 -7 -7 -8 -8
-12 -12 -11 -11 -10 -9 -9 -9 -9 -9 -9 -9 -8 -8 -8 -8 -8 -8 -8 -8 -8 -7 -7 -7 -7 -7 -7 -7 -7 -7 -7 -7 -7 -7 -7 -7 -7 -8 -7 -7 -7 -7 -7 -8 -8
-12 -12 -11 -11 -10 -10 -9 -9 -9 -9 -9 -9 -8 -8 -8 -8 -8 -8 -8 -8 -8 -8 -8 -8 -8 -8 -8 -7 -7 -7 -7 -7 -7 -7 -7 -7 -7 -8 -8 -7 -7 -7 -7 -8 -8
-12 -12 -12 -11 -11 -10 -10 -10 -10 -9 -9 -9 -9 -9 -9 -8 -8 -8 -8 -8 -8 -8 -8 -8 -8 -8 -8 -8 -7 -7 -7 -8 -8 -8 -8 -7 -7 -7 -7 -7 -7 -7 -8 -8 -8
-12 -11 -11 -11 -11 -11 -11 -10 -10 -9 -9 -9 -9 -9 -9 -9 -8 -8 -8 -8 -8 -8 -8 -8 -8 -8 -8 -8 -8 -7 -8 -8 -9 -8 -8 -8 -7 -9 -7 -7 -7 -8 -8 -9 -9
-11 -11 -11 -11 -11 -11 -11 -11 -10 -10 -10 -9 -9 -9 -9 -9 -9 -9 -9 -9 -8 -8 -8 -8 -9 -8 -8 -8 -8 -8 -8 -8 -8 -8 -8 -9 -9 -8 -8 -8 -8 -8 -8 -9 -9
-11 -11 -11 -11 -11 -11 -11 -10 -10 -10 -10 -10 -10 -10 -9 -9 -9 -9 -9 -9 -9 -8 -9 -9 -9 -9 -8 -8 -8 -8 -8 -8 -8 -9 -9 -9 -9 -9 -8 -8 -8 -9 -9 -9 -9
-11 -11 -11 -11 -11 -11 -11 -10 -10 -10 -11 -10 -10 -10 -10 -10 -9 -9 -9 -9 -9 -9 -9 -9 -9 -9 -9 -9 -9 -8 -8 -8 -9 -9 -9 -8 -9 -9 -9 -9 -8 -9 -9 -10 -10
-11 -11 -11 -11 -11 -11 -10 -10 -11 -11 -11 -11 -10 -10 -10 -10 -10 -9 -9 -9 -9 -9 -9 -9 -9 -9 -10 -9 -9 -9 -9 -9 -10 -10 -10 -9 -9 -9 -9 -9 -9 -10 -10 -10 -10
-12 -12 -12 -11 -11 -11 -10 -11 -11 -11 -11 -11 -11 -10 -10 -10 -10 -9 -9 -9 -9 -9 -9 -9 -9 -10 -10 -10 -10 -9 -9 -9 -9 -9 -10 -10 -9 -10 -10 -9 -10 -10 -10 -10 -10
-12 -12 -12 -12 -12 -11 -11 -11 -11 -11 -11 -11 -10 -10 -10 -10 -9 -9 -9 -9 -9 -9 -10 -10 -10 -10 -10 -10 -11 -10 -10 -10 -10 -10 -10 -10 -10 -10 -10 -10 -10 -10 -10 -10 -10
-13 -12 -12 -12 -12 -12 -11 -11 -11 -11 -11 -10 -10 -10 -10 -10 -10 -9 -9 -9 -10 -10 -10 -10 -10 -10 -10 -11 -11 -11 -11 -10 -10 -10 -10 -10 -10 -10 -10 -10 -10 -10 -10 -10 -10
-13 -13 -12 -12 -12 -12 -12 -11 -11 -11 -11 -11 -10 -10 -10 -10 -10 -10 -10 -10 -10 -10 -10 -10 -10 -10 -11 -11 -11 -11 -11 -11 -11 -11 -10 -10 -10 -10 -10 -10 -10 -10 -10 -10 -10
-14 -13 -13 -13 -12 -12 -12 -12 -11 -11 -11 -10 -10 -11 -10 -10 -10 -10 -10 -10 -10 -10 -10 -10 -10 -10 -11 -11 -11 -11 -11 -11 -11 -11 -11 -11 -11 -11 -10 -10 -10 -10 -10 -10 -10

GFSSW_500_temp_021.txt.gz
Temp
-8 -8 -8 -7 -7 -7 -7 -7 -7 -7 -6 -6 -6 -6 -5 -5 -5 -5 -5 -5 -5 -4 -4 -4 -5 -5 -5 -5 -6 -7 -7 -7 -7 -7 -7 -8 -8 -7 -7 -7 -7 -6 -6 -6 -7
-8 -8 -8 -7 -7 -7 -7 -7 -7 -7 -6 -6 -6 -6 -6 -6 -5 -5 -5 -5 -5 -5 -5 -4 -5 -4 -5 -6 -6 -5 -6 -7 -7 -7 -8 -7 -7 -7 -7 -7 -7 -7 -6 -7 -7
-8 -8 -8 -8 -7 -7 -7 -7 -7 -7 -6 -6 -6 -6 -6 -6 -6 -6 -5 -5 -5 -5 -5 -5 -5 -5 -5 -6 -6 -7 -7 -6 -6 -6 -6 -8 -8 -8 -8 -7 -8 -7 -7 -6 -7
-9 -8 -8 -8 -8 -8 -7 -7 -7 -7 -7 -6 -6 -6 -6 -6 -5 -5 -5 -5 -5 -5 -5 -5 -5 -5 -5 -6 -6 -6 -6 -6 -6 -6 -6 -7 -7 -8 -8 -8 -7 -7 -7 -6 -6
-9 -9 -8 -8 -8 -8 -8 -7 -7 -7 -7 -7 -6 -6 -6 -6 -5 -5 -5 -5 -5 -5 -5 -5 -5 -5 -5 -6 -6 -6 -6 -6 -6 -6 -6 -6 -8 -7 -7 -7 -7 -7 -7 -7 -6
-9 -9 -8 -8 -8 -8 -8 -7 -7 -7 -7 -7 -6 -6 -6 -6 -6 -6 -5 -5 -5 -6 -5 -6 -6 -6 -6 -6 -6 -6 -6 -6 -6 -6 -7 -7 -7 -7 -7 -7 -7 -7 -7 -7 -7
-9 -9 -9 -8 -9 -8 -8 -8 -8 -7 -7 -7 -6 -6 -6 -6 -6 -6 -6 -6 -5 -6 -6 -6 -6 -6 -6 -6 -6 -6 -6 -7 -6 -6 -7 -7 -8 -8 -7 -7 -7 -7 -7 -7 -7
-9 -9 -9 -9 -9 -9 -8 -8 -8 -8 -7 -7 -7 -7 -6 -6 -6 -6 -6 -6 -6 -6 -6 -6 -6 -6 -6 -6 -6 -6 -7 -8 -7 -6 -6 -6 -8 -7 -7 -7 -7 -7 -7 -7 -7
-9 -9 -9 -9 -9 -9 -8 -8 -8 -8 -7 -7 -7 -7 -7 -7 -6 -6 -6 -6 -6 -6 -6 -6 -6 -6 -6 -6 -7 -7 -7 -7 -7 -6 -6 -6 -8 -7 -7 -7 -7 -7 -7 -7 -8
-9 -9 -9 -9 -9 -9 -9 -8 -8 -8 -8 -8 -8 -7 -7 -7 -7 -6 -6 -6 -6 -6 -6 -6 -6 -6 -6 -6 -7 -7 -7 -7 -7 -7 -6 -7 -8 -8 -6 -7 -7 -7 -7 -7 -8
-10 -9 -9 -9 -9 -9 -9 -9 -8 -8 -8 -8 -7 -7 -7 -7 -7 -7 -6 -6 -6 -6 -6 -6 -6 -7 -8 -7 -6 -6 -6 -7 -7 -6 -6 -6 -6 -6 -6 -6 -6 -7 -7 -7 -8
-10 -10 -9 -9 -9 -9 -9 -9 -9 -8 -8 -8 -8 -7 -7 -7 -7 -7 -7 -7 -7 -6 -6 -6 -7 -7 -6 -6 -6 -6 -6 -7 -7 -6 -6 -6 -7 -7 -6 -6 -7 -7 -7 -7 -8
-10 -10 -10 -9 -9 -9 -9 -9 -9 -8 -8 -8 -8 -8 -7 -7 -7 -7 -7 -7 -7 -7 -7 -7 -8 -6 -7 -7 -6 -6 -6 -8 -6 -6 -6 -6 -6 -7 -7 -6 -7 -7 -7 -7 -7
-10 -10 -10 -10 -9 -9 -9 -9 -9 -9 -9 -8 -8 -8 -8 -8 -7 -7 -7 -7 -7 -7 -7 -7 -7 -7 -7 -7 -7 -7 -6 -6 -6 -6 -7 -7 -7 -7 -8 -7 -6 -7 -7 -7 -7
-10 -10 -10 -10 -10 -9 -9 -9 -9 -9 -9 -9 -8 -8 -8 -8 -7 -8 -8 -8 -7 -7 -7 -8 -7 -7 -7 -7 -7 -8 -7 -7 -6 -6 -7 -7 -7 -7 -7 -8 -9 -7 -7 -7 -8
-11 -11 -10 -10 -10 -10 -10 -9 -9 -9 -10 -10 -8 -8 -8 -8 -8 -8 -8 -8 -7 -7 -8 -7 -7 -7 -7 -7 -7 -7 -7 -7 -7 -7 -7 -7 -7 -7 -7 -8 -7 -7 -7 -8 -8
-13 -12 -12 -11 -11 -11 -10 -10 -9 -9 -10 -10 -9 -8 -8 -8 -8 -8 -8 -8 -8 -8 -8 -8 -8 -8 -7 -7 -7 -7 -7 -7 -7 -7 -7 -7 -7 -8 -8 -7 -7 -7 -7 -8 -8
-12 -12 -12 -12 -11 -11 -11 -10 -10 -10 -11 -9 -9 -9 -9 -9 -8 -8 -8 -8 -8 -8 -9 -8 -9 -8 -8 -8 -8 -7 -7 -8 -7 -6 -7 -9 -8 -8 -8 -7 -7 -7 -8 -8 -8
-12 -12 -12 -12 -12 -11 -11 -10 -10 -11 -11 -9 -9 -9 -9 -9 -9 -8 -8 -8 -8 -8 -8 -9 -9 -8 -8 -8 -8 -9 -8 -8 -8 -8 -7 -7 -7 -8 -8 -8 -8 -8 -8 -9 -9
-11 -11 -11 -12 -12 -12 -11 -11 -12 -10 -9 -10 -10 -10 -9 -9 -9 -9 -9 -9 -9 -8 -8 -9 -9 -9 -8 -8 -8 -8 -8 -8 -8 -8 -8 -7 -8 -8 -8 -9 -9 -8 -9 -10 -10
-11 -11 -11 -11 -12 -12 -11 -12 -11 -10 -10 -10 -10 -10 -10 -10 -9 -10 -10 -9 -9 -8 -8 -9 -9 -9 -8 -8 -9 -8 -8 -8 -8 -8 -8 -8 -9 -9 -8 -9 -10 -8 -9 -10 -10
-12 -11 -11 -11 -11 -11 -12 -12 -11 -11 -11 -11 -10 -10 -10 -10 -9 -10 -10 -10 -9 -9 -8 -9 -9 -9 -10 -10 -10 -9 -9 -10 -9 -9 -9 -8 -8 -9 -9 -9 -8 -8 -9 -10 -10
-12 -11 -12 -11 -11 -11 -11 -11 -10 -11 -11 -11 -10 -10 -10 -10 -10 -10 -10 -10 -9 -9 -9 -9 -9 -9 -9 -9 -10 -9 -9 -9 -10 -9 -9 -9 -8 -10 -9 -9 -9 -9 -9 -10 -10
-12 -12 -12 -12 -11 -11 -11 -11 -11 -11 -11 -11 -11 -10 -10 -10 -10 -10 -10 -9 -9 -9 -9 -9 -9 -9 -9 -10 -10 -10 -9 -10 -10 -10 -9 -9 -8 -9 -9 -9 -9 -10 -10 -10 -10
-13 -12 -12 -12 -12 -12 -11 -11 -11 -11 -11 -11 -11 -11 -11 -11 -10 -10 -10 -10 -9 -9 -9 -9 -9 -9 -9 -10 -10 -10 -10 -10 -10 -10 -10 -9 -9 -9 -9 -9 -10 -10 -10 -10 -10
-13 -13 -12 -12 -12 -12 -12 -11 -11 -11 -11 -11 -11 -11 -11 -11 -10 -10 -10 -10 -10 -9 -9 -9 -9 -9 -10 -11 -10 -10 -10 -10 -10 -10 -10 -9 -10 -10 -10 -10 -10 -10 -10 -10 -10
-14 -13 -13 -12 -12 -12 -12 -12 -12 -12 -11 -11 -11 -11 -11 -11 -11 -10 -10 -9 -9 -9 -9 -9 -9 -9 -9 -11 -10 -10 -11 -10 -10 -10 -10 -9 -10 -9 -10 -9 -10 -10 -10 -10 -10

GFSSW_500_temp_024.txt.gz
Temp
-8 -8 -7 -7 -7 -7 -7 -7 -7 -6 -6 -6 -6 -6 -5 -5 -5 -5 -5 -5 -4 -4 -5 -5 -5 -5 -5 -6 -6 -7 -6 -7 -6 -7 -7 -8 -6 -6 -7 -7 -7 -7 -6 -6 -6
-8 -8 -8 -8 -7 -7 -7 -7 -7 -7 -6 -6 -6 -6 -6 -6 -5 -5 -5 -5 -5 -4 -4 -5 -5 -5 -5 -5 -7 -5 -6 -7 -7 -6 -7 -7 -7 -7 -7 -7 -5 -7 -7 -7 -6
-8 -8 -8 -8 -8 -7 -7 -7 -7 -7 -6 -6 -6 -6 -6 -6 -6 -5 -5 -5 -5 -5 -5 -5 -5 -5 -5 -6 -7 -7 -7 -8 -7 -5 -6 -8 -7 -8 -8 -7 -5 -7 -7 -6 -6
-8 -8 -8 -8 -8 -7 -7 -7 -7 -7 -7 -6 -6 -6 -6 -6 -5 -5 -5 -5 -5 -5 -5 -5 -5 -5 -5 -6 -7 -7 -7 -8 -6 -5 -6 -7 -6 -8 -8 -8 -7 -7 -7 -6 -6
-8 -8 -8 -8 -8 -8 -7 -7 -7 -7 -6 -7 -6 -6 -6 -6 -5 -5 -5 -5 -5 -5 -5 -5 -5 -5 -5 -8 -6 -7 -8 -6 -6 -6 -6 -6 -7 -7 -7 -6 -7 -6 -6 -7 -7
-9 -9 -9 -9 -8 -8 -8 -7 -7 -7 -7 -7 -6 -6 -6 -6 -6 -6 -5 -5 -5 -5 -5 -5 -5 -5 -5 -5 -6 -6 -5 -5 -6 -6 -7 -7 -8 -8 -7 -7 -6 -6 -6 -6 -7
-9 -9 -9 -9 -8 -8 -8 -8 -7 -7 -7 -7 -7 -6 -6 -6 -6 -6 -5 -5 -5 -5 -5 -5 -5 -5 -5 -6 -6 -5 -5 -6 -6 -6 -7 -7 -7 -7 -7 -6 -6 -6 -7 -7 -7
-9 -9 -9 -9 -9 -8 -8 -8 -8 -7 -7 -7 -7 -6 -6 -6 -6 -6 -6 -6 -6 -5 -5 -5 -6 -6 -6 -5 -5 -6 -6 -6 -7 -7 -7 -6 -8 -8 -7 -6 -5 -6 -6 -7 -7
-9 -9 -9 -9 -9 -8 -8 -8 -8 -8 -8 -7 -7 -7 -6 -6 -6 -6 -6 -6 -6 -6 -5 -5 -6 -6 -6 -6 -6 -6 -7 -7 -7 -7 -6 -6 -7 -7 -7 -7 -6 -6 -7 -7 -7
-9 -9 -9 -9 -9 -9 -8 -8 -8 -8 -8 -7 -7 -7 -7 -6 -6 -6 -6 -6 -6 -6 -6 -6 -6 -6 -6 -6 -7 -7 -6 -6 -7 -7 -5 -6 -7 -7 -8 -6 -7 -6 -6 -7 -7
-10 -9 -9 -9 -9 -9 -9 -9 -8 -8 -8 -8 -7 -7 -7 -7 -7 -6 -6 -6 -6 -6 -6 -6 -6 -6 -7 -8 -7 -6 -7 -6 -7 -7 -6 -6 -6 -7 -8 -7 -7 -6 -7 -7 -7
-10 -10 -9 -9 -9 -9 -9 -9 -8 -8 -8 -8 -7 -7 -7 -7 -7 -7 -7 -6 -6 -6 -6 -6 -6 -7 -7 -6 -7 -6 -6 -6 -7 -7 -6 -6 -6 -7 -7 -6 -7 -7 -6 -7 -7
-10 -10 -10 -9 -9 -9 -9 -9 -9 -8 -8 -8 -8 -7 -7 -7 -7 -7 -7 -7 -6 -6 -6 -7 -8 -7 -6 -7 -7 -7 -6 -7 -7 -7 -6 -6 -6 -7 -7 -6 -6 -7 -7 -7 -7
-10 -10 -10 -10 -9 -9 -9 -9 -9 -9 -8 -8 -8 -8 -7 -7 -7 -7 -7 -7 -7 -7 -7 -7 -7 -6 -6 -7 -7 -7 -8 -7 -7 -6 -6 -7 -7 -7 -7 -7 -7 -6 -7 -7 -6
-10 -10 -10 -10 -10 -9 -9 -9 -9 -9 -9 -9 -8 -8 -8 -7 -8 -7 -7 -7 -7 -7 -7 -7 -7 -7 -7 -7 -7 -8 -7 -6 -6 -6 -6 -7 -7 -7 -7 -8 -8 -8 -6 -7 -7
-11 -10 -10 -10 -10 -10 -10 -9 -9 -9 -9 -10 -8 -8 -8 -8 -8 -7 -7 -7 -7 -7 -7 -7 -7 -7 -7 -7 -7 -7 -7 -7 -7 -6 -6 -7 -7 -6 -7 -7 -8 -8 -6 -7 -7
-11 -11 -10 -10 -10 -10 -10 -10 -9 -9 -9 -10 -9 -8 -8 -8 -8 -8 -8 -7 -7 -7 -7 -7 -7 -7 -7 -7 -7 -7 -7 -7 -7 -7 -7 -7 -7 -7 -7 -7 -6 -7 -7 -7 -7
-11 -11 -12 -11 -11 -11 -10 -10 -9 -9 -9 -10 -10 -9 -8 -8 -8 -8 -8 -8 -8 -8 -9 -8 -8 -7 -7 -7 -8 -8 -7 -8 -8 -7 -7 -8 -7 -7 -7 -7 -7 -7 -7 -7 -7
-11 -12 -13 -13 -12 -12 -11 -10 -10 -10 -10 -11 -11 -10 -9 -9 -9 -9 -8 -8 -8 -8 -8 -8 -8 -8 -9 -8 -7 -8 -8 -8 -8 -7 -7 -7 -7 -8 -8 -8 -7 -7 -7 -7 -7
-11 -12 -12 -13 -12 -12 -12 -11 -10 -11 -11 -12 -11 -9 -10 -10 -10 -10 -9 -8 -8 -8 -8 -9 -9 -9 -8 -8 -8 -8 -8 -8 -8 -8 -7 -7 -7 -7 -8 -8 -8 -8 -7 -7 -7
-11 -11 -12 -12 -12 -12 -12 -11 -11 -12 -12 -11 -10 -11 -10 -10 -10 -10 -10 -9 -9 -10 -10 -9 -8 -9 -9 -7 -8 -8 -8 -8 -8 -8 -8 -7 -7 -7 -8 -8 -8 -8 -8 -8 -8
-12 -11 -12 -12 -12 -12 -12 -12 -12 -14 -11 -10 -10 -10 -11 -11 -10 -10 -10 -10 -10 -10 -10 -9 -9 -9 -9 -9 -9 -9 -9 -9 -9 -8 -8 -7 -8 -9 -8 -8 -9 -8 -8 -8 -8
-12 -12 -12 -12 -11 -12 -12 -12 -12 -12 -11 -11 -11 -11 -10 -11 -10 -9 -10 -10 -10 -10 -10 -9 -9 -9 -9 -9 -9 -9 -9 -9 -9 -8 -8 -9 -8 -8 -9 -9 -10 -9 -9 -9 -9
-13 -13 -13 -13 -12 -11 -12 -12 -13 -11 -11 -12 -11 -11 -11 -10 -10 -10 -11 -10 -10 -10 -10 -9 -9 -9 -9 -9 -10 -9 -10 -9 -9 -9 -9 -9 -8 -9 -9 -9 -8 -10 -9 -9 -9
-13 -13 -12 -13 -13 -12 -12 -12 -12 -11 -11 -12 -11 -11 -10 -10 -10 -10 -10 -11 -10 -9 -9 -9 -9 -9 -8 -9 -10 -10 -9 -9 -9 -9 -9 -9 -9 -9 -9 -9 -9 -10 -10 -10 -9
-13 -13 -12 -12 -12 -12 -12 -12 -11 -11 -11 -11 -11 -11 -11 -11 -11 -11 -11 -10 -12 -10 -10 -10 -9 -9 -9 -8 -9 -10 -9 -9 -9 -9 -9 -9 -9 -9 -9 -9 -10 -10 -10 -10 -9
-14 -13 -13 -12 -13 -13 -14 -13 -12 -12 -12 -11 -11 -11 -11 -11 -11 -11 -10 -10 -11 -10 -10 -10 -9 -9 -9 -9 -9 -9 -10 -10 -10 -10 -9 -9 -9 -9 -9 -8 -8 -11 -10 -9 -9

GFSSW_500_temp_027.txt.gz
Temp
-8 -8 -8 -7 -7 -7 -6 -7 -6 -6 -6 -6 -5 -5 -5 -5 -5 -5 -5 -4 -5 -5 -5 -5 -5 -6 -7 -7 -6 -6 -7 -7 -7 -8 -7 -7 -6 -6 -6 -6 -6 -6 -6 -7 -7
-8 -8 -8 -7 -7 -7 -7 -7 -7 -6 -6 -6 -6 -5 -5 -5 -5 -5 -5 -5 -5 -5 -5 -5 -5 -5 -6 -7 -7 -7 -7 -8 -8 -8 -7 -8 -7 -7 -6 -6 -6 -6 -6 -7 -7
-8 -8 -8 -8 -7 -7 -7 -7 -7 -7 -6 -6 -6 -6 -5 -5 -5 -5 -5 -5 -5 -5 -5 -5 -6 -5 -5 -6 -7 -6 -7 -6 -7 -7 -6 -8 -8 -8 -6 -6 -6 -6 -6 -7 -7
-8 -8 -8 -8 -8 -7 -7 -7 -7 -7 -6 -6 -6 -6 -6 -5 -5 -5 -5 -5 -5 -5 -5 -5 -5 -6 -6 -6 -7 -7 -7 -7 -7 -6 -6 -6 -8 -7 -6 -6 -6 -6 -6 -6 -6
-8 -8 -9 -8 -8 -8 -7 -7 -7 -7 -7 -6 -6 -6 -6 -5 -5 -5 -5 -5 -5 -5 -5 -5 -5 -5 -5 -6 -8 -6 -7 -6 -6 -6 -7 -6 -7 -8 -6 -5 -6 -6 -6 -6 -6
-9 -8 -8 -8 -8 -8 -7 -7 -7 -7 -7 -7 -6 -6 -6 -6 -5 -5 -5 -5 -5 -5 -5 -5 -5 -5 -5 -5 -7 -6 -5 -6 -6 -6 -7 -6 -7 -7 -7 -6 -6 -6 -5 -6 -6
-9 -9 -8 -9 -8 -8 -8 -7 -7 -7 -7 -7 -6 -6 -6 -6 -6 -6 -6 -5 -5 -5 -5 -5 -5 -5 -5 -5 -5 -6 -6 -6 -6 -7 -7 -7 -7 -7 -7 -6 -6 -6 -6 -5 -6
-9 -9 -8 -8 -8 -8 -8 -8 -7 -7 -7 -7 -7 -6 -6 -6 -6 -6 -6 -6 -5 -5 -5 -5 -5 -5 -6 -5 -5 -6 -6 -6 -7 -8 -8 -7 -7 -6 -7 -6 -6 -6 -6 -5 -6
-9 -9 -9 -8 -9 -8 -8 -8 -8 -8 -7 -7 -7 -7 -6 -6 -6 -6 -6 -6 -5 -5 -5 -5 -5 -5 -6 -6 -6 -6 -6 -7 -7 -7 -7 -7 -7 -8 -8 -6 -6 -6 -6 -6 -6
-9 -9 -9 -9 -9 -9 -8 -8 -8 -8 -8 -7 -7 -7 -6 -6 -6 -6 -6 -6 -6 -5 -5 -6 -6 -5 -5 -6 -6 -7 -7 -7 -6 -7 -6 -6 -6 -7 -8 -7 -6 -6 -7 -6 -6
-10 -9 -9 -9 -9 -9 -9 -8 -8 -8 -8 -7 -7 -7 -6 -6 -6 -6 -6 -6 -6 -6 -6 -6 -6 -6 -6 -6 -6 -7 -7 -7 -7 -7 -7 -7 -6 -6 -7 -6 -6 -7 -6 -7 -6
-10 -10 -9 -9 -9 -9 -9 -8 -8 -8 -8 -8 -7 -7 -6 -7 -6 -6 -6 -6 -6 -6 -6 -6 -6 -7 -6 -5 -6 -6 -7 -6 -7 -7 -6 -6 -6 -6 -7 -7 -7 -7 -7 -7 -7
-10 -10 -10 -10 -9 -9 -9 -9 -8 -8 -8 -8 -8 -8 -7 -7 -7 -7 -7 -6 -6 -6 -6 -6 -6 -7 -6 -6 -6 -7 -6 -6 -6 -7 -6 -6 -6 -7 -7 -7 -7 -7 -7 -6 -7
-10 -10 -10 -10 -10 -9 -9 -9 -9 -8 -8 -8 -7 -7 -7 -7 -7 -7 -7 -7 -6 -6 -6 -7 -6 -6 -6 -6 -7 -7 -7 -7 -6 -6 -6 -7 -6 -7 -7 -7 -8 -8 -7 -6 -7
-10 -10 -10 -10 -10 -9 -9 -9 -9 -9 -8 -9 -8 -8 -8 -7 -7 -7 -7 -7 -7 -7 -7 -7 -7 -6 -6 -6 -7 -7 -7 -6 -6 -7 -6 -6 -7 -7 -7 -7 -8 -7 -7 -7 -7
-11 -10 -10 -10 -10 -10 -10 -9 -9 -9 -8 -9 -8 -8 -8 -8 -8 -7 -7 -7 -7 -7 -7 -8 -7 -7 -6 -7 -7 -7 -6 -7 -7 -7 -6 -7 -7 -7 -7 -7 -9 -8 -7 -7 -8
-11 -11 -10 -10 -10 -10 -10 -10 -9 -9 -9 -9 -9 -8 -8 -8 -8 -8 -7 -7 -7 -7 -7 -7 -7 -7 -7 -7 -7 -7 -7 -7 -7 -7 -7 -8 -7 -7 -8 -8 -9 -8 -7 -7 -8
-11 -11 -11 -11 -10 -10 -10 -10 -10 -9 -9 -10 -10 -9 -9 -8 -8 -8 -8 -8 -8 -8 -8 -8 -8 -8 -8 -7 -7 -7 -7 -7 -7 -7 -8 -8 -8 -7 -7 -8 -9 -10 -9 -8 -8
-11 -11 -11 -11 -10 -10 -10 -10 -9 -10 -10 -10 -10 -10 -9 -9 -8 -9 -8 -8 -8 -8 -8 -8 -9 -9 -9 -8 -8 -7 -7 -8 -7 -7 -7 -7 -8 -7 -7 -8 -8 -9 -8 -8 -8
-11 -11 -11 -11 -11 -11 -10 -10 -10 -11 -10 -10 -10 -11 -10 -9 -9 -9 -9 -8 -8 -8 -9 -9 -9 -9 -9 -9 -8 -8 -8 -7 -7 -7 -7 -7 -8 -8 -9 -9 -9 -8 -8 -7 -8
-11 -11 -11 -12 -12 -12 -12 -11 -11 -11 -10 -10 -11 -11 -10 -10 -10 -10 -10 -9 -9 -8 -9 -9 -9 -9 -10 -9 -9 -8 -8 -8 -8 -8 -8 -8 -7 -8 -8 -8 -8 -8 -9 -9 -8
-12 -12 -12 -12 -12 -12 -12 -12 -11 -12 -11 -11 -11 -11 -10 -10 -10 -10 -10 -10 -10 -10 -9 -9 -9 -9 -10 -9 -9 -8 -8 -9 -9 -8 -8 -8 -8 -9 -9 -8 -8 -9 -9 -10 -9
-12 -12 -12 -12 -12 -12 -12 -12 -12 -13 -11 -11 -11 -11 -10 -10 -10 -10 -10 -10 -10 -10 -10 -10 -10 -9 -9 -9 -9 -9 -9 -9 -9 -9 -8 -8 -8 -9 -9 -9 -9 -9 -8 -11 -10
-13 -13 -12 -12 -12 -12 -12 -12 -13 -13 -12 -11 -11 -11 -11 -10 -11 -10 -10 -10 -10 -10 -10 -10 -9 -9 -9 -9 -9 -9 -9 -9 -9 -8 -9 -9 -9 -9 -9 -9 -9 -9 -8 -9 -9
-13 -12 -12 -12 -12 -12 -12 -12 -13 -13 -13 -12 -11 -11 -12 -11 -11 -10 -10 -10 -10 -10 -10 -10 -10 -9 -9 -8 -9 -8 -9 -9 -9 -9 -9 -9 -9 -9 -9 -9 -10 -10 -9 -9 -10
-13 -13 -13 -13 -12 -12 -12 -13 -13 -13 -12 -12 -12 -12 -11 -11 -11 -10 -11 -11 -10 -10 -10 -10 -9 -9 -9 -9 -9 -9 -9 -9 -10 -9 -9 -10 -10 -10 -9 -9 -9 -9 -8 -8 -8
-15 -14 -14 -13 -13 -13 -13 -13 -13 -13 -12 -12 -12 -12 -12 -11 -11 -11 -11 -11 -10 -11 -10 -10 -10 -10 -9 -9 -9 -9 -8 -9 -10 -10 -10 -10 -10 -9 -10 -9 -8 -8 -9 -9 -9

GFSSW_500_temp_030.txt.gz
Temp
-8 -8 -8 -7 -7 -7 -6 -6 -6 -5 -5 -5 -5 -5 -5 -5 -5 -5 -5 -5 -5 -5 -6 -6 -7 -7 -7 -7 -7 -7 -7 -7 -7 -7 -8 -8 -7 -6 -6 -6 -6 -6 -6 -6 -6
-9 -8 -8 -8 -7 -7 -7 -6 -6 -6 -6 -5 -5 -5 -5 -5 -5 -5 -5 -5 -5 -5 -6 -6 -7 -7 -7 -7 -6 -6 -6 -7 -7 -8 -7 -8 -6 -6 -6 -7 -7 -6 -6 -5 -6
-9 -9 -8 -8 -7 -7 -7 -7 -7 -6 -6 -6 -6 -5 -5 -5 -5 -5 -5 -5 -5 -5 -6 -6 -7 -7 -7 -7 -7 -7 -7 -8 -8 -7 -7 -7 -7 -6 -6 -7 -6 -6 -6 -5 -6
-9 -9 -9 -8 -8 -7 -7 -7 -7 -7 -6 -6 -6 -6 -5 -5 -5 -5 -5 -5 -5 -5 -6 -6 -5 -5 -6 -7 -8 -8 -8 -7 -7 -8 -8 -6 -6 -5 -6 -6 -7 -6 -6 -5 -6
-9 -9 -9 -9 -8 -8 -7 -7 -7 -7 -7 -6 -6 -6 -6 -6 -6 -5 -5 -5 -5 -5 -6 -6 -5 -5 -6 -6 -6 -7 -7 -7 -6 -6 -7 -7 -7 -6 -6 -6 -6 -6 -6 -6 -6
-9 -9 -9 -9 -9 -8 -8 -7 -7 -7 -7 -6 -6 -6 -6 -6 -6 -6 -5 -5 -5 -5 -5 -5 -5 -5 -5 -5 -5 -5 -6 -6 -7 -7 -7 -7 -7 -6 -6 -6 -7 -6 -6 -6 -6
-9 -9 -9 -9 -9 -9 -8 -7 -7 -7 -7 -7 -6 -6 -6 -6 -6 -6 -6 -5 -5 -5 -5 -6 -6 -6 -6 -6 -5 -6 -7 -7 -6 -6 -6 -8 -7 -6 -6 -6 -6 -6 -6 -6 -6
-9 -9 -9 -9 -9 -9 -8 -8 -7 -7 -7 -7 -6 -6 -6 -6 -6 -6 -6 -6 -5 -6 -6 -6 -6 -6 -6 -6 -6 -7 -7 -7 -7 -7 -7 -7 -7 -6 -5 -5 -6 -6 -6 -6 -6
-9 -9 -9 -9 -9 -9 -8 -8 -8 -7 -7 -7 -7 -7 -6 -6 -6 -6 -6 -6 -6 -6 -6 -6 -6 -6 -6 -7 -7 -7 -7 -7 -7 -7 -7 -7 -7 -7 -6 -6 -6 -7 -7 -6 -6
-9 -9 -9 -9 -9 -9 -9 -8 -8 -7 -7 -7 -7 -7 -6 -6 -6 -6 -6 -6 -6 -6 -6 -6 -6 -6 -6 -7 -7 -7 -7 -7 -7 -7 -7 -7 -7 -7 -6 -6 -6 -7 -7 -7 -7
-10 -10 -9 -9 -9 -9 -9 -8 -8 -8 -8 -7 -7 -7 -7 -6 -6 -6 -6 -6 -6 -6 -6 -6 -6 -6 -7 -7 -6 -6 -7 -7 -7 -7 -7 -7 -7 -7 -7 -7 -7 -7 -7 -7 -8
-10 -10 -10 -9 -9 -9 -8 -9 -8 -8 -8 -7 -7 -7 -7 -7 -7 -6 -6 -6 -6 -6 -6 -6 -6 -7 -6 -6 -6 -6 -7 -7 -7 -7 -7 -7 -7 -7 -8 -8 -7 -7 -7 -7 -7
-10 -10 -10 -10 -9 -9 -8 -8 -8 -8 -8 -8 -7 -7 -7 -7 -7 -6 -6 -6 -6 -6 -6 -6 -6 -6 -6 -6 -6 -6 -7 -7 -7 -7 -7 -7 -7 -7 -7 -8 -7 -8 -7 -6 -8
-10 -10 -10 -10 -10 -9 -9 -9 -8 -8 -8 -8 -7 -8 -7 -7 -7 -7 -7 -6 -6 -7 -6 -6 -6 -6 -5 -5 -6 -6 -7 -7 -7 -7 -7 -7 -6 -7 -7 -7 -7 -7 -7 -7 -8
-11 -10 -10 -10 -10 -10 -10 -9 -9 -9 -8 -8 -8 -8 -8 -7 -7 -7 -7 -7 -7 -7 -7 -6 -6 -6 -6 -6 -6 -7 -6 -6 -6 -7 -7 -7 -6 -7 -7 -7 -7 -8 -8 -7 -8
-11 -11 -10 -10 -10 -10 -10 -10 -9 -9 -8 -8 -8 -8 -8 -8 -8 -7 -7 -7 -7 -7 -6 -7 -6 -6 -6 -6 -7 -7 -6 -6 -7 -7 -7 -7 -7 -7 -8 -8 -8 -8 -8 -8 -8
-11 -11 -11 -10 -10 -10 -10 -10 -10 -9 -9 -9 -9 -9 -8 -8 -8 -8 -7 -7 -7 -7 -7 -7 -7 -6 -7 -7 -7 -7 -7 -7 -7 -7 -7 -7 -7 -8 -8 -8 -8 -8 -7 -9 -9
-11 -11 -11 -11 -10 -10 -10 -10 -10 -9 -10 -10 -9 -9 -9 -8 -8 -8 -7 -8 -8 -7 -8 -8 -7 -7 -8 -8 -8 -7 -7 -7 -7 -7 -7 -7 -7 -8 -7 -8 -8 -8 -8 -8 -8
-11 -11 -11 -11 -11 -10 -10 -10 -10 -10 -10 -10 -10 -9 -8 -8 -9 -8 -8 -7 -8 -8 -8 -8 -7 -8 -8 -8 -8 -8 -7 -8 -7 -7 -7 -7 -8 -8 -8 -8 -8 -9 -9 -8 -9
-11 -11 -11 -11 -11 -11 -10 -10 -10 -11 -10 -10 -10 -10 -10 -10 -9 -9 -8 -8 -8 -8 -8 -8 -8 -8 -8 -8 -9 -8 -9 -8 -8 -8 -8 -8 -8 -9 -9 -9 -9 -9 -9 -8 -9
-11 -11 -11 -11 -11 -11 -10 -10 -11 -11 -10 -10 -11 -11 -10 -10 -9 -9 -9 -9 -9 -9 -9 -9 -9 -9 -8 -9 -9 -9 -8 -8 -8 -8 -9 -7 -8 -8 -9 -9 -10 -9 -9 -9 -9
-12 -12 -11 -11 -11 -11 -11 -11 -11 -11 -11 -11 -10 -11 -11 -10 -10 -9 -9 -10 -10 -9 -9 -9 -9 -9 -9 -9 -9 -9 -9 -9 -9 -8 -9 -9 -8 -9 -9 -9 -9 -9 -9 -9 -10
-13 -12 -12 -12 -11 -11 -12 -12 -12 -12 -12 -11 -11 -11 -11 -10 -10 -10 -10 -10 -10 -10 -10 -9 -10 -9 -10 -9 -9 -9 -9 -9 -9 -9 -9 -9 -9 -9 -9 -9 -10 -9 -9 -8 -10
-13 -13 -12 -12 -12 -12 -12 -13 -12 -13 -12 -11 -11 -11 -11 -10 -10 -10 -10 -10 -10 -10 -10 -10 -10 -9 -9 -10 -9 -9 -9 -9 -9 -9 -9 -9 -9 -10 -10 -10 -10 -9 -9 -9 -9
-13 -13 -13 -12 -12 -12 -12 -13 -13 -13 -13 -12 -11 -11 -11 -10 -10 -10 -10 -10 -10 -10 -10 -10 -10 -10 -9 -9 -9 -9 -9 -9 -9 -9 -8 -8 -9 -10 -10 -10 -10 -10 -9 -8 -8
-14 -14 -14 -13 -13 -12 -12 -13 -13 -13 -13 -12 -12 -12 -11 -11 -10 -11 -10 -10 -10 -10 -10 -10 -10 -10 -9 -9 -9 -9 -9 -9 -9 -9 -9 -9 -10 -10 -10 -10 -10 -10 -10 -9 -9
-15 -14 -14 -14 -13 -13 -13 -13 -13 -13 -13 -12 -12 -12 -12 -11 -11 -11 -11 -11 -10 -10 -10 -10 -10 -10 -10 -10 -9 -9 -9 -9 -9 -9 -9 -9 -10 -10 -10 -10 -10 -10 -10 -9 -9

GFSSW_500_temp_033.txt.gz
Temp
-9 -8 -8 -8 -7 -7 -7 -6 -6 -6 -5 -5 -5 -5 -5 -5 -5 -5 -6 -5 -6 -7 -7 -7 -7 -8 -8 -7 -7 -7 -7 -7 -6 -6 -5 -6 -7 -7 -7 -7 -7 -6 -6 -6 -6
-9 -8 -8 -8 -8 -7 -7 -6 -6 -6 -6 -5 -5 -6 -6 -5 -5 -5 -5 -5 -6 -6 -7 -7 -6 -7 -8 -7 -7 -6 -7 -6 -6 -6 -6 -6 -6 -7 -7 -6 -7 -6 -6 -6 -6
-9 -9 -9 -8 -8 -7 -7 -7 -6 -6 -6 -6 -6 -6 -6 -6 -6 -5 -5 -5 -6 -6 -6 -6 -6 -7 -8 -7 -7 -7 -7 -7 -7 -7 -7 -6 -6 -7 -7 -7 -7 -6 -6 -6 -6
-9 -9 -9 -9 -8 -8 -7 -7 -7 -6 -6 -6 -6 -6 -6 -6 -6 -6 -5 -5 -5 -5 -5 -5 -5 -6 -7 -7 -6 -6 -7 -8 -8 -7 -7 -7 -6 -7 -7 -7 -6 -6 -7 -6 -6
-9 -9 -9 -9 -8 -8 -7 -7 -7 -7 -7 -6 -6 -6 -6 -6 -6 -6 -6 -6 -5 -5 -5 -5 -5 -6 -7 -7 -6 -5 -6 -6 -6 -8 -7 -7 -7 -7 -7 -7 -7 -7 -7 -7 -7
-9 -9 -9 -9 -9 -9 -8 -7 -7 -7 -7 -7 -6 -6 -6 -6 -6 -6 -6 -6 -5 -5 -5 -5 -6 -5 -6 -6 -6 -6 -6 -6 -6 -7 -6 -6 -7 -7 -7 -7 -7 -7 -7 -7 -7
-9 -9 -9 -9 -9 -9 -8 -8 -7 -7 -7 -7 -7 -6 -7 -6 -6 -6 -6 -6 -6 -5 -6 -6 -6 -6 -6 -6 -7 -6 -6 -6 -7 -7 -6 -6 -6 -6 -6 -6 -7 -7 -7 -7 -7
-9 -9 -9 -9 -9 -9 -9 -8 -8 -7 -7 -7 -7 -7 -6 -7 -6 -6 -6 -6 -6 -6 -6 -5 -6 -6 -6 -7 -7 -7 -7 -7 -7 -7 -7 -6 -6 -6 -6 -6 -6 -7 -7 -7 -7
-9 -9 -9 -9 -9 -9 -9 -8 -8 -7 -7 -7 -7 -7 -6 -7 -6 -6 -6 -6 -6 -6 -6 -6 -6 -6 -7 -7 -7 -7 -8 -7 -7 -7 -6 -7 -7 -7 -6 -6 -7 -6 -7 -8 -7
-9 -9 -9 -9 -9 -9 -9 -9 -8 -7 -7 -7 -7 -7 -7 -7 -6 -6 -6 -6 -6 -6 -6 -6 -6 -6 -7 -8 -7 -8 -8 -7 -7 -6 -6 -7 -7 -7 -6 -6 -7 -7 -7 -8 -8
-10 -9 -9 -9 -9 -9 -9 -9 -8 -8 -8 -7 -7 -7 -7 -7 -7 -6 -6 -6 -6 -6 -6 -6 -6 -6 -8 -7 -7 -7 -7 -7 -7 -7 -7 -7 -7 -7 -6 -6 -7 -7 -7 -8 -8
-10 -10 -10 -9 -9 -9 -8 -8 -8 -8 -8 -8 -7 -7 -7 -7 -7 -7 -7 -6 -6 -6 -6 -6 -6 -7 -7 -6 -6 -7 -7 -6 -7 -8 -7 -7 -7 -8 -7 -7 -7 -7 -7 -8 -8
-10 -10 -10 -10 -9 -9 -9 -8 -8 -8 -8 -8 -7 -7 -7 -7 -7 -7 -6 -6 -6 -6 -6 -6 -7 -7 -6 -6 -6 -6 -7 -6 -7 -8 -7 -7 -7 -7 -8 -7 -7 -8 -7 -8 -8
-10 -10 -10 -10 -10 -9 -9 -9 -9 -8 -8 -8 -8 -8 -7 -8 -7 -7 -7 -6 -7 -7 -6 -7 -7 -6 -6 -6 -6 -6 -7 -6 -6 -7 -7 -7 -7 -7 -7 -7 -7 -7 -7 -8 -8
-10 -10 -10 -10 -9 -10 -10 -9 -9 -9 -8 -9 -8 -8 -8 -8 -8 -7 -7 -7 -7 -7 -6 -6 -6 -6 -6 -6 -6 -7 -6 -6 -6 -7 -7 -7 -7 -7 -7 -7 -7 -7 -8 -8 -8
-11 -10 -10 -10 -10 -10 -10 -10 -10 -9 -9 -9 -9 -8 -8 -8 -8 -8 -7 -7 -7 -6 -7 -7 -7 -6 -7 -7 -6 -6 -6 -6 -7 -7 -7 -7 -7 -7 -7 -7 -8 -8 -8 -8 -8
-11 -11 -11 -10 -10 -10 -10 -10 -10 -9 -9 -9 -9 -8 -8 -8 -8 -8 -8 -7 -7 -7 -7 -7 -6 -7 -7 -7 -7 -7 -7 -7 -7 -7 -7 -7 -7 -8 -8 -8 -8 -8 -8 -8 -9
-11 -11 -11 -11 -11 -11 -10 -10 -10 -10 -10 -9 -9 -9 -8 -8 -8 -8 -8 -8 -7 -7 -7 -7 -7 -7 -8 -8 -7 -7 -7 -7 -7 -7 -7 -8 -8 -8 -8 -8 -8 -8 -9 -9 -9
-11 -11 -11 -11 -11 -11 -11 -10 -10 -10 -10 -10 -10 -9 -9 -9 -8 -8 -7 -8 -8 -7 -7 -7 -7 -8 -8 -8 -7 -8 -8 -8 -7 -7 -7 -8 -8 -8 -8 -8 -8 -8 -9 -10 -9
-12 -11 -11 -11 -11 -11 -11 -11 -11 -11 -10 -10 -10 -9 -9 -9 -9 -8 -7 -8 -8 -8 -8 -8 -8 -8 -8 -8 -8 -8 -8 -8 -8 -8 -8 -8 -8 -8 -8 -9 -9 -9 -9 -9 -9
-12 -12 -12 -11 -12 -12 -11 -11 -11 -11 -11 -11 -10 -10 -10 -9 -9 -9 -8 -8 -9 -8 -8 -8 -8 -9 -9 -9 -9 -9 -9 -9 -8 -8 -8 -8 -8 -9 -9 -10 -10 -10 -9 -9 -9
-12 -12 -12 -12 -12 -12 -12 -11 -11 -11 -11 -11 -11 -11 -10 -10 -9 -9 -8 -8 -9 -8 -8 -8 -9 -9 -9 -9 -9 -9 -9 -9 -9 -9 -9 -9 -9 -9 -9 -9 -10 -9 -9 -9 -9
-13 -12 -12 -12 -12 -11 -11 -12 -11 -11 -12 -11 -11 -11 -11 -11 -10 -9 -9 -8 -9 -8 -8 -9 -9 -9 -9 -9 -9 -10 -10 -9 -9 -9 -9 -9 -9 -10 -10 -10 -10 -10 -10 -9 -9
-13 -13 -12 -12 -12 -12 -12 -12 -11 -12 -12 -12 -11 -11 -11 -11 -10 -9 -9 -9 -9 -9 -9 -10 -9 -9 -9 -9 -9 -10 -10 -9 -9 -9 -9 -9 -9 -9 -10 -10 -9 -9 -9 -10 -9
-14 -14 -13 -13 -13 -12 -12 -12 -12 -12 -13 -12 -11 -11 -11 -11 -11 -10 -10 -10 -9 -9 -9 -9 -10 -10 -10 -10 -9 -10 -10 -10 -10 -10 -9 -9 -9 -9 -9 -10 -10 -9 -10 -10 -10
-14 -14 -14 -14 -13 -13 -12 -12 -12 -13 -13 -13 -12 -12 -12 -11 -11 -11 -10 -10 -10 -9 -10 -10 -10 -9 -10 -10 -10 -10 -10 -10 -10 -10 -10 -9 -9 -9 -9 -9 -9 -9 -10 -9 -9
-15 -15 -14 -14 -14 -13 -13 -13 -13 -13 -13 -13 -12 -12 -12 -12 -11 -11 -11 -11 -10 -10 -10 -10 -10 -10 -10 -10 -10 -10 -10 -10 -10 -10 -9 -10 -9 -9 -9 -9 -10 -10 -10 -10 -10

GFSSW_500_temp_036.txt.gz
Temp
-9 -9 -9 -9 -8 -8 -7 -7 -6 -6 -6 -5 -5 -5 -5 -5 -6 -6 -7 -7 -6 -7 -7 -8 -8 -8 -8 -7 -7 -8 -7 -7 -6 -7 -7 -7 -8 -8 -8 -8 -7 -6 -6 -7 -6
-10 -9 -9 -9 -8 -8 -7 -7 -6 -6 -6 -6 -5 -5 -5 -5 -6 -6 -6 -6 -6 -6 -6 -7 -7 -8 -7 -7 -7 -8 -7 -7 -7 -7 -7 -7 -8 -8 -8 -7 -7 -7 -7 -7 -7
-10 -9 -9 -9 -8 -8 -8 -7 -7 -6 -6 -6 -6 -6 -6 -6 -6 -6 -6 -6 -6 -5 -6 -6 -7 -7 -7 -7 -7 -7 -6 -7 -7 -7 -7 -7 -8 -8 -8 -8 -7 -7 -7 -7 -7
-10 -9 -9 -9 -9 -8 -8 -7 -7 -7 -7 -7 -6 -6 -6 -6 -6 -6 -6 -6 -5 -5 -5 -5 -7 -7 -7 -6 -6 -6 -7 -6 -6 -6 -6 -7 -7 -8 -7 -8 -8 -7 -7 -7 -7
-9 -10 -10 -9 -9 -8 -8 -7 -7 -7 -7 -7 -7 -7 -7 -6 -6 -6 -6 -6 -6 -5 -5 -5 -6 -7 -6 -7 -7 -7 -6 -6 -6 -6 -7 -7 -7 -8 -8 -8 -8 -8 -7 -7 -7
-9 -9 -10 -9 -9 -9 -8 -8 -7 -7 -7 -7 -7 -7 -7 -7 -6 -6 -6 -6 -6 -5 -6 -6 -6 -6 -6 -6 -7 -7 -6 -6 -6 -6 -6 -6 -6 -7 -8 -8 -8 -8 -7 -7 -8
-10 -10 -9 -10 -9 -9 -9 -8 -8 -7 -7 -7 -7 -7 -7 -7 -7 -7 -6 -6 -6 -5 -6 -6 -6 -6 -6 -6 -7 -7 -6 -6 -7 -7 -6 -7 -7 -7 -7 -8 -8 -8 -8 -8 -8
-9 -9 -9 -9 -9 -9 -9 -9 -8 -8 -7 -7 -7 -7 -7 -7 -7 -7 -7 -6 -6 -6 -6 -6 -6 -6 -6 -7 -8 -8 -7 -6 -6 -7 -6 -7 -7 -7 -7 -7 -8 -8 -8 -8 -8
-9 -9 -9 -9 -9 -9 -9 -9 -9 -8 -7 -7 -7 -7 -7 -7 -7 -7 -7 -7 -6 -6 -6 -6 -6 -6 -6 -7 -8 -8 -7 -7 -7 -7 -7 -7 -7 -7 -7 -7 -7 -7 -8 -8 -8
-9 -9 -9 -9 -9 -9 -9 -9 -9 -8 -8 -8 -7 -7 -7 -7 -7 -7 -7 -7 -7 -7 -6 -6 -6 -6 -6 -7 -7 -8 -6 -7 -7 -7 -7 -7 -7 -7 -7 -7 -7 -7 -7 -8 -8
-10 -9 -9 -9 -9 -9 -9 -9 -9 -9 -8 -8 -8 -7 -7 -7 -7 -7 -7 -7 -7 -6 -6 -6 -6 -7 -7 -7 -7 -8 -7 -7 -7 -7 -7 -7 -7 -7 -6 -6 -7 -7 -7 -8 -8
-10 -10 -10 -9 -9 -9 -9 -9 -9 -9 -8 -8 -8 -8 -7 -7 -7 -7 -7 -7 -7 -6 -6 -6 -7 -7 -7 -6 -6 -7 -7 -6 -7 -7 -7 -7 -7 -6 -7 -7 -7 -7 -8 -8 -8
-10 -10 -10 -10 -9 -9 -9 -9 -9 -9 -8 -8 -8 -8 -8 -7 -7 -7 -7 -7 -6 -6 -6 -7 -7 -7 -7 -7 -6 -7 -7 -7 -7 -7 -7 -7 -7 -8 -7 -7 -8 -8 -8 -8 -8
-10 -10 -10 -10 -10 -10 -9 -9 -9 -9 -9 -9 -8 -8 -8 -8 -8 -7 -7 -7 -7 -7 -7 -7 -6 -6 -6 -7 -7 -7 -7 -7 -7 -7 -7 -7 -7 -8 -8 -8 -7 -7 -7 -8 -9
-10 -10 -10 -10 -10 -10 -10 -10 -9 -9 -9 -9 -8 -8 -8 -8 -8 -7 -7 -7 -7 -7 -7 -6 -6 -6 -6 -7 -6 -7 -7 -7 -7 -6 -7 -8 -8 -7 -8 -8 -7 -7 -7 -8 -8
-10 -10 -10 -10 -10 -10 -10 -10 -10 -9 -9 -9 -9 -8 -8 -8 -8 -8 -7 -7 -7 -7 -7 -6 -7 -7 -7 -7 -7 -7 -7 -7 -6 -7 -7 -7 -7 -7 -7 -8 -8 -7 -7 -8 -8
-11 -11 -10 -10 -10 -10 -10 -10 -10 -10 -10 -9 -9 -9 -8 -8 -8 -8 -8 -7 -7 -7 -7 -7 -7 -7 -7 -7 -7 -7 -7 -7 -7 -7 -8 -7 -7 -7 -7 -8 -8 -8 -8 -8 -8
-11 -11 -11 -11 -11 -11 -10 -10 -10 -10 -10 -10 -9 -9 -9 -8 -8 -8 -8 -8 -7 -7 -7 -7 -7 -7 -7 -8 -8 -7 -7 -7 -7 -7 -8 -8 -8 -8 -8 -8 -8 -8 -8 -8 -9
-11 -11 -11 -11 -11 -11 -11 -10 -10 -10 -10 -10 -10 -9 -9 -9 -8 -8 -8 -8 -8 -8 -8 -8 -8 -8 -8 -8 -8 -7 -7 -8 -8 -8 -8 -8 -8 -8 -8 -8 -8 -8 -8 -8 -9
-11 -11 -11 -11 -11 -11 -11 -11 -11 -11 -10 -11 -10 -10 -10 -9 -8 -8 -8 -8 -8 -8 -8 -8 -8 -8 -8 -8 -9 -8 -8 -8 -8 -8 -8 -8 -8 -8 -8 -8 -8 -8 -8 -8 -10
-12 -11 -12 -12 -11 -11 -11 -11 -11 -11 -11 -11 -11 -10 -10 -10 -9 -9 -8 -8 -8 -8 -8 -8 -8 -8 -8 -8 -9 -8 -8 -8 -8 -8 -8 -8 -8 -8 -8 -8 -8 -8 -8 -9 -10
-12 -12 -12 -12 -12 -12 -12 -12 -11 -11 -11 -11 -11 -11 -10 -10 -10 -9 -9 -8 -9 -8 -8 -8 -8 -8 -9 -9 -9 -9 -9 -9 -8 -8 -8 -8 -8 -8 -9 -9 -8 -9 -9 -9 -10
-12 -12 -12 -12 -12 -12 -12 -12 -11 -11 -11 -11 -11 -11 -11 -10 -10 -10 -9 -9 -8 -9 -8 -8 -8 -9 -10 -9 -9 -9 -9 -9 -9 -9 -8 -8 -9 -9 -9 -9 -9 -9 -9 -9 -10
-13 -13 -13 -13 -12 -12 -12 -12 -12 -12 -12 -11 -11 -12 -11 -11 -10 -10 -10 -9 -9 -9 -9 -9 -9 -9 -10 -10 -9 -9 -9 -9 -9 -9 -9 -9 -9 -9 -9 -10 -9 -9 -9 -10 -10
-14 -14 -14 -13 -13 -12 -12 -12 -12 -12 -12 -11 -11 -12 -12 -11 -11 -11 -10 -10 -9 -10 -9 -9 -9 -9 -10 -10 -10 -10 -10 -10 -9 -10 -10 -10 -10 -10 -9 -9 -9 -9 -9 -10 -10
-15 -15 -14 -14 -14 -13 -13 -12 -12 -12 -12 -11 -11 -12 -12 -12 -11 -11 -11 -10 -10 -10 -10 -10 -10 -9 -9 -10 -10 -10 -10 -10 -10 -10 -10 -10 -10 -10 -9 -9 -9 -9 -9 -10 -10
-16 -15 -15 -15 -14 -14 -14 -13 -13 -12 -13 -12 -12 -12 -12 -12 -12 -12 -11 -11 -10 -10 -10 -10 -10 -10 -10 -10 -10 -10 -10 -10 -10 -10 -10 -10 -10 -10 -10 -9 -9 -9 -10 -11 -11

GFSSW_500_temp_039.txt.gz
Temp
-9 -9 -9 -9 -8 -8 -8 -8 -7 -7 -6 -6 -6 -5 -5 -5 -6 -6 -6 -7 -7 -8 -8 -8 -8 -8 -7 -7 -7 -7 -7 -7 -7 -7 -7 -7 -7 -7 -7 -7 -7 -7 -6 -7 -6
-9 -9 -9 -9 -9 -9 -8 -8 -7 -7 -6 -6 -6 -5 -5 -6 -5 -6 -7 -7 -7 -7 -7 -8 -8 -8 -7 -8 -7 -7 -7 -6 -7 -7 -7 -8 -8 -8 -8 -7 -7 -7 -7 -7 -7
-10 -9 -9 -9 -9 -9 -8 -8 -7 -7 -6 -6 -6 -6 -6 -6 -6 -6 -6 -6 -6 -6 -7 -7 -7 -7 -7 -7 -7 -7 -7 -6 -6 -7 -7 -8 -8 -8 -8 -8 -8 -7 -7 -7 -7
-10 -10 -10 -10 -9 -9 -8 -8 -7 -7 -7 -6 -6 -6 -6 -6 -6 -6 -6 -6 -6 -6 -6 -6 -7 -6 -7 -7 -8 -7 -7 -6 -6 -7 -7 -7 -8 -8 -8 -8 -8 -7 -7 -7 -7
-10 -10 -10 -10 -10 -9 -9 -8 -8 -7 -7 -7 -7 -6 -6 -6 -6 -6 -6 -6 -6 -6 -6 -6 -6 -6 -7 -7 -8 -8 -7 -7 -6 -7 -7 -7 -7 -8 -8 -8 -8 -8 -7 -7 -8
-10 -10 -10 -10 -10 -9 -9 -8 -8 -7 -7 -7 -7 -7 -7 -6 -6 -6 -6 -6 -6 -6 -6 -6 -6 -7 -7 -7 -8 -8 -8 -7 -7 -6 -6 -6 -7 -7 -8 -8 -8 -8 -8 -7 -8
-10 -10 -10 -10 -10 -9 -9 -8 -8 -8 -7 -7 -7 -7 -7 -7 -7 -6 -6 -6 -6 -6 -6 -6 -6 -7 -7 -7 -8 -8 -8 -8 -7 -6 -7 -6 -7 -7 -7 -8 -8 -8 -8 -8 -8
-10 -10 -10 -10 -10 -10 -9 -9 -9 -8 -8 -8 -7 -7 -7 -7 -7 -6 -6 -6 -6 -6 -6 -6 -6 -6 -7 -7 -8 -8 -8 -8 -8 -7 -7 -6 -7 -7 -7 -7 -8 -8 -8 -8 -8
-10 -10 -10 -10 -10 -10 -10 -9 -9 -9 -8 -8 -8 -7 -7 -7 -7 -7 -7 -6 -6 -6 -6 -6 -6 -6 -6 -7 -7 -8 -8 -8 -8 -7 -6 -7 -7 -7 -7 -7 -7 -7 -8 -8 -8
-10 -10 -10 -10 -10 -10 -9 -9 -9 -9 -9 -8 -8 -8 -8 -8 -7 -7 -7 -7 -7 -6 -6 -6 -6 -6 -6 -7 -7 -7 -7 -8 -7 -7 -7 -7 -7 -7 -7 -7 -8 -8 -8 -8 -9
-10 -10 -10 -10 -9 -9 -9 -9 -9 -9 -9 -8 -8 -8 -8 -8 -7 -7 -7 -7 -7 -7 -6 -6 -6 -6 -6 -6 -6 -6 -7 -8 -7 -7 -7 -7 -7 -7 -7 -7 -8 -8 -8 -8 -8
-10 -10 -10 -10 -9 -9 -9 -9 -9 -9 -9 -9 -8 -8 -8 -8 -7 -7 -7 -7 -7 -7 -6 -6 -6 -6 -6 -6 -6 -6 -6 -7 -8 -7 -7 -7 -7 -7 -7 -8 -8 -8 -8 -8 -7
-11 -10 -10 -10 -10 -9 -9 -9 -9 -9 -9 -9 -8 -8 -8 -8 -8 -7 -7 -7 -7 -7 -7 -7 -7 -6 -6 -6 -6 -7 -7 -7 -8 -8 -8 -7 -7 -7 -7 -7 -7 -7 -8 -7 -8
-11 -11 -11 -10 -10 -10 -9 -9 -9 -9 -9 -9 -9 -8 -8 -8 -8 -8 -7 -7 -7 -7 -7 -7 -6 -6 -6 -6 -6 -7 -7 -7 -8 -8 -8 -8 -7 -7 -7 -7 -7 -7 -7 -7 -8
-11 -11 -11 -11 -10 -10 -10 -9 -9 -9 -9 -9 -9 -8 -8 -8 -8 -8 -8 -7 -7 -7 -7 -7 -6 -6 -6 -6 -6 -7 -7 -7 -8 -8 -7 -8 -8 -8 -8 -7 -7 -8 -8 -8 -7
-11 -11 -11 -10 -10 -10 -10 -10 -10 -9 -9 -9 -9 -8 -8 -8 -8 -8 -8 -8 -7 -7 -7 -7 -7 -7 -7 -6 -7 -7 -7 -7 -7 -7 -8 -7 -8 -8 -8 -8 -7 -7 -7 -7 -7
-12 -11 -11 -11 -10 -10 -10 -10 -10 -9 -9 -9 -9 -9 -8 -8 -8 -8 -8 -8 -7 -7 -7 -7 -7 -7 -7 -7 -7 -7 -7 -7 -7 -7 -8 -7 -8 -8 -7 -7 -7 -7 -7 -7 -8
-12 -12 -11 -11 -11 -10 -10 -10 -9 -9 -10 -9 -9 -9 -9 -8 -8 -8 -8 -8 -7 -7 -7 -7 -7 -7 -7 -7 -7 -8 -7 -7 -8 -8 -8 -8 -8 -8 -8 -7 -8 -8 -7 -7 -8
-12 -12 -12 -11 -11 -11 -10 -10 -9 -10 -10 -10 -10 -9 -9 -9 -9 -8 -8 -8 -8 -8 -8 -8 -8 -8 -8 -8 -8 -8 -8 -8 -8 -8 -8 -8 -8 -8 -8 -8 -8 -7 -7 -8 -8
-12 -12 -12 -12 -11 -11 -11 -10 -10 -10 -10 -10 -10 -10 -10 -9 -9 -9 -9 -8 -8 -8 -8 -8 -8 -8 -8 -8 -8 -8 -8 -8 -8 -8 -8 -8 -8 -8 -8 -8 -8 -7 -8 -8 -8
-12 -11 -11 -12 -11 -11 -11 -11 -11 -11 -10 -10 -10 -10 -10 -10 -9 -9 -9 -9 -8 -8 -8 -8 -8 -8 -8 -8 -8 -8 -8 -8 -9 -8 -8 -8 -8 -8 -8 -8 -8 -8 -9 -9 -9
-12 -12 -12 -12 -11 -11 -11 -11 -11 -11 -11 -11 -11 -11 -11 -10 -10 -9 -9 -9 -9 -9 -8 -8 -8 -9 -8 -8 -8 -8 -8 -9 -9 -9 -9 -8 -9 -9 -9 -8 -8 -8 -9 -9 -9
-12 -12 -12 -12 -12 -12 -12 -12 -12 -11 -11 -11 -11 -11 -11 -11 -11 -10 -10 -9 -9 -9 -9 -8 -8 -9 -9 -9 -8 -8 -9 -9 -9 -9 -9 -9 -9 -9 -9 -9 -9 -9 -9 -9 -9
-12 -12 -12 -12 -12 -12 -12 -12 -12 -12 -11 -11 -11 -11 -11 -11 -11 -10 -10 -10 -9 -9 -9 -9 -9 -9 -9 -9 -9 -9 -9 -9 -10 -9 -9 -9 -9 -9 -9 -9 -9 -9 -9 -9 -9
-12 -12 -13 -12 -12 -12 -13 -12 -12 -12 -12 -12 -12 -12 -12 -11 -11 -11 -10 -10 -10 -10 -10 -9 -9 -9 -10 -10 -10 -10 -10 -10 -10 -10 -10 -10 -10 -10 -10 -10 -9 -9 -9 -9 -9
-13 -13 -13 -13 -13 -13 -13 -13 -13 -12 -12 -12 -12 -12 -12 -12 -12 -11 -11 -11 -10 -10 -10 -10 -10 -9 -10 -10 -10 -10 -10 -10 -10 -10 -10 -10 -10 -10 -10 -10 -10 -9 -9 -9 -9
-14 -14 -13 -14 -14 -14 -13 -13 -13 -13 -12 -13 -12 -12 -12 -12 -12 -12 -11 -11 -10 -10 -11 -10 -10 -10 -10 -10 -10 -11 -10 -10 -11 -11 -11 -11 -10 -10 -10 -10 -10 -10 -10 -9 -9

GFSSW_500_temp_042.txt.gz
Temp
-8 -8 -8 -8 -8 -7 -7 -7 -7 -7 -6 -6 -6 -6 -5 -5 -5 -6 -6 -7 -7 -6 -6 -6 -7 -7 -7 -7 -7 -7 -8 -8 -8 -8 -8 -6 -6 -6 -6 -6 -6 -7 -7 -7 -7
-9 -9 -8 -9 -8 -8 -7 -7 -7 -7 -6 -6 -6 -6 -5 -5 -5 -5 -6 -6 -7 -7 -6 -7 -7 -7 -7 -7 -7 -7 -8 -8 -7 -7 -7 -7 -6 -6 -6 -6 -7 -7 -7 -7 -7
-9 -9 -9 -9 -9 -9 -8 -8 -7 -7 -7 -6 -6 -6 -5 -5 -5 -5 -6 -6 -7 -7 -7 -6 -6 -6 -7 -8 -8 -7 -8 -7 -7 -7 -7 -7 -6 -6 -6 -7 -7 -8 -8 -8 -8
-10 -9 -9 -9 -9 -9 -9 -8 -8 -7 -7 -6 -6 -6 -5 -5 -5 -5 -5 -6 -6 -7 -7 -7 -6 -6 -7 -8 -7 -8 -7 -7 -7 -7 -7 -7 -6 -6 -7 -7 -7 -7 -8 -8 -8
-10 -10 -10 -9 -9 -9 -9 -9 -8 -8 -7 -6 -6 -6 -6 -6 -6 -6 -6 -6 -6 -6 -6 -7 -7 -7 -8 -7 -8 -7 -7 -7 -7 -7 -7 -7 -7 -7 -8 -8 -7 -8 -8 -8 -8
-10 -10 -10 -10 -10 -9 -9 -9 -8 -8 -7 -7 -7 -6 -6 -6 -6 -6 -6 -6 -6 -6 -6 -6 -6 -7 -7 -8 -8 -8 -8 -8 -7 -7 -7 -7 -7 -7 -8 -8 -8 -8 -8 -8 -8
-10 -10 -10 -10 -10 -10 -10 -9 -8 -8 -7 -7 -7 -7 -6 -6 -6 -6 -6 -6 -6 -6 -6 -6 -6 -7 -7 -8 -8 -8 -8 -8 -7 -7 -7 -7 -7 -7 -8 -8 -8 -8 -8 -8 -8
-10 -10 -10 -10 -10 -10 -9 -9 -9 -8 -8 -8 -7 -7 -7 -7 -6 -6 -6 -6 -6 -6 -6 -6 -6 -6 -7 -8 -8 -9 -8 -8 -7 -7 -7 -7 -8 -8 -7 -8 -8 -8 -8 -8 -8
-10 -10 -10 -10 -10 -10 -10 -9 -9 -9 -8 -8 -8 -7 -7 -7 -7 -7 -7 -7 -6 -6 -6 -6 -6 -6 -7 -8 -8 -8 -7 -8 -8 -6 -7 -7 -8 -7 -7 -8 -8 -8 -8 -8 -7
-10 -10 -10 -10 -10 -10 -10 -10 -9 -9 -9 -8 -8 -8 -7 -7 -7 -7 -7 -7 -7 -7 -6 -6 -6 -6 -6 -7 -8 -8 -8 -8 -8 -6 -7 -7 -7 -7 -8 -8 -8 -8 -8 -8 -7
-10 -10 -10 -10 -10 -10 -10 -10 -10 -9 -9 -9 -8 -8 -8 -7 -7 -7 -7 -7 -7 -7 -7 -6 -6 -6 -7 -8 -7 -7 -7 -7 -7 -7 -7 -7 -7 -7 -7 -8 -8 -8 -8 -8 -7
-10 -10 -10 -10 -10 -10 -10 -10 -9 -9 -9 -9 -9 -8 -8 -7 -7 -7 -7 -7 -7 -7 -7 -7 -7 -6 -6 -6 -6 -6 -7 -8 -7 -7 -7 -7 -8 -8 -8 -8 -7 -8 -7 -7 -7
-11 -10 -10 -10 -10 -10 -9 -9 -9 -9 -9 -9 -9 -9 -8 -8 -7 -7 -7 -7 -7 -7 -7 -7 -6 -6 -6 -6 -6 -6 -7 -8 -8 -7 -7 -7 -8 -7 -7 -7 -7 -7 -7 -7 -7
-11 -11 -10 -10 -10 -10 -10 -9 -9 -9 -9 -9 -9 -9 -8 -8 -8 -7 -7 -7 -7 -7 -7 -7 -6 -6 -6 -6 -6 -7 -7 -7 -7 -8 -7 -7 -7 -8 -7 -7 -7 -7 -7 -7 -7
-11 -11 -11 -11 -10 -10 -10 -10 -9 -9 -9 -9 -9 -9 -8 -8 -8 -8 -8 -7 -7 -7 -7 -7 -7 -6 -6 -7 -6 -8 -6 -7 -7 -8 -8 -8 -8 -8 -7 -7 -7 -7 -7 -7 -7
-11 -11 -11 -11 -11 -11 -10 -10 -10 -10 -9 -9 -9 -9 -9 -8 -8 -8 -8 -8 -7 -7 -7 -7 -6 -6 -7 -6 -7 -7 -7 -7 -7 -8 -8 -8 -7 -7 -8 -7 -7 -7 -7 -7 -7
-12 -12 -11 -11 -11 -11 -11 -10 -10 -10 -10 -9 -9 -9 -9 -8 -8 -8 -8 -8 -8 -7 -7 -7 -7 -7 -7 -7 -7 -7 -7 -8 -8 -8 -8 -8 -7 -8 -7 -7 -7 -7 -7 -7 -8
-12 -12 -12 -11 -11 -11 -11 -10 -10 -10 -10 -9 -9 -9 -9 -9 -9 -8 -8 -8 -8 -8 -7 -7 -7 -7 -7 -7 -7 -7 -9 -8 -8 -8 -8 -8 -8 -9 -7 -7 -7 -7 -7 -7 -8
-12 -12 -12 -12 -11 -11 -10 -10 -10 -10 -10 -10 -10 -9 -9 -9 -9 -9 -8 -8 -8 -8 -8 -8 -8 -7 -7 -7 -7 -8 -8 -9 -8 -8 -8 -8 -8 -8 -8 -8 -7 -7 -7 -8 -9
-12 -12 -12 -12 -11 -11 -11 -10 -10 -10 -10 -10 -10 -10 -10 -9 -9 -9 -9 -8 -8 -8 -8 -8 -8 -8 -7 -7 -8 -8 -9 -8 -8 -9 -8 -8 -9 -9 -8 -8 -8 -7 -8 -8 -8
-12 -12 -12 -12 -12 -11 -11 -11 -11 -10 -10 -10 -10 -10 -10 -10 -10 -9 -9 -9 -9 -9 -8 -8 -8 -8 -8 -8 -9 -8 -8 -8 -9 -8 -8 -8 -9 -8 -8 -8 -8 -8 -8 -8 -8
-12 -12 -12 -12 -12 -12 -11 -11 -11 -11 -10 -10 -10 -10 -10 -10 -10 -10 -9 -9 -9 -9 -9 -9 -8 -9 -8 -8 -8 -8 -9 -9 -9 -9 -9 -9 -8 -9 -8 -8 -8 -8 -8 -8 -8
-12 -12 -12 -12 -12 -12 -11 -12 -11 -11 -11 -11 -10 -10 -10 -11 -10 -10 -10 -9 -9 -9 -9 -9 -9 -9 -9 -8 -8 -8 -8 -9 -9 -9 -9 -9 -9 -9 -9 -9 -9 -8 -9 -9 -9
-12 -12 -12 -12 -12 -12 -12 -12 -12 -12 -11 -11 -11 -11 -11 -11 -11 -11 -10 -10 -10 -10 -9 -9 -9 -9 -9 -10 -10 -8 -8 -9 -10 -10 -9 -9 -10 -9 -9 -9 -9 -9 -9 -9 -9
-12 -12 -12 -12 -12 -12 -12 -12 -12 -12 -12 -11 -11 -11 -11 -11 -11 -11 -11 -10 -10 -10 -10 -10 -9 -9 -9 -10 -9 -10 -9 -9 -10 -10 -9 -10 -10 -10 -10 -9 -9 -9 -9 -9 -9
-12 -12 -12 -12 -12 -12 -12 -12 -12 -12 -12 -12 -11 -12 -11 -12 -12 -12 -11 -11 -11 -10 -10 -10 -10 -9 -9 -9 -10 -10 -10 -9 -10 -10 -10 -10 -10 -10 -10 -10 -9 -10 -10 -9 -9
-13 -12 -12 -12 -13 -13 -13 -13 -12 -12 -12 -12 -12 -12 -12 -12 -12 -12 -11 -11 -11 -11 -11 -11 -10 -10 -10 -10 -10 -10 -10 -10 -10 -10 -10 -10 -10 -10 -10 -10 -10 -10 -10 -10 -9

GFSSW_500_temp_045.txt.gz
Temp
-8 -8 -8 -8 -8 -7 -7 -7 -7 -6 -6 -6 -6 -6 -5 -5 -5 -5 -4 -5 -5 -6 -7 -7 -7 -7 -7 -7 -6 -6 -6 -6 -7 -7 -7 -7 -8 -6 -6 -7 -7 -7 -7 -6 -6
-8 -8 -8 -8 -8 -7 -7 -7 -7 -7 -6 -6 -6 -6 -5 -5 -5 -5 -5 -5 -5 -6 -7 -7 -6 -7 -7 -7 -6 -8 -7 -7 -7 -7 -7 -7 -7 -8 -7 -7 -7 -7 -7 -7 -6
-8 -8 -8 -8 -8 -8 -8 -7 -7 -7 -7 -6 -6 -6 -6 -5 -5 -4 -5 -5 -5 -6 -7 -6 -7 -7 -7 -7 -8 -7 -6 -7 -7 -7 -7 -7 -7 -8 -6 -7 -7 -7 -7 -6 -6
-9 -9 -9 -9 -9 -8 -8 -8 -8 -7 -7 -6 -6 -6 -6 -5 -5 -5 -5 -4 -5 -5 -6 -7 -7 -7 -7 -8 -8 -7 -7 -6 -7 -8 -8 -8 -7 -8 -8 -7 -8 -7 -7 -6 -6
-9 -9 -9 -9 -9 -9 -8 -8 -8 -8 -7 -7 -6 -6 -6 -5 -5 -5 -5 -5 -5 -6 -6 -6 -7 -7 -8 -8 -7 -8 -7 -7 -8 -7 -7 -7 -8 -8 -8 -8 -8 -7 -7 -7 -6
-10 -9 -9 -9 -9 -9 -8 -8 -8 -8 -8 -7 -6 -6 -6 -6 -6 -5 -5 -5 -5 -5 -6 -6 -6 -7 -8 -8 -8 -8 -8 -8 -8 -7 -7 -6 -8 -8 -8 -7 -7 -7 -7 -6 -6
-10 -10 -10 -10 -9 -9 -9 -9 -9 -8 -8 -7 -7 -7 -6 -6 -6 -6 -6 -5 -6 -6 -5 -5 -6 -7 -8 -8 -8 -8 -7 -7 -7 -7 -8 -7 -7 -8 -8 -7 -7 -7 -7 -6 -6
-10 -10 -10 -10 -10 -10 -9 -9 -9 -8 -8 -7 -7 -7 -6 -7 -6 -6 -6 -6 -6 -6 -6 -6 -6 -6 -7 -8 -8 -8 -7 -6 -8 -7 -7 -6 -8 -8 -8 -7 -7 -7 -7 -7 -7
-10 -10 -10 -10 -10 -10 -9 -9 -9 -9 -8 -8 -7 -7 -7 -7 -7 -7 -6 -6 -6 -6 -6 -6 -6 -7 -7 -7 -8 -7 -7 -7 -7 -6 -7 -6 -7 -8 -7 -8 -7 -7 -7 -7 -7
-10 -10 -10 -10 -10 -10 -10 -9 -9 -9 -9 -8 -8 -8 -7 -7 -7 -7 -7 -7 -6 -6 -6 -6 -6 -6 -7 -8 -7 -6 -6 -6 -7 -7 -7 -7 -7 -7 -7 -8 -7 -8 -8 -8 -7
-10 -10 -10 -10 -10 -10 -10 -10 -9 -9 -9 -9 -8 -8 -8 -7 -7 -7 -7 -7 -7 -6 -6 -6 -6 -7 -8 -8 -7 -7 -7 -7 -7 -7 -6 -7 -7 -7 -8 -8 -8 -8 -7 -8 -7
-10 -10 -10 -10 -10 -10 -10 -10 -10 -9 -9 -9 -9 -8 -8 -7 -7 -7 -7 -7 -7 -7 -7 -6 -6 -7 -8 -8 -8 -8 -8 -7 -7 -7 -7 -7 -7 -7 -7 -8 -7 -8 -8 -7 -8
-10 -10 -10 -10 -10 -10 -10 -9 -9 -9 -9 -9 -9 -8 -8 -8 -7 -7 -7 -7 -7 -7 -7 -7 -8 -8 -6 -7 -7 -7 -8 -7 -7 -7 -7 -7 -7 -7 -7 -7 -7 -7 -7 -7 -8
-10 -10 -10 -10 -10 -10 -10 -9 -9 -9 -9 -9 -9 -9 -8 -8 -7 -7 -7 -7 -7 -7 -7 -7 -7 -6 -6 -6 -7 -8 -8 -8 -8 -8 -7 -7 -6 -7 -7 -7 -7 -7 -7 -7 -8
-10 -10 -10 -10 -10 -10 -10 -10 -9 -9 -10 -10 -9 -9 -9 -8 -8 -7 -8 -7 -7 -7 -7 -7 -7 -7 -7 -6 -7 -8 -8 -8 -8 -8 -7 -7 -7 -6 -7 -8 -7 -7 -7 -7 -7
-10 -10 -10 -10 -10 -10 -10 -10 -10 -10 -10 -9 -9 -9 -9 -9 -8 -8 -8 -8 -8 -7 -7 -7 -6 -7 -7 -7 -6 -8 -7 -7 -7 -7 -7 -7 -7 -6 -7 -7 -7 -7 -7 -7 -7
-10 -10 -10 -10 -11 -11 -11 -11 -10 -10 -10 -10 -9 -9 -9 -9 -9 -8 -8 -8 -8 -8 -7 -7 -7 -7 -7 -6 -7 -7 -8 -8 -7 -6 -6 -7 -7 -7 -7 -6 -7 -7 -7 -7 -7
-11 -10 -10 -10 -11 -11 -11 -11 -11 -11 -11 -11 -9 -9 -9 -9 -8 -9 -8 -8 -8 -8 -9 -8 -8 -7 -7 -7 -8 -7 -8 -7 -6 -6 -6 -6 -7 -7 -7 -7 -7 -7 -7 -7 -8
-11 -11 -11 -12 -12 -11 -11 -11 -11 -11 -11 -11 -10 -10 -10 -9 -9 -9 -8 -8 -8 -8 -8 -9 -8 -9 -7 -7 -7 -8 -8 -8 -7 -7 -7 -6 -7 -8 -7 -7 -7 -7 -7 -7 -8
-12 -12 -12 -12 -12 -12 -11 -11 -11 -11 -10 -10 -10 -11 -11 -10 -9 -9 -9 -8 -9 -8 -8 -9 -9 -9 -8 -7 -7 -8 -8 -8 -8 -7 -7 -7 -8 -7 -8 -9 -8 -7 -7 -8 -8
-12 -12 -12 -12 -12 -12 -11 -11 -11 -10 -10 -10 -10 -11 -10 -11 -11 -10 -10 -9 -8 -9 -8 -9 -8 -8 -9 -7 -8 -8 -8 -8 -7 -7 -7 -8 -9 -8 -8 -8 -9 -8 -8 -8 -8
-12 -12 -12 -12 -12 -12 -12 -12 -11 -10 -11 -10 -10 -10 -10 -12 -11 -10 -10 -10 -10 -9 -9 -8 -8 -9 -9 -9 -8 -9 -8 -9 -8 -8 -8 -7 -8 -9 -8 -8 -8 -8 -8 -8 -8
-12 -12 -12 -12 -12 -12 -12 -11 -11 -11 -11 -11 -11 -11 -10 -10 -10 -10 -11 -11 -9 -9 -9 -9 -9 -9 -9 -9 -8 -8 -9 -9 -8 -9 -8 -8 -8 -9 -9 -8 -8 -8 -8 -9 -9
-12 -12 -12 -12 -12 -12 -12 -12 -12 -12 -11 -11 -11 -11 -10 -10 -10 -11 -11 -10 -9 -9 -9 -9 -10 -9 -8 -9 -8 -9 -8 -9 -9 -8 -8 -8 -8 -8 -9 -8 -9 -9 -9 -9 -9
-12 -12 -12 -12 -12 -12 -11 -12 -12 -12 -12 -11 -11 -11 -11 -11 -11 -11 -11 -12 -10 -10 -9 -9 -9 -9 -8 -9 -9 -9 -9 -9 -8 -8 -8 -9 -9 -9 -9 -9 -9 -9 -9 -9 -9
-13 -12 -12 -12 -12 -12 -12 -12 -12 -12 -12 -11 -11 -12 -12 -11 -11 -13 -12 -12 -12 -10 -10 -10 -9 -9 -10 -9 -9 -9 -9 -9 -9 -9 -9 -9 -9 -9 -10 -9 -9 -10 -9 -9 -9
-13 -13 -12 -12 -12 -13 -13 -13 -12 -12 -12 -12 -12 -12 -12 -11 -11 -12 -11 -11 -11 -11 -10 -10 -10 -10 -9 -10 -10 -10 -10 -9 -10 -10 -9 -9 -10 -10 -9 -10 -10 -10 -10 -10 -9

GFSSW_500_temp_048.txt.gz
Temp
-7 -7 -7 -7 -7 -7 -6 -6 -6 -5 -5 -5 -5 -4 -5 -5 -5 -4 -4 -6 -6 -6 -6 -6 -6 -6 -6 -6 -6 -6 -6 -6 -6 -6 -7 -6 -7 -7 -6 -6 -6 -6 -5 -5 -5
-8 -7 -7 -7 -8 -7 -7 -7 -6 -6 -5 -5 -5 -4 -5 -5 -5 -4 -4 -5 -6 -6 -7 -6 -6 -6 -6 -7 -7 -8 -7 -7 -7 -7 -7 -7 -7 -6 -7 -6 -6 -6 -6 -6 -6
-8 -8 -8 -8 -8 -7 -7 -7 -7 -6 -6 -6 -6 -5 -5 -5 -5 -4 -4 -4 -6 -6 -6 -6 -6 -6 -6 -6 -8 -7 -7 -6 -7 -6 -6 -7 -7 -6 -6 -6 -5 -6 -6 -6 -6
-8 -8 -8 -8 -8 -8 -7 -8 -7 -7 -6 -6 -6 -5 -5 -5 -4 -5 -4 -4 -5 -6 -6 -6 -6 -6 -6 -6 -7 -7 -7 -7 -7 -6 -7 -7 -7 -7 -7 -6 -6 -6 -5 -6 -6
-9 -8 -8 -8 -8 -8 -8 -8 -8 -7 -7 -7 -6 -6 -5 -5 -5 -4 -4 -4 -4 -5 -6 -6 -6 -6 -6 -7 -7 -6 -7 -7 -7 -7 -6 -6 -7 -7 -7 -6 -6 -6 -5 -6 -6
-9 -9 -9 -9 -9 -9 -8 -8 -8 -7 -7 -7 -7 -6 -6 -5 -5 -5 -4 -4 -4 -5 -6 -6 -6 -6 -6 -8 -8 -7 -7 -7 -7 -7 -6 -6 -7 -8 -7 -7 -7 -6 -5 -6 -6
-10 -9 -9 -9 -9 -9 -9 -8 -8 -8 -8 -7 -7 -6 -6 -5 -5 -5 -5 -5 -5 -5 -5 -6 -5 -6 -6 -7 -8 -7 -7 -7 -7 -7 -7 -7 -7 -7 -8 -7 -8 -6 -5 -6 -6
-10 -9 -10 -9 -9 -9 -9 -9 -9 -8 -8 -8 -7 -7 -6 -6 -6 -5 -5 -5 -5 -5 -5 -5 -6 -6 -5 -6 -6 -6 -7 -8 -7 -7 -7 -6 -7 -7 -6 -7 -8 -6 -5 -6 -7
-10 -10 -10 -10 -9 -9 -9 -9 -9 -8 -8 -8 -8 -7 -6 -7 -6 -6 -6 -6 -6 -6 -5 -5 -6 -6 -6 -5 -6 -7 -7 -6 -7 -7 -7 -6 -7 -7 -6 -7 -7 -5 -6 -7 -7
-10 -10 -10 -10 -9 -9 -9 -10 -9 -9 -9 -8 -8 -8 -7 -6 -6 -6 -6 -6 -6 -6 -6 -6 -6 -6 -6 -6 -6 -7 -7 -7 -7 -7 -7 -6 -6 -6 -7 -7 -7 -7 -6 -7 -7
-10 -10 -10 -10 -10 -10 -10 -10 -10 -9 -9 -9 -8 -8 -7 -7 -7 -7 -7 -6 -6 -6 -6 -6 -6 -6 -6 -7 -7 -7 -8 -7 -8 -8 -6 -7 -6 -7 -7 -6 -7 -8 -8 -6 -8
-10 -10 -10 -10 -10 -10 -10 -10 -9 -9 -9 -9 -9 -8 -8 -8 -7 -7 -7 -7 -6 -6 -6 -6 -6 -6 -7 -8 -7 -7 -7 -7 -6 -6 -6 -6 -6 -6 -7 -7 -7 -7 -8 -7 -7
-10 -10 -10 -10 -10 -10 -10 -10 -10 -9 -9 -9 -9 -8 -8 -8 -8 -7 -7 -7 -7 -7 -6 -7 -7 -8 -7 -8 -7 -6 -7 -7 -7 -6 -6 -6 -6 -6 -6 -6 -6 -6 -6 -6 -7
-10 -10 -10 -10 -10 -10 -10 -10 -9 -9 -9 -9 -9 -8 -8 -8 -8 -8 -7 -7 -7 -7 -7 -6 -8 -8 -8 -6 -6 -6 -7 -7 -7 -7 -6 -6 -6 -6 -6 -8 -8 -6 -6 -6 -6
-10 -10 -10 -10 -10 -10 -10 -10 -10 -9 -9 -9 -9 -9 -8 -8 -8 -8 -7 -7 -7 -7 -7 -7 -7 -7 -7 -6 -6 -8 -7 -7 -7 -7 -7 -6 -6 -6 -6 -7 -7 -6 -6 -6 -6
-10 -10 -10 -10 -10 -10 -10 -10 -10 -10 -9 -10 -10 -9 -9 -8 -9 -9 -8 -7 -7 -7 -7 -7 -8 -7 -8 -7 -7 -8 -8 -7 -7 -7 -7 -6 -6 -6 -7 -7 -8 -6 -6 -6 -7
-10 -10 -10 -10 -10 -10 -10 -10 -10 -10 -9 -10 -10 -9 -9 -9 -9 -9 -8 -8 -7 -7 -7 -7 -7 -7 -7 -7 -8 -7 -8 -7 -7 -7 -6 -6 -6 -6 -6 -5 -5 -6 -6 -6 -6
-10 -10 -10 -10 -10 -10 -10 -10 -10 -10 -10 -10 -10 -10 -10 -9 -9 -9 -8 -8 -8 -7 -8 -8 -8 -7 -7 -7 -8 -7 -7 -7 -6 -6 -7 -7 -6 -7 -7 -6 -6 -5 -6 -6 -7
-11 -10 -10 -10 -10 -10 -11 -10 -10 -10 -11 -10 -10 -10 -10 -10 -9 -10 -9 -9 -8 -8 -8 -8 -8 -8 -8 -7 -7 -8 -8 -7 -7 -7 -6 -6 -7 -7 -7 -7 -6 -6 -6 -6 -7
-11 -11 -11 -11 -11 -11 -10 -10 -11 -11 -11 -11 -11 -11 -10 -10 -9 -10 -10 -9 -9 -9 -8 -8 -9 -8 -8 -8 -8 -7 -8 -8 -7 -7 -6 -6 -7 -7 -7 -9 -7 -7 -7 -7 -7
-12 -12 -12 -11 -11 -11 -11 -11 -12 -11 -12 -11 -10 -10 -10 -10 -9 -9 -10 -9 -9 -9 -9 -9 -9 -8 -8 -8 -8 -8 -8 -8 -7 -7 -7 -6 -7 -8 -8 -7 -8 -8 -7 -7 -7
-12 -12 -12 -12 -12 -12 -12 -12 -12 -12 -12 -11 -10 -10 -10 -11 -10 -10 -10 -9 -9 -9 -9 -9 -8 -8 -8 -8 -8 -8 -8 -8 -8 -7 -7 -7 -7 -7 -8 -8 -9 -9 -8 -8 -8
-13 -12 -12 -12 -12 -12 -12 -12 -12 -12 -12 -11 -11 -11 -11 -10 -11 -11 -10 -10 -9 -10 -10 -10 -9 -9 -9 -9 -8 -8 -8 -8 -8 -8 -7 -8 -8 -8 -9 -9 -9 -8 -8 -8 -8
-12 -12 -12 -12 -13 -12 -12 -13 -12 -12 -12 -11 -11 -11 -11 -11 -10 -10 -10 -10 -10 -10 -10 -10 -10 -9 -9 -8 -8 -8 -8 -8 -8 -8 -8 -8 -8 -7 -8 -8 -9 -10 -9 -9 -9
-13 -13 -12 -12 -13 -13 -13 -12 -12 -12 -12 -12 -12 -11 -11 -10 -10 -10 -11 -11 -11 -10 -10 -9 -9 -10 -9 -9 -9 -9 -9 -9 -8 -7 -8 -8 -8 -10 -9 -8 -9 -9 -9 -9 -9
-13 -12 -12 -12 -12 -12 -12 -12 -12 -12 -12 -12 -12 -12 -12 -11 -11 -11 -12 -12 -11 -11 -10 -10 -9 -9 -8 -8 -9 -9 -9 -9 -9 -8 -8 -8 -8 -8 -9 -9 -9 -9 -10 -9 -9
-13 -13 -13 -12 -12 -13 -13 -13 -13 -13 -13 -12 -12 -12 -12 -12 -12 -12 -13 -12 -11 -11 -11 -10 -10 -9 -9 -9 -9 -8 -9 -9 -9 -9 -8 -8 -9 -9 -9 -8 -9 -9 -10 -9 -9

GFSSW_500_temp_051.txt.gz
Temp
-7 -7 -7 -7 -6 -6 -6 -6 -5 -5 -4 -4 -4 -4 -4 -4 -4 -4 -4 -5 -6 -6 -6 -6 -6 -6 -7 -6 -6 -6 -8 -7 -7 -7 -7 -7 -7 -7 -6 -6 -5 -5 -5 -6 -6
-7 -7 -7 -7 -7 -7 -6 -6 -6 -5 -4 -4 -4 -4 -3 -4 -3 -4 -5 -4 -5 -5 -6 -6 -6 -6 -6 -5 -6 -7 -7 -7 -7 -8 -8 -7 -7 -7 -6 -7 -6 -5 -6 -6 -7
-8 -7 -7 -7 -7 -7 -6 -6 -6 -5 -5 -5 -4 -4 -4 -4 -3 -4 -5 -5 -5 -4 -6 -5 -5 -6 -7 -6 -6 -7 -7 -6 -7 -7 -7 -7 -7 -7 -7 -7 -6 -6 -6 -7 -7
-8 -8 -8 -8 -8 -8 -7 -7 -7 -6 -5 -5 -5 -4 -4 -4 -4 -4 -4 -4 -5 -4 -4 -5 -5 -6 -7 -6 -8 -8 -7 -7 -8 -7 -7 -6 -7 -7 -7 -6 -6 -7 -7 -6 -6
-9 -8 -8 -8 -8 -8 -8 -7 -7 -7 -6 -6 -6 -5 -5 -5 -4 -5 -4 -4 -4 -4 -4 -4 -4 -5 -7 -6 -7 -8 -8 -7 -7 -7 -7 -6 -7 -8 -6 -7 -6 -7 -7 -6 -6
-9 -9 -8 -8 -8 -9 -8 -8 -8 -8 -7 -6 -6 -6 -5 -5 -5 -5 -5 -4 -4 -5 -5 -5 -5 -6 -6 -6 -7 -8 -8 -7 -8 -7 -7 -7 -8 -7 -7 -7 -6 -6 -6 -6 -6
-9 -9 -9 -9 -9 -9 -9 -8 -8 -8 -8 -7 -7 -6 -6 -5 -5 -5 -5 -4 -4 -5 -5 -5 -4 -4 -4 -5 -6 -8 -8 -7 -7 -7 -7 -7 -7 -7 -7 -7 -6 -6 -6 -7 -6
-9 -9 -9 -9 -9 -9 -9 -9 -9 -8 -8 -7 -7 -7 -6 -6 -6 -5 -5 -5 -5 -5 -5 -5 -4 -4 -4 -5 -5 -8 -7 -7 -8 -7 -7 -7 -7 -7 -7 -7 -7 -6 -6 -7 -7
-10 -10 -10 -9 -9 -9 -9 -9 -9 -9 -8 -8 -8 -7 -7 -6 -6 -5 -5 -5 -5 -5 -5 -5 -5 -5 -4 -5 -6 -6 -7 -8 -7 -7 -7 -7 -7 -7 -7 -7 -7 -6 -5 -6 -6
-10 -10 -10 -10 -10 -10 -10 -9 -9 -9 -9 -8 -8 -8 -7 -7 -6 -6 -6 -5 -5 -5 -5 -5 -5 -5 -5 -5 -6 -6 -8 -7 -7 -7 -7 -7 -7 -7 -7 -7 -8 -7 -7 -5 -5
-10 -10 -10 -10 -10 -10 -10 -10 -9 -9 -9 -9 -8 -8 -8 -7 -7 -6 -6 -6 -6 -5 -5 -5 -5 -5 -5 -6 -6 -8 -7 -7 -8 -7 -7 -6 -7 -7 -7 -6 -7 -7 -7 -6 -6
-9 -10 -10 -10 -10 -10 -10 -10 -10 -9 -9 -9 -8 -9 -8 -8 -7 -7 -7 -6 -6 -6 -6 -6 -5 -5 -6 -6 -7 -7 -7 -7 -7 -7 -7 -7 -6 -7 -7 -7 -7 -7 -7 -6 -6
-10 -9 -10 -10 -10 -10 -10 -10 -10 -10 -9 -9 -9 -8 -9 -8 -8 -8 -7 -7 -6 -6 -6 -6 -6 -7 -8 -7 -8 -8 -7 -8 -7 -7 -7 -7 -6 -6 -7 -7 -7 -7 -6 -6 -6
-10 -10 -9 -10 -10 -10 -10 -10 -10 -10 -9 -8 -9 -9 -8 -9 -8 -8 -7 -7 -7 -7 -6 -6 -7 -8 -8 -8 -8 -7 -8 -7 -7 -7 -7 -7 -6 -6 -6 -6 -6 -6 -6 -6 -6
-10 -10 -10 -9 -10 -10 -10 -10 -10 -10 -9 -9 -9 -9 -9 -8 -8 -8 -8 -7 -7 -7 -7 -6 -8 -8 -8 -7 -7 -6 -7 -7 -7 -7 -7 -6 -6 -6 -6 -6 -6 -6 -6 -7 -7
-10 -10 -10 -10 -10 -9 -10 -10 -10 -10 -9 -9 -9 -9 -8 -9 -9 -8 -8 -8 -7 -7 -7 -7 -7 -8 -7 -8 -7 -6 -7 -7 -7 -6 -5 -7 -6 -6 -6 -7 -7 -6 -6 -7 -7
-10 -10 -10 -10 -10 -10 -10 -10 -10 -9 -9 -9 -10 -10 -9 -9 -9 -9 -8 -8 -8 -7 -7 -7 -7 -7 -7 -7 -6 -7 -6 -6 -6 -6 -6 -7 -6 -6 -6 -7 -7 -6 -6 -7 -7
-11 -10 -10 -10 -10 -10 -10 -10 -9 -9 -9 -10 -10 -10 -10 -9 -9 -9 -9 -8 -8 -8 -8 -7 -8 -7 -7 -7 -7 -6 -7 -6 -6 -7 -7 -8 -7 -6 -7 -8 -7 -7 -7 -7 -7
-11 -11 -10 -10 -10 -10 -10 -9 -9 -9 -10 -10 -10 -10 -10 -10 -9 -9 -9 -9 -8 -8 -8 -8 -7 -8 -8 -8 -7 -7 -7 -7 -7 -7 -7 -7 -7 -7 -8 -7 -8 -8 -7 -7 -7
-11 -11 -10 -11 -10 -10 -10 -9 -9 -10 -11 -11 -11 -10 -10 -10 -10 -10 -9 -9 -9 -9 -9 -8 -8 -8 -8 -8 -8 -7 -7 -8 -7 -7 -7 -7 -7 -7 -8 -7 -7 -7 -8 -8 -7
-12 -11 -11 -11 -11 -10 -9 -9 -10 -11 -11 -10 -11 -11 -11 -10 -10 -10 -9 -9 -9 -9 -9 -9 -9 -8 -8 -8 -8 -8 -8 -8 -8 -8 -7 -7 -7 -7 -7 -8 -9 -8 -8 -9 -8
-12 -12 -12 -12 -11 -11 -10 -11 -11 -12 -11 -11 -11 -11 -10 -10 -10 -10 -10 -10 -9 -9 -9 -9 -9 -8 -8 -8 -9 -8 -8 -8 -7 -7 -8 -8 -7 -7 -7 -7 -7 -7 -9 -10 -9
-13 -12 -12 -12 -12 -12 -12 -12 -12 -12 -12 -11 -11 -11 -11 -10 -10 -9 -10 -10 -10 -9 -9 -9 -9 -9 -8 -8 -8 -9 -8 -8 -8 -8 -8 -8 -7 -7 -8 -8 -8 -7 -9 -9 -10
-14 -13 -13 -13 -13 -12 -12 -12 -12 -13 -12 -13 -12 -11 -11 -11 -11 -10 -10 -10 -10 -10 -9 -9 -9 -9 -8 -8 -9 -8 -9 -8 -8 -8 -8 -8 -8 -8 -8 -8 -8 -9 -10 -9 -9
-15 -13 -13 -13 -13 -13 -13 -13 -12 -13 -12 -12 -12 -12 -11 -11 -11 -10 -10 -10 -10 -10 -10 -10 -9 -10 -9 -8 -9 -9 -9 -9 -8 -8 -8 -8 -8 -8 -8 -9 -8 -9 -8 -8 -7
-13 -13 -13 -13 -13 -12 -13 -13 -13 -13 -12 -12 -13 -12 -12 -11 -11 -10 -11 -10 -11 -10 -10 -10 -10 -10 -9 -8 -8 -8 -9 -9 -9 -9 -9 -9 -8 -8 -9 -9 -9 -8 -8 -8 -8
-14 -13 -13 -13 -12 -13 -13 -13 -13 -14 -14 -13 -12 -13 -12 -12 -11 -11 -11 -11 -10 -11 -10 -10 -10 -9 -9 -9 -9 -8 -8 -9 -9 -10 -9 -9 -9 -9 -9 -9 -9 -9 -9 -8 -8

GFSSW_500_temp_054.txt.gz
Temp
-7 -7 -7 -7 -7 -6 -6 -6 -6 -5 -5 -4 -4 -4 -3 -3 -4 -5 -5 -5 -5 -5 -6 -6 -7 -7 -8 -6 -6 -6 -8 -8 -8 -8 -8 -7 -7 -7 -7 -6 -6 -7 -7 -7 -7
-7 -7 -7 -7 -7 -6 -6 -6 -5 -5 -5 -4 -4 -4 -4 -3 -4 -5 -5 -5 -5 -5 -6 -6 -6 -7 -7 -7 -6 -7 -7 -8 -8 -8 -8 -8 -8 -8 -7 -6 -6 -7 -7 -6 -6
-8 -8 -7 -7 -7 -7 -6 -6 -5 -5 -5 -4 -4 -4 -4 -3 -3 -5 -5 -4 -4 -5 -5 -6 -6 -7 -7 -7 -6 -7 -7 -7 -8 -7 -7 -8 -8 -8 -7 -7 -7 -7 -6 -5 -6
-8 -8 -8 -8 -8 -7 -7 -6 -6 -6 -5 -5 -4 -4 -4 -4 -3 -4 -5 -5 -5 -4 -5 -5 -5 -7 -7 -6 -6 -7 -8 -7 -7 -8 -7 -7 -7 -7 -7 -7 -5 -7 -6 -5 -7
-8 -8 -8 -8 -8 -8 -7 -7 -6 -6 -6 -5 -4 -4 -4 -4 -4 -4 -4 -5 -5 -5 -4 -5 -5 -7 -8 -7 -6 -6 -6 -7 -7 -7 -7 -7 -7 -7 -7 -7 -6 -7 -6 -6 -7
-9 -9 -9 -9 -8 -8 -8 -7 -7 -7 -6 -5 -5 -5 -5 -4 -5 -4 -4 -5 -5 -5 -5 -5 -4 -6 -5 -7 -6 -7 -6 -7 -6 -7 -7 -7 -7 -7 -7 -7 -7 -7 -6 -6 -7
-9 -9 -9 -9 -9 -9 -9 -9 -8 -7 -7 -6 -5 -6 -6 -5 -6 -5 -5 -5 -5 -5 -5 -4 -4 -4 -5 -7 -7 -6 -6 -8 -7 -8 -8 -7 -6 -7 -7 -7 -7 -7 -6 -5 -6
-9 -10 -10 -9 -9 -9 -9 -9 -9 -7 -8 -7 -6 -6 -6 -6 -6 -5 -5 -5 -5 -5 -5 -5 -5 -5 -6 -7 -7 -6 -6 -7 -6 -7 -7 -8 -6 -7 -7 -8 -7 -7 -6 -6 -6
-9 -9 -10 -10 -10 -9 -9 -9 -9 -8 -8 -7 -7 -7 -7 -7 -6 -6 -6 -5 -5 -5 -5 -5 -5 -6 -6 -7 -7 -7 -6 -6 -6 -6 -7 -7 -7 -7 -7 -8 -7 -6 -7 -6 -6
-9 -9 -10 -10 -10 -10 -10 -10 -9 -9 -9 -8 -8 -7 -7 -7 -7 -6 -6 -5 -5 -5 -5 -5 -5 -5 -5 -6 -7 -7 -7 -6 -7 -6 -7 -7 -7 -7 -7 -7 -7 -7 -7 -7 -6
-9 -9 -9 -10 -10 -10 -10 -10 -9 -9 -9 -8 -8 -8 -8 -8 -7 -7 -6 -6 -5 -5 -6 -6 -5 -5 -5 -6 -8 -8 -7 -7 -7 -7 -7 -6 -7 -7 -7 -7 -7 -6 -7 -7 -7
-10 -10 -10 -10 -10 -10 -10 -10 -10 -9 -8 -9 -9 -8 -8 -8 -8 -7 -6 -6 -6 -6 -6 -5 -5 -6 -6 -6 -7 -8 -8 -6 -7 -7 -7 -7 -7 -7 -7 -7 -7 -6 -7 -7 -6
-10 -10 -10 -10 -10 -10 -10 -9 -10 -9 -8 -9 -9 -8 -9 -8 -8 -8 -7 -7 -6 -6 -6 -5 -7 -7 -7 -7 -7 -7 -8 -7 -7 -7 -7 -7 -7 -7 -7 -7 -7 -6 -7 -6 -6
-10 -10 -10 -10 -10 -10 -10 -10 -10 -9 -8 -8 -9 -8 -9 -9 -8 -9 -8 -7 -7 -7 -7 -6 -7 -7 -7 -7 -7 -7 -8 -8 -7 -7 -7 -7 -7 -7 -7 -7 -7 -6 -7 -7 -7
-11 -10 -10 -10 -10 -10 -10 -10 -10 -10 -8 -9 -9 -9 -9 -9 -9 -8 -8 -8 -7 -7 -7 -6 -7 -7 -8 -7 -8 -7 -7 -8 -8 -7 -7 -7 -7 -7 -7 -7 -7 -7 -7 -7 -7
-11 -11 -11 -10 -10 -10 -10 -10 -10 -10 -8 -9 -9 -9 -9 -9 -9 -9 -9 -8 -8 -7 -7 -7 -7 -7 -7 -7 -8 -7 -7 -8 -8 -7 -7 -7 -7 -7 -7 -7 -7 -7 -7 -7 -7
-12 -11 -11 -11 -11 -10 -11 -10 -10 -9 -9 -9 -10 -9 -9 -9 -9 -9 -9 -9 -8 -8 -7 -7 -7 -7 -7 -6 -7 -7 -7 -7 -7 -7 -7 -7 -7 -7 -7 -7 -7 -7 -7 -7 -7
-12 -12 -11 -11 -11 -11 -11 -10 -9 -9 -10 -10 -10 -10 -10 -10 -9 -9 -9 -9 -8 -8 -8 -7 -7 -7 -7 -8 -8 -8 -8 -7 -7 -7 -7 -7 -7 -7 -7 -7 -7 -7 -7 -8 -9
-12 -12 -12 -11 -11 -11 -11 -9 -9 -9 -10 -10 -10 -10 -10 -10 -10 -9 -9 -9 -9 -9 -8 -8 -7 -8 -8 -9 -8 -8 -7 -7 -8 -7 -8 -7 -7 -7 -7 -7 -7 -7 -8 -9 -9
-12 -12 -12 -11 -11 -11 -10 -9 -9 -10 -11 -10 -10 -10 -10 -10 -10 -10 -10 -10 -9 -9 -9 -8 -8 -8 -8 -8 -8 -8 -8 -8 -8 -7 -8 -7 -7 -7 -7 -7 -7 -7 -8 -7 -8
-13 -12 -12 -11 -11 -11 -10 -10 -10 -11 -11 -11 -10 -10 -10 -10 -10 -10 -10 -10 -10 -10 -9 -8 -9 -8 -9 -9 -8 -8 -8 -8 -8 -8 -8 -8 -8 -8 -8 -8 -8 -8 -8 -8 -8
-13 -13 -13 -12 -11 -11 -10 -11 -11 -11 -11 -11 -10 -10 -10 -10 -10 -10 -10 -10 -10 -10 -10 -9 -9 -8 -8 -9 -9 -9 -9 -8 -8 -8 -8 -8 -8 -8 -8 -8 -8 -8 -8 -8 -8
-14 -13 -13 -13 -12 -12 -12 -11 -10 -11 -12 -11 -10 -10 -11 -10 -10 -10 -10 -10 -10 -10 -10 -10 -10 -10 -8 -9 -9 -9 -9 -8 -8 -8 -8 -8 -8 -8 -8 -8 -8 -8 -8 -8 -8
-14 -14 -13 -13 -12 -12 -12 -12 -11 -12 -12 -11 -10 -10 -11 -11 -10 -10 -10 -10 -10 -10 -10 -10 -10 -9 -9 -9 -9 -9 -9 -9 -9 -8 -8 -8 -9 -9 -9 -9 -9 -8 -8 -8 -7
-14 -13 -13 -13 -13 -13 -12 -13 -12 -12 -12 -11 -11 -11 -11 -11 -11 -10 -10 -10 -10 -10 -10 -10 -10 -10 -9 -8 -9 -9 -9 -9 -9 -9 -9 -9 -9 -9 -9 -9 -9 -9 -8 -7 -8
-15 -15 -14 -15 -14 -13 -13 -13 -13 -13 -12 -12 -11 -12 -11 -11 -11 -11 -10 -10 -10 -11 -10 -10 -10 -10 -10 -9 -9 -9 -9 -9 -9 -9 -9 -9 -9 -9 -9 -9 -8 -9 -9 -9 -8
-15 -15 -14 -14 -13 -13 -14 -13 -13 -13 -13 -12 -12 -12 -12 -12 -11 -11 -11 -11 -10 -11 -10 -10 -10 -9 -9 -9 -9 -9 -9 -9 -9 -9 -9 -9 -9 -10 -9 -9 -8 -9 -9 -8 -8

GFSSW_500_temp_060.txt.gz
Temp
-7 -7 -7 -7 -7 -6 -6 -6 -5 -5 -5 -5 -5 -5 -5 -6 -6 -6 -6 -5 -5 -6 -6 -5 -7 -7 -6 -8 -8 -7 -6 -5 -7 -6 -6 -7 -8 -8 -8 -7 -7 -8 -8 -8 -8
-7 -8 -7 -7 -7 -7 -7 -6 -5 -5 -5 -5 -4 -4 -5 -6 -6 -6 -5 -5 -5 -5 -5 -6 -5 -6 -7 -8 -8 -7 -6 -6 -7 -8 -7 -7 -7 -7 -8 -7 -7 -8 -8 -9 -7
-7 -7 -8 -7 -7 -7 -7 -6 -6 -5 -5 -5 -4 -4 -5 -5 -6 -6 -6 -6 -5 -5 -5 -6 -6 -6 -7 -7 -7 -7 -6 -6 -6 -7 -7 -7 -7 -7 -7 -7 -8 -8 -8 -9 -7
-7 -7 -8 -8 -8 -8 -7 -7 -6 -6 -5 -5 -5 -4 -4 -5 -6 -6 -6 -6 -6 -5 -5 -5 -7 -6 -7 -7 -7 -7 -7 -6 -6 -7 -7 -8 -7 -6 -7 -7 -8 -8 -8 -8 -7
-7 -7 -8 -8 -8 -8 -8 -7 -7 -6 -6 -6 -5 -5 -4 -5 -5 -6 -6 -6 -6 -6 -5 -5 -6 -6 -7 -7 -7 -7 -7 -7 -7 -7 -8 -7 -7 -6 -7 -7 -8 -8 -8 -8 -7
-7 -7 -8 -9 -9 -8 -8 -8 -8 -7 -6 -6 -6 -5 -5 -5 -5 -5 -6 -6 -6 -6 -6 -5 -5 -4 -6 -7 -7 -7 -7 -7 -7 -7 -7 -7 -7 -6 -6 -7 -8 -8 -8 -8 -7
-8 -8 -8 -8 -9 -9 -9 -9 -9 -8 -7 -6 -6 -6 -5 -5 -6 -5 -6 -6 -6 -6 -6 -6 -5 -5 -6 -7 -6 -7 -7 -7 -7 -7 -6 -7 -8 -7 -7 -7 -7 -8 -8 -8 -7
-8 -8 -8 -8 -9 -9 -9 -9 -9 -9 -8 -6 -6 -6 -6 -6 -6 -6 -5 -6 -6 -6 -6 -6 -5 -4 -6 -7 -8 -7 -7 -7 -8 -7 -6 -7 -8 -7 -7 -7 -7 -8 -8 -8 -8
-9 -9 -8 -9 -9 -9 -9 -9 -9 -9 -9 -8 -7 -7 -6 -6 -6 -6 -6 -6 -6 -6 -6 -6 -5 -5 -5 -7 -8 -9 -9 -8 -8 -7 -7 -6 -7 -7 -7 -7 -7 -8 -8 -8 -8
-10 -9 -9 -9 -9 -9 -9 -9 -9 -10 -9 -9 -8 -8 -7 -7 -7 -6 -7 -7 -7 -6 -6 -6 -6 -5 -5 -6 -7 -9 -9 -7 -7 -8 -7 -7 -7 -7 -7 -7 -7 -7 -8 -8 -8
-10 -10 -10 -10 -9 -10 -10 -10 -9 -9 -10 -9 -9 -9 -8 -8 -7 -7 -7 -7 -7 -7 -6 -6 -6 -5 -7 -6 -7 -8 -9 -6 -8 -7 -7 -7 -7 -7 -7 -8 -7 -7 -8 -8 -8
-10 -10 -10 -10 -10 -10 -10 -10 -9 -9 -9 -10 -9 -9 -9 -8 -8 -8 -8 -7 -7 -7 -7 -6 -6 -7 -6 -6 -7 -8 -9 -7 -8 -7 -7 -6 -6 -7 -6 -7 -8 -7 -8 -8 -8
-10 -10 -11 -10 -10 -10 -10 -10 -10 -10 -10 -10 -10 -9 -9 -9 -8 -9 -8 -8 -8 -8 -7 -7 -7 -6 -6 -6 -7 -7 -8 -8 -8 -8 -7 -7 -7 -7 -7 -8 -8 -7 -8 -8 -8
-11 -11 -11 -11 -11 -11 -10 -10 -10 -10 -10 -9 -9 -9 -9 -9 -8 -9 -9 -9 -8 -8 -7 -7 -7 -6 -7 -7 -7 -7 -8 -9 -8 -8 -7 -7 -6 -7 -8 -8 -8 -8 -7 -7 -7
-11 -11 -11 -11 -11 -11 -11 -11 -11 -11 -10 -9 -9 -9 -9 -8 -9 -9 -9 -9 -9 -8 -8 -8 -8 -7 -7 -7 -7 -7 -8 -9 -9 -8 -8 -7 -7 -7 -8 -7 -7 -7 -7 -7 -8
-12 -12 -12 -12 -12 -11 -11 -11 -11 -11 -10 -10 -9 -9 -9 -9 -9 -9 -9 -10 -9 -9 -8 -8 -8 -8 -7 -8 -7 -7 -8 -9 -9 -9 -8 -8 -8 -7 -8 -8 -8 -8 -7 -8 -9
-12 -12 -12 -12 -12 -12 -12 -12 -11 -11 -10 -10 -10 -10 -9 -9 -9 -10 -9 -9 -9 -9 -8 -8 -8 -8 -8 -8 -8 -8 -8 -8 -8 -8 -8 -8 -8 -8 -8 -8 -8 -8 -7 -8 -9
-12 -12 -12 -13 -13 -12 -12 -12 -11 -10 -10 -10 -11 -10 -10 -10 -10 -10 -10 -9 -9 -9 -9 -8 -8 -8 -8 -8 -9 -8 -8 -8 -8 -7 -8 -8 -8 -8 -8 -8 -8 -7 -8 -8 -8
-13 -13 -13 -12 -13 -13 -13 -12 -11 -11 -11 -11 -11 -11 -10 -10 -10 -10 -9 -9 -9 -9 -9 -9 -9 -9 -8 -8 -9 -9 -9 -9 -8 -7 -8 -7 -8 -8 -9 -8 -8 -8 -8 -8 -8
-13 -14 -14 -13 -14 -14 -13 -12 -11 -12 -11 -11 -11 -11 -11 -11 -10 -10 -10 -10 -9 -9 -9 -9 -9 -9 -8 -8 -9 -9 -9 -9 -9 -8 -7 -7 -8 -8 -9 -8 -8 -8 -8 -8 -8
-14 -14 -14 -14 -14 -14 -13 -12 -12 -12 -12 -12 -12 -11 -11 -11 -11 -10 -10 -10 -10 -9 -10 -10 -9 -9 -9 -9 -9 -9 -9 -9 -9 -8 -8 -8 -8 -9 -9 -9 -8 -8 -8 -8 -8
-15 -14 -14 -14 -14 -13 -13 -13 -12 -13 -13 -12 -12 -11 -11 -11 -11 -11 -10 -10 -10 -10 -10 -10 -10 -9 -9 -9 -9 -9 -10 -9 -9 -9 -9 -9 -8 -9 -9 -9 -9 -9 -9 -8 -8
-15 -14 -14 -14 -14 -13 -13 -13 -12 -13 -12 -12 -12 -12 -11 -11 -11 -11 -11 -10 -10 -10 -10 -10 -10 -9 -9 -9 -10 -9 -10 -9 -9 -9 -9 -9 -9 -9 -9 -9 -9 -9 -9 -9 -8
-15 -15 -15 -15 -14 -14 -13 -13 -13 -13 -13 -12 -12 -12 -12 -11 -11 -11 -11 -11 -11 -10 -10 -10 -10 -10 -9 -9 -10 -10 -9 -9 -9 -9 -9 -9 -9 -9 -9 -9 -9 -9 -9 -9 -9
-15 -15 -15 -14 -15 -14 -14 -14 -13 -13 -12 -12 -12 -11 -12 -12 -11 -11 -11 -11 -11 -11 -11 -11 -10 -10 -10 -9 -9 -9 -9 -9 -10 -9 -9 -9 -9 -9 -9 -9 -9 -9 -9 -9 -9
-16 -15 -15 -15 -14 -15 -15 -15 -14 -13 -12 -12 -12 -12 -12 -12 -11 -11 -11 -11 -11 -11 -11 -11 -11 -11 -10 -10 -10 -10 -10 -10 -10 -10 -10 -10 -9 -9 -9 -9 -9 -9 -9 -9 -9
-16 -16 -17 -16 -15 -15 -14 -14 -14 -14 -13 -13 -12 -12 -12 -12 -12 -11 -11 -11 -11 -11 -12 -11 -11 -11 -11 -10 -10 -10 -10 -10 -10 -10 -10 -10 -10 -10 -10 -9 -9 -9 -9 -9 -9

GFSSW_500_temp_063.txt.gz
Temp
-6 -7 -7 -7 -7 -7 -7 -7 -6 -6 -6 -5 -5 -5 -5 -5 -5 -5 -5 -5 -5 -5 -5 -6 -7 -7 -7 -7 -7 -7 -7 -6 -6 -6 -7 -8 -7 -7 -8 -8 -9 -8 -8 -7 -7
-6 -6 -7 -7 -7 -7 -7 -7 -6 -6 -5 -5 -5 -5 -5 -5 -5 -5 -5 -5 -5 -5 -5 -5 -6 -7 -8 -7 -7 -7 -7 -7 -6 -6 -6 -7 -7 -7 -7 -8 -8 -8 -8 -7 -7
-6 -6 -6 -7 -7 -7 -7 -7 -7 -6 -5 -5 -5 -5 -5 -5 -5 -4 -5 -5 -5 -5 -5 -5 -5 -7 -7 -7 -7 -7 -7 -7 -7 -7 -6 -6 -7 -7 -7 -8 -8 -8 -8 -8 -8
-5 -6 -6 -7 -7 -8 -7 -7 -7 -6 -6 -5 -5 -5 -5 -5 -6 -5 -5 -5 -5 -5 -5 -5 -5 -6 -6 -7 -7 -7 -7 -7 -7 -7 -6 -6 -7 -7 -7 -8 -8 -8 -8 -8 -8
-6 -6 -6 -6 -7 -8 -8 -8 -7 -7 -6 -5 -5 -5 -5 -5 -5 -6 -5 -5 -6 -6 -5 -5 -5 -5 -6 -7 -7 -8 -8 -8 -7 -8 -7 -7 -7 -7 -7 -8 -8 -8 -8 -8 -8
-7 -7 -7 -6 -7 -8 -8 -8 -8 -8 -7 -6 -6 -5 -6 -5 -5 -6 -6 -5 -6 -6 -6 -5 -5 -5 -6 -7 -7 -8 -8 -8 -8 -8 -8 -7 -7 -7 -7 -7 -8 -8 -8 -8 -8
-7 -7 -7 -7 -7 -8 -8 -8 -8 -8 -7 -7 -6 -6 -6 -6 -6 -5 -6 -6 -6 -6 -6 -6 -5 -5 -5 -6 -6 -7 -8 -8 -8 -8 -8 -7 -7 -7 -7 -7 -8 -8 -8 -8 -8
-8 -8 -8 -8 -8 -8 -8 -8 -9 -8 -8 -8 -7 -7 -6 -6 -6 -6 -5 -6 -6 -6 -6 -6 -6 -5 -5 -6 -6 -7 -8 -8 -8 -7 -7 -7 -7 -7 -7 -7 -7 -8 -8 -8 -8
-9 -9 -9 -8 -8 -9 -8 -8 -9 -9 -9 -9 -9 -8 -7 -6 -6 -7 -6 -6 -6 -6 -6 -6 -6 -5 -5 -6 -7 -7 -8 -7 -7 -8 -8 -6 -6 -7 -7 -7 -7 -8 -8 -8 -8
-10 -10 -10 -9 -9 -9 -9 -9 -9 -9 -9 -9 -10 -9 -7 -7 -7 -7 -7 -6 -6 -6 -6 -6 -6 -6 -5 -6 -6 -7 -9 -6 -7 -8 -8 -8 -7 -7 -7 -7 -7 -7 -8 -8 -8
-10 -10 -10 -10 -10 -9 -9 -9 -9 -9 -10 -10 -10 -9 -9 -8 -7 -7 -7 -7 -7 -7 -6 -7 -6 -6 -6 -6 -5 -6 -8 -6 -8 -8 -8 -8 -7 -8 -8 -8 -7 -7 -8 -8 -7
-10 -10 -10 -10 -10 -10 -10 -9 -9 -9 -10 -10 -10 -10 -9 -9 -8 -8 -8 -7 -7 -7 -7 -7 -7 -6 -7 -6 -5 -6 -6 -6 -8 -8 -8 -8 -8 -8 -7 -8 -8 -7 -8 -7 -7
-10 -10 -11 -11 -11 -11 -10 -10 -10 -10 -10 -10 -10 -10 -10 -9 -9 -8 -8 -8 -8 -8 -7 -7 -7 -7 -7 -6 -6 -6 -6 -6 -7 -8 -8 -8 -8 -8 -8 -7 -8 -8 -8 -8 -7
-11 -11 -11 -11 -11 -11 -11 -10 -10 -10 -10 -10 -10 -10 -10 -10 -8 -9 -9 -8 -8 -8 -8 -7 -7 -7 -7 -7 -6 -6 -6 -6 -7 -8 -8 -8 -7 -8 -8 -8 -8 -8 -8 -8 -7
-11 -11 -11 -12 -12 -12 -11 -11 -11 -11 -11 -10 -10 -10 -10 -10 -9 -9 -9 -9 -9 -9 -8 -8 -8 -7 -7 -7 -7 -7 -7 -7 -7 -8 -8 -8 -8 -7 -7 -7 -7 -7 -7 -7 -7
-12 -12 -12 -12 -12 -13 -12 -12 -11 -11 -11 -10 -10 -10 -10 -10 -9 -9 -9 -9 -9 -9 -9 -9 -8 -8 -8 -8 -7 -7 -8 -8 -8 -8 -7 -7 -8 -8 -8 -8 -8 -8 -7 -7 -7
-12 -12 -13 -13 -13 -13 -13 -12 -12 -11 -10 -10 -10 -10 -10 -10 -9 -9 -9 -9 -9 -9 -8 -9 -9 -9 -8 -8 -8 -8 -8 -8 -9 -9 -8 -8 -8 -8 -8 -8 -8 -8 -7 -7 -7
-12 -13 -13 -13 -13 -13 -14 -13 -12 -11 -11 -11 -11 -11 -10 -10 -10 -9 -9 -9 -10 -10 -9 -9 -9 -9 -9 -8 -9 -9 -9 -9 -8 -9 -8 -8 -7 -7 -8 -8 -8 -8 -7 -7 -7
-13 -13 -14 -13 -13 -14 -14 -13 -12 -12 -11 -11 -11 -11 -11 -10 -10 -10 -10 -10 -10 -10 -10 -9 -9 -9 -9 -9 -9 -9 -9 -9 -9 -9 -8 -8 -8 -8 -8 -8 -8 -8 -8 -7 -7
-14 -14 -14 -14 -14 -14 -14 -12 -13 -13 -12 -12 -12 -12 -11 -11 -11 -11 -10 -10 -9 -9 -9 -9 -9 -9 -9 -9 -9 -9 -9 -9 -9 -9 -9 -8 -8 -8 -9 -9 -8 -8 -8 -8 -8
-14 -14 -14 -14 -14 -14 -13 -12 -13 -13 -12 -12 -12 -12 -12 -11 -11 -11 -11 -10 -10 -9 -10 -9 -9 -10 -10 -9 -9 -8 -9 -9 -9 -9 -9 -9 -8 -8 -9 -9 -9 -9 -8 -8 -8
-14 -13 -15 -14 -14 -14 -13 -14 -14 -13 -13 -13 -12 -12 -12 -12 -11 -11 -11 -11 -11 -10 -10 -10 -10 -10 -10 -10 -9 -9 -9 -9 -9 -9 -9 -9 -8 -8 -8 -9 -9 -9 -9 -8 -8
-15 -15 -15 -15 -14 -14 -14 -14 -14 -14 -13 -13 -13 -12 -12 -12 -11 -11 -11 -11 -11 -11 -10 -10 -10 -10 -10 -10 -10 -9 -9 -10 -9 -9 -9 -9 -9 -9 -9 -9 -9 -9 -9 -9 -8
-15 -15 -15 -16 -15 -14 -14 -14 -14 -14 -13 -13 -13 -12 -12 -12 -11 -12 -11 -11 -11 -11 -11 -10 -10 -10 -10 -10 -10 -10 -10 -10 -10 -10 -9 -9 -9 -9 -9 -9 -9 -9 -9 -9 -9
-15 -15 -15 -16 -15 -15 -14 -14 -14 -14 -13 -13 -13 -12 -12 -12 -12 -12 -12 -12 -11 -11 -11 -11 -10 -10 -10 -10 -10 -10 -10 -10 -10 -10 -10 -9 -9 -9 -9 -9 -9 -9 -9 -9 -9
-16 -16 -16 -16 -16 -15 -15 -15 -15 -15 -14 -14 -13 -13 -13 -12 -12 -12 -12 -12 -12 -12 -11 -11 -11 -10 -10 -10 -10 -10 -10 -10 -10 -10 -10 -10 -10 -10 -10 -9 -9 -9 -9 -9 -9
-16 -16 -16 -16 -15 -15 -15 -15 -15 -15 -14 -14 -13 -13 -13 -13 -13 -12 -12 -12 -12 -12 -12 -12 -11 -11 -11 -11 -11 -10 -10 -10 -10 -10 -10 -10 -10 -10 -10 -10 -10 -10 -9 -9 -9

GFSSW_500_temp_066.txt.gz
Temp
-5 -6 -6 -6 -6 -6 -6 -5 -6 -5 -5 -4 -4 -4 -4 -4 -4 -4 -5 -5 -6 -6 -6 -7 -7 -8 -7 -7 -7 -7 -7 -7 -6 -7 -7 -7 -7 -7 -7 -7 -7 -7 -8 -7 -7
-5 -5 -6 -6 -6 -7 -6 -6 -5 -6 -5 -6 -5 -5 -4 -4 -4 -4 -5 -5 -6 -6 -6 -6 -7 -7 -7 -7 -7 -7 -7 -7 -6 -7 -7 -7 -7 -7 -7 -7 -7 -7 -8 -8 -8
-5 -5 -5 -6 -6 -6 -6 -7 -6 -6 -5 -5 -5 -5 -5 -4 -4 -4 -4 -5 -5 -5 -6 -6 -7 -7 -7 -7 -7 -7 -7 -7 -7 -6 -7 -7 -7 -7 -7 -8 -7 -7 -8 -8 -8
-5 -5 -5 -5 -6 -5 -6 -7 -7 -6 -6 -5 -5 -5 -5 -4 -4 -5 -4 -5 -5 -5 -5 -6 -6 -7 -7 -8 -8 -7 -8 -8 -7 -7 -7 -7 -7 -7 -8 -8 -8 -7 -7 -8 -8
-6 -5 -5 -5 -5 -6 -6 -7 -7 -6 -6 -5 -6 -5 -5 -5 -4 -5 -4 -4 -5 -5 -5 -6 -6 -6 -6 -7 -8 -8 -8 -8 -7 -7 -7 -7 -7 -7 -8 -8 -8 -7 -7 -8 -8
-6 -6 -6 -6 -6 -6 -6 -7 -7 -7 -7 -6 -5 -5 -5 -5 -5 -5 -5 -5 -5 -5 -5 -5 -5 -6 -6 -7 -7 -8 -8 -8 -7 -7 -6 -8 -7 -7 -7 -8 -8 -8 -8 -7 -7
-7 -7 -6 -6 -6 -6 -6 -7 -7 -7 -7 -7 -6 -5 -5 -5 -5 -5 -5 -5 -5 -5 -5 -5 -5 -5 -6 -7 -6 -7 -8 -8 -8 -7 -8 -7 -8 -7 -7 -7 -7 -7 -8 -7 -7
-8 -7 -7 -7 -7 -7 -7 -7 -8 -8 -8 -7 -7 -6 -6 -6 -6 -5 -5 -5 -5 -5 -5 -5 -5 -5 -5 -6 -7 -7 -7 -9 -8 -7 -7 -7 -8 -7 -7 -7 -7 -7 -7 -7 -6
-8 -8 -8 -8 -8 -8 -7 -7 -8 -8 -8 -8 -8 -8 -7 -6 -6 -6 -5 -5 -6 -6 -5 -5 -5 -6 -5 -6 -7 -8 -8 -8 -8 -7 -7 -7 -7 -7 -7 -7 -7 -7 -7 -7 -6
-9 -8 -8 -8 -8 -8 -8 -8 -8 -8 -9 -9 -9 -8 -8 -7 -7 -7 -7 -6 -6 -6 -6 -6 -5 -6 -6 -6 -6 -9 -8 -7 -8 -8 -8 -7 -8 -8 -7 -7 -7 -7 -7 -7 -7
-9 -9 -9 -9 -9 -9 -9 -9 -9 -9 -9 -9 -9 -9 -9 -9 -8 -7 -8 -7 -6 -6 -6 -6 -6 -6 -6 -6 -6 -6 -6 -5 -6 -8 -8 -8 -8 -8 -8 -7 -7 -7 -7 -7 -7
-9 -10 -9 -10 -10 -10 -10 -9 -9 -9 -9 -10 -10 -10 -10 -9 -9 -8 -8 -8 -7 -7 -7 -6 -6 -6 -6 -6 -6 -6 -6 -6 -6 -8 -8 -9 -8 -8 -8 -7 -7 -8 -8 -7 -6
-10 -10 -10 -10 -10 -11 -10 -10 -10 -10 -9 -9 -10 -10 -10 -10 -10 -9 -8 -8 -8 -8 -7 -7 -7 -7 -6 -6 -6 -6 -6 -6 -6 -8 -8 -8 -8 -8 -8 -7 -7 -7 -8 -7 -7
-11 -11 -11 -11 -11 -11 -11 -11 -11 -10 -10 -10 -10 -10 -10 -10 -10 -10 -9 -8 -8 -8 -8 -8 -8 -7 -7 -7 -7 -6 -6 -6 -6 -7 -8 -8 -7 -8 -8 -8 -7 -7 -7 -7 -7
-11 -12 -12 -12 -12 -11 -11 -11 -11 -11 -11 -10 -10 -10 -10 -10 -10 -10 -10 -8 -8 -9 -9 -8 -8 -8 -7 -7 -7 -7 -6 -6 -6 -7 -8 -8 -8 -7 -8 -7 -8 -7 -7 -7 -7
-12 -12 -12 -12 -12 -12 -12 -12 -12 -12 -11 -11 -10 -10 -10 -10 -10 -10 -10 -9 -9 -10 -9 -9 -8 -8 -8 -7 -7 -7 -7 -7 -7 -7 -8 -8 -8 -7 -8 -8 -8 -8 -7 -7 -7
-13 -13 -13 -13 -13 -13 -13 -13 -13 -12 -11 -11 -11 -10 -10 -10 -10 -10 -10 -10 -9 -9 -8 -8 -9 -9 -8 -8 -7 -7 -8 -8 -8 -8 -8 -8 -8 -8 -8 -8 -8 -8 -8 -7 -7
-13 -13 -13 -13 -13 -13 -14 -13 -13 -11 -12 -11 -11 -11 -11 -10 -10 -10 -10 -9 -9 -10 -10 -9 -10 -9 -9 -8 -8 -9 -9 -9 -8 -8 -7 -8 -8 -8 -7 -8 -7 -8 -8 -7 -8
-14 -14 -13 -13 -13 -14 -14 -13 -12 -13 -12 -12 -12 -12 -12 -11 -11 -10 -10 -9 -9 -9 -9 -10 -10 -10 -9 -9 -9 -9 -9 -9 -9 -9 -8 -8 -8 -8 -8 -7 -7 -7 -8 -8 -8
-15 -15 -14 -14 -14 -14 -14 -13 -14 -13 -13 -13 -12 -13 -12 -11 -11 -11 -10 -10 -10 -10 -10 -11 -10 -10 -9 -9 -9 -9 -9 -9 -9 -9 -9 -8 -9 -8 -9 -8 -8 -8 -8 -8 -8
-15 -15 -15 -14 -14 -15 -14 -14 -14 -14 -14 -13 -13 -13 -12 -12 -11 -11 -11 -10 -10 -10 -10 -10 -10 -10 -10 -9 -9 -9 -8 -8 -9 -9 -8 -8 -8 -9 -8 -8 -8 -8 -8 -8 -8
-16 -15 -15 -14 -14 -15 -15 -14 -14 -14 -14 -14 -13 -13 -13 -12 -12 -11 -11 -11 -10 -10 -10 -10 -10 -10 -10 -10 -9 -10 -10 -9 -9 -9 -9 -9 -8 -9 -8 -9 -9 -9 -9 -9 -9
-15 -16 -15 -14 -15 -15 -15 -15 -14 -14 -14 -14 -13 -13 -13 -13 -12 -12 -11 -11 -11 -11 -11 -10 -10 -10 -10 -10 -10 -9 -9 -9 -9 -8 -9 -9 -8 -9 -9 -9 -9 -9 -9 -9 -9
-15 -16 -15 -15 -15 -15 -15 -15 -14 -15 -14 -14 -13 -13 -13 -13 -12 -12 -12 -11 -11 -11 -11 -11 -11 -10 -10 -10 -10 -10 -10 -9 -10 -10 -9 -9 -9 -9 -9 -9 -9 -9 -9 -9 -9
-15 -17 -16 -15 -15 -15 -16 -16 -16 -15 -15 -14 -14 -13 -13 -13 -13 -12 -12 -12 -12 -11 -11 -11 -11 -11 -10 -10 -10 -10 -10 -10 -10 -10 -9 -9 -10 -9 -9 -9 -9 -9 -9 -9 -9
-16 -16 -16 -15 -15 -15 -16 -16 -15 -15 -14 -14 -14 -14 -13 -13 -13 -13 -13 -13 -13 -12 -12 -11 -11 -11 -11 -10 -10 -10 -10 -10 -10 -10 -10 -10 -10 -9 -9 -9 -9 -9 -9 -9 -9
-16 -16 -16 -16 -16 -15 -15 -16 -16 -15 -15 -14 -14 -14 -14 -13 -14 -13 -13 -13 -13 -12 -12 -12 -11 -11 -11 -11 -10 -10 -10 -10 -10 -10 -10 -10 -10 -10 -10 -10 -10 -10 -10 -10 -10

GFSSW_500_temp_069.txt.gz
Temp
-5 -5 -5 -5 -5 -5 -4 -4 -4 -4 -4 -4 -4 -4 -4 -4 -4 -4 -5 -5 -6 -6 -7 -7 -7 -7 -7 -7 -7 -7 -7 -6 -7 -7 -7 -7 -7 -7 -6 -6 -7 -7 -7 -7 -7
-5 -5 -5 -5 -5 -5 -5 -4 -4 -4 -4 -4 -4 -4 -4 -4 -4 -4 -5 -5 -5 -5 -6 -7 -7 -7 -7 -7 -7 -7 -7 -7 -7 -7 -7 -7 -8 -8 -7 -8 -7 -7 -7 -7 -7
-4 -4 -5 -5 -4 -5 -5 -5 -5 -5 -4 -4 -4 -4 -4 -4 -3 -3 -4 -4 -5 -5 -6 -5 -6 -7 -8 -8 -7 -7 -8 -8 -7 -7 -8 -7 -7 -7 -8 -8 -8 -7 -7 -6 -6
-4 -4 -4 -5 -5 -5 -5 -5 -5 -5 -5 -4 -4 -4 -4 -4 -4 -3 -4 -4 -4 -5 -5 -6 -6 -6 -7 -9 -8 -7 -7 -8 -8 -7 -8 -7 -8 -7 -7 -7 -7 -7 -7 -7 -6
-4 -4 -4 -4 -5 -5 -5 -5 -5 -5 -5 -5 -5 -5 -5 -5 -4 -4 -4 -4 -4 -5 -5 -6 -6 -6 -7 -8 -8 -8 -8 -8 -8 -7 -7 -7 -7 -7 -7 -7 -6 -7 -7 -7 -6
-6 -5 -5 -5 -5 -5 -5 -5 -6 -6 -6 -5 -5 -5 -4 -5 -5 -4 -4 -4 -4 -4 -4 -5 -5 -6 -6 -6 -7 -9 -7 -7 -8 -8 -7 -7 -7 -7 -7 -7 -7 -6 -6 -7 -7
-7 -6 -6 -6 -6 -5 -5 -6 -6 -6 -6 -6 -6 -6 -5 -5 -5 -5 -4 -4 -4 -4 -4 -5 -5 -6 -6 -6 -7 -7 -7 -8 -8 -7 -7 -6 -7 -7 -7 -7 -7 -6 -6 -7 -7
-7 -7 -7 -6 -6 -6 -6 -6 -7 -7 -7 -7 -7 -6 -6 -6 -5 -6 -5 -4 -4 -5 -5 -5 -5 -5 -5 -6 -6 -6 -7 -8 -7 -7 -7 -7 -7 -7 -7 -7 -7 -6 -6 -7 -7
-7 -7 -7 -7 -7 -7 -7 -7 -7 -7 -8 -8 -8 -7 -7 -6 -6 -5 -6 -5 -5 -5 -5 -5 -5 -5 -5 -6 -6 -6 -8 -7 -7 -7 -7 -8 -7 -7 -7 -7 -7 -7 -6 -6 -7
-7 -7 -7 -7 -7 -7 -7 -7 -7 -8 -8 -8 -8 -8 -8 -8 -7 -6 -7 -6 -6 -6 -5 -5 -5 -5 -5 -6 -7 -7 -7 -7 -7 -7 -7 -8 -7 -7 -7 -7 -7 -7 -7 -7 -7
-7 -7 -8 -8 -8 -8 -8 -8 -8 -8 -8 -8 -9 -9 -8 -8 -8 -7 -7 -7 -7 -6 -6 -6 -5 -5 -6 -8 -8 -8 -7 -7 -7 -8 -8 -8 -8 -7 -8 -7 -7 -7 -7 -7 -7
-6 -8 -9 -8 -9 -9 -9 -9 -9 -9 -8 -8 -9 -9 -9 -9 -9 -9 -8 -8 -8 -7 -7 -7 -6 -6 -7 -7 -6 -6 -6 -6 -6 -8 -8 -7 -8 -7 -7 -7 -7 -7 -7 -7 -7
-7 -8 -9 -9 -9 -10 -10 -10 -10 -10 -9 -9 -9 -9 -10 -10 -9 -9 -9 -9 -8 -8 -8 -7 -8 -8 -8 -6 -6 -6 -6 -7 -8 -8 -8 -8 -7 -7 -7 -7 -7 -7 -7 -7 -7
-7 -8 -9 -10 -11 -11 -10 -10 -10 -10 -10 -9 -9 -9 -9 -10 -10 -10 -10 -9 -9 -9 -9 -9 -9 -9 -8 -7 -7 -7 -7 -8 -6 -6 -7 -7 -7 -7 -7 -8 -7 -7 -7 -7 -7
-8 -8 -10 -11 -11 -11 -11 -11 -11 -11 -11 -10 -10 -10 -9 -10 -9 -10 -10 -10 -9 -8 -9 -9 -9 -9 -8 -7 -7 -7 -8 -7 -6 -6 -7 -7 -7 -6 -7 -7 -8 -7 -7 -7 -7
-8 -9 -11 -12 -12 -12 -12 -12 -12 -12 -12 -11 -12 -10 -10 -9 -10 -10 -11 -10 -9 -9 -10 -10 -9 -10 -9 -8 -7 -7 -7 -7 -6 -7 -7 -7 -7 -6 -7 -8 -7 -8 -7 -7 -7
-9 -10 -12 -12 -13 -13 -12 -13 -13 -13 -11 -12 -12 -12 -11 -10 -10 -11 -11 -10 -9 -9 -9 -10 -9 -10 -8 -9 -8 -7 -7 -7 -7 -7 -6 -6 -6 -6 -7 -7 -8 -7 -7 -7 -7
-9 -11 -12 -13 -13 -13 -13 -13 -12 -12 -12 -13 -12 -12 -11 -11 -11 -11 -11 -11 -10 -10 -10 -10 -9 -10 -10 -8 -9 -9 -8 -8 -7 -6 -6 -7 -7 -7 -7 -8 -7 -7 -7 -7 -8
-10 -12 -14 -14 -14 -13 -13 -13 -12 -13 -14 -14 -13 -13 -12 -12 -11 -11 -11 -11 -10 -10 -10 -10 -9 -9 -9 -9 -9 -9 -9 -8 -8 -7 -7 -6 -6 -7 -8 -8 -7 -6 -7 -7 -8
-11 -13 -14 -15 -14 -14 -13 -12 -13 -15 -15 -14 -14 -14 -12 -12 -11 -11 -11 -11 -10 -10 -10 -10 -10 -9 -9 -10 -9 -9 -9 -9 -8 -8 -7 -6 -7 -7 -7 -8 -8 -7 -7 -8 -8
-12 -14 -14 -15 -15 -14 -14 -14 -15 -15 -14 -14 -14 -14 -13 -12 -12 -11 -11 -11 -11 -10 -10 -10 -10 -9 -9 -10 -9 -10 -9 -9 -8 -8 -7 -7 -7 -7 -8 -8 -8 -7 -8 -8 -8
-13 -15 -15 -15 -15 -15 -14 -15 -15 -15 -15 -14 -14 -14 -14 -14 -13 -12 -11 -11 -11 -11 -11 -10 -10 -10 -9 -9 -10 -9 -9 -9 -9 -8 -8 -8 -7 -8 -8 -8 -8 -9 -8 -8 -9
-14 -15 -15 -15 -15 -15 -14 -15 -15 -14 -15 -14 -14 -14 -14 -13 -13 -12 -12 -13 -11 -11 -11 -11 -10 -10 -10 -9 -9 -10 -9 -9 -9 -9 -8 -8 -8 -8 -9 -9 -8 -9 -9 -9 -9
-15 -15 -15 -16 -15 -15 -15 -15 -14 -15 -15 -14 -14 -14 -14 -14 -13 -13 -13 -13 -12 -12 -11 -11 -11 -11 -9 -9 -9 -9 -9 -9 -9 -9 -8 -8 -8 -9 -8 -9 -8 -9 -9 -9 -9
-15 -15 -15 -16 -16 -15 -15 -14 -14 -15 -15 -15 -14 -14 -14 -14 -13 -13 -13 -13 -13 -12 -11 -11 -11 -11 -10 -10 -10 -9 -9 -9 -9 -9 -9 -8 -9 -9 -10 -9 -9 -9 -9 -9 -9
-16 -15 -16 -16 -15 -15 -15 -15 -15 -16 -16 -16 -15 -14 -14 -14 -13 -13 -14 -14 -13 -13 -12 -12 -11 -11 -11 -10 -10 -10 -10 -10 -9 -9 -9 -9 -10 -9 -10 -9 -9 -9 -9 -9 -9
-15 -15 -16 -16 -16 -15 -16 -15 -15 -16 -16 -16 -15 -15 -15 -15 -14 -13 -14 -14 -13 -13 -13 -13 -12 -11 -11 -10 -10 -10 -10 -9 -9 -10 -9 -10 -10 -10 -10 -10 -9 -9 -9 -9 -9

GFSSW_500_temp_072.txt.gz
Temp
-4 -4 -4 -4 -4 -4 -4 -4 -4 -4 -4 -3 -3 -3 -4 -3 -3 -4 -5 -5 -5 -5 -5 -6 -6 -6 -6 -6 -6 -6 -7 -7 -6 -6 -6 -6 -7 -6 -6 -6 -7 -6 -6 -6 -7
-4 -4 -4 -3 -4 -4 -4 -4 -4 -4 -4 -4 -3 -3 -3 -3 -4 -4 -4 -4 -5 -5 -5 -5 -6 -6 -6 -6 -7 -8 -7 -7 -6 -7 -7 -7 -7 -7 -7 -6 -6 -5 -6 -6 -7
-4 -4 -3 -3 -4 -4 -4 -4 -4 -3 -4 -4 -4 -4 -3 -3 -3 -4 -4 -4 -4 -4 -4 -5 -5 -6 -6 -6 -7 -8 -8 -7 -7 -7 -7 -7 -7 -7 -7 -7 -4 -5 -6 -6 -6
-4 -4 -3 -4 -3 -3 -4 -4 -4 -4 -4 -4 -4 -4 -3 -3 -3 -3 -4 -4 -4 -4 -4 -5 -5 -6 -6 -7 -8 -8 -8 -7 -7 -7 -7 -7 -6 -7 -6 -7 -7 -5 -6 -6 -7
-4 -4 -4 -4 -4 -4 -4 -4 -4 -4 -4 -4 -4 -3 -3 -4 -3 -3 -3 -4 -4 -4 -5 -5 -5 -5 -6 -7 -8 -8 -8 -7 -7 -7 -7 -6 -7 -7 -6 -7 -6 -5 -7 -7 -7
-5 -5 -5 -5 -5 -5 -5 -4 -4 -4 -4 -4 -4 -4 -3 -4 -4 -4 -4 -4 -4 -4 -4 -5 -5 -5 -5 -5 -6 -8 -8 -8 -8 -7 -7 -6 -7 -7 -6 -6 -6 -5 -7 -7 -6
-6 -5 -5 -5 -5 -5 -5 -5 -6 -5 -5 -5 -5 -4 -3 -5 -4 -5 -5 -4 -4 -4 -4 -5 -5 -5 -6 -5 -6 -7 -7 -7 -7 -7 -7 -7 -6 -7 -7 -6 -6 -6 -7 -7 -6
-6 -6 -6 -5 -5 -5 -5 -5 -6 -6 -6 -6 -6 -5 -4 -5 -4 -4 -5 -5 -5 -5 -5 -4 -5 -5 -5 -6 -5 -5 -6 -7 -7 -7 -7 -7 -7 -7 -7 -7 -6 -6 -7 -7 -7
-6 -6 -6 -6 -6 -6 -6 -6 -6 -6 -7 -6 -7 -6 -5 -6 -6 -6 -5 -5 -5 -5 -5 -5 -5 -5 -5 -5 -6 -6 -5 -7 -7 -6 -7 -7 -7 -7 -7 -7 -6 -6 -7 -7 -7
-6 -5 -6 -6 -6 -6 -6 -6 -7 -7 -6 -7 -7 -7 -7 -7 -8 -7 -7 -6 -6 -6 -5 -6 -5 -5 -5 -6 -5 -8 -7 -7 -6 -6 -6 -7 -7 -7 -7 -7 -8 -7 -7 -7 -7
-6 -5 -5 -5 -6 -6 -7 -7 -7 -7 -7 -7 -7 -7 -8 -8 -7 -7 -8 -8 -7 -7 -6 -6 -5 -5 -6 -7 -8 -8 -7 -7 -6 -6 -7 -7 -7 -7 -7 -7 -7 -8 -7 -7 -7
-6 -6 -6 -6 -6 -6 -7 -8 -7 -8 -7 -7 -8 -8 -7 -8 -8 -8 -9 -8 -8 -8 -8 -7 -5 -6 -6 -8 -8 -8 -8 -6 -6 -7 -7 -7 -7 -7 -7 -7 -7 -8 -7 -7 -7
-6 -6 -6 -6 -7 -7 -6 -7 -8 -9 -8 -8 -8 -9 -8 -9 -8 -9 -9 -9 -9 -8 -8 -8 -8 -8 -8 -8 -8 -8 -6 -6 -7 -7 -7 -7 -7 -7 -7 -7 -6 -6 -8 -6 -7
-7 -7 -7 -7 -7 -7 -7 -8 -9 -10 -9 -8 -9 -8 -9 -9 -9 -8 -9 -9 -9 -9 -9 -9 -9 -9 -8 -8 -9 -8 -8 -8 -8 -8 -7 -7 -7 -7 -6 -7 -7 -6 -6 -7 -6
-7 -7 -7 -7 -8 -8 -8 -9 -10 -11 -11 -9 -9 -9 -10 -10 -9 -9 -10 -10 -9 -9 -10 -9 -9 -9 -8 -8 -8 -8 -8 -8 -8 -7 -8 -7 -7 -6 -6 -6 -7 -7 -7 -7 -6
-7 -7 -7 -7 -8 -8 -9 -10 -11 -12 -11 -10 -10 -11 -11 -11 -10 -9 -11 -10 -10 -10 -10 -9 -9 -9 -8 -9 -9 -9 -8 -8 -8 -6 -7 -7 -7 -6 -6 -7 -7 -8 -7 -7 -7
-7 -7 -8 -8 -8 -9 -10 -12 -12 -12 -12 -11 -11 -11 -11 -11 -11 -11 -11 -10 -10 -10 -10 -8 -9 -9 -9 -9 -9 -9 -9 -8 -8 -7 -7 -6 -6 -6 -6 -7 -7 -7 -6 -7 -7
-8 -8 -8 -8 -8 -10 -12 -13 -13 -12 -12 -12 -12 -12 -11 -11 -11 -11 -11 -10 -10 -10 -10 -10 -9 -9 -9 -9 -9 -9 -9 -8 -8 -7 -6 -6 -6 -6 -6 -6 -7 -7 -7 -6 -7
-8 -8 -8 -8 -9 -11 -13 -13 -13 -12 -13 -14 -13 -13 -12 -11 -11 -10 -10 -10 -10 -10 -10 -10 -9 -9 -9 -9 -9 -8 -9 -8 -8 -7 -7 -6 -7 -7 -6 -6 -7 -6 -6 -7 -7
-9 -8 -8 -9 -11 -12 -13 -13 -13 -13 -13 -15 -14 -13 -13 -12 -11 -11 -11 -10 -10 -10 -10 -10 -10 -9 -9 -8 -9 -9 -9 -9 -8 -8 -7 -7 -6 -6 -6 -7 -7 -8 -6 -6 -7
-9 -9 -9 -10 -12 -14 -14 -14 -13 -14 -13 -15 -15 -14 -13 -13 -12 -12 -11 -11 -10 -10 -10 -10 -10 -9 -9 -9 -9 -8 -9 -9 -8 -8 -7 -7 -6 -6 -7 -7 -8 -7 -7 -7 -7
-9 -10 -11 -11 -13 -14 -14 -14 -14 -14 -15 -15 -15 -13 -13 -13 -14 -13 -12 -12 -12 -10 -10 -10 -9 -9 -9 -9 -9 -9 -9 -9 -9 -8 -8 -7 -7 -9 -7 -8 -9 -8 -8 -7 -8
-10 -10 -11 -13 -14 -15 -15 -15 -14 -14 -15 -16 -15 -15 -14 -13 -14 -14 -13 -13 -11 -11 -11 -10 -10 -10 -9 -9 -9 -9 -9 -9 -9 -8 -8 -8 -7 -7 -9 -9 -9 -9 -8 -8 -8
-10 -11 -12 -14 -15 -15 -15 -15 -15 -15 -15 -14 -14 -14 -15 -14 -13 -12 -12 -13 -13 -12 -12 -11 -10 -10 -9 -9 -9 -9 -9 -8 -8 -9 -8 -8 -8 -9 -9 -8 -8 -9 -8 -8 -9
-11 -12 -13 -15 -16 -15 -15 -15 -15 -15 -16 -15 -14 -14 -14 -14 -13 -12 -12 -14 -13 -13 -12 -11 -10 -11 -10 -10 -9 -9 -10 -9 -9 -9 -9 -9 -8 -8 -8 -8 -8 -11 -9 -9 -9
-11 -12 -14 -15 -15 -16 -16 -15 -14 -15 -15 -15 -15 -15 -15 -15 -14 -13 -13 -13 -13 -13 -12 -12 -11 -11 -10 -10 -10 -10 -10 -10 -9 -9 -9 -8 -9 -8 -9 -10 -9 -11 -9 -9 -9
-12 -13 -14 -15 -15 -16 -16 -15 -15 -15 -14 -15 -15 -14 -14 -15 -15 -15 -13 -13 -13 -14 -13 -12 -12 -11 -10 -10 -10 -10 -10 -9 -9 -9 -9 -8 -8 -8 -9 -10 -10 -11 -9 -9 -9

GFSSW_500_temp_075.txt.gz
Temp
-3 -3 -3 -3 -3 -4 -4 -3 -3 -3 -3 -3 -3 -3 -3 -3 -4 -4 -4 -4 -5 -4 -5 -5 -6 -6 -6 -6 -6 -6 -7 -7 -7 -7 -7 -7 -7 -7 -6 -7 -7 -7 -7 -7 -7
-3 -3 -3 -3 -3 -3 -3 -3 -3 -3 -3 -3 -3 -3 -3 -3 -3 -4 -4 -4 -4 -4 -4 -5 -5 -6 -6 -6 -6 -7 -7 -7 -7 -7 -7 -7 -7 -7 -7 -7 -6 -7 -7 -7 -7
-3 -3 -3 -3 -3 -3 -3 -3 -3 -3 -3 -3 -3 -3 -3 -3 -3 -3 -3 -4 -4 -4 -4 -4 -5 -6 -6 -6 -6 -8 -8 -7 -7 -7 -7 -7 -6 -8 -7 -7 -5 -6 -7 -7 -7
-4 -3 -3 -3 -3 -3 -3 -3 -3 -3 -3 -3 -3 -3 -3 -3 -3 -3 -4 -4 -4 -4 -4 -4 -4 -4 -6 -6 -6 -8 -8 -8 -7 -8 -7 -7 -7 -7 -7 -7 -5 -5 -6 -7 -7
-4 -4 -4 -4 -3 -3 -3 -3 -3 -3 -3 -3 -3 -2 -2 -3 -3 -4 -4 -4 -4 -4 -4 -4 -4 -4 -4 -6 -6 -7 -8 -8 -8 -7 -7 -7 -7 -7 -7 -7 -6 -6 -7 -6 -7
-4 -4 -4 -4 -4 -4 -4 -4 -4 -4 -3 -3 -3 -3 -2 -3 -3 -4 -4 -4 -4 -4 -4 -4 -5 -5 -4 -4 -4 -5 -6 -7 -7 -7 -7 -7 -7 -7 -7 -7 -7 -7 -6 -6 -6
-5 -5 -5 -4 -4 -4 -4 -4 -4 -5 -4 -4 -3 -3 -3 -4 -3 -4 -4 -4 -4 -4 -4 -4 -5 -5 -5 -5 -5 -4 -4 -4 -5 -6 -7 -7 -7 -7 -7 -7 -6 -5 -6 -6 -6
-5 -5 -5 -5 -5 -5 -5 -5 -5 -4 -4 -4 -4 -4 -3 -5 -4 -3 -4 -5 -5 -4 -5 -5 -5 -5 -4 -5 -5 -5 -5 -4 -5 -6 -7 -7 -7 -7 -7 -7 -7 -6 -6 -6 -6
-5 -5 -5 -5 -5 -5 -5 -6 -6 -5 -5 -5 -5 -3 -3 -5 -5 -6 -5 -4 -5 -6 -5 -5 -5 -5 -5 -5 -5 -5 -5 -6 -6 -7 -7 -7 -6 -6 -7 -7 -7 -7 -6 -6 -6
-5 -5 -5 -5 -5 -5 -5 -5 -6 -5 -5 -6 -6 -5 -5 -6 -6 -6 -6 -6 -5 -6 -6 -6 -5 -5 -5 -5 -5 -6 -5 -7 -7 -7 -6 -6 -7 -7 -6 -7 -7 -7 -7 -7 -7
-5 -5 -5 -5 -5 -5 -6 -5 -5 -5 -5 -5 -5 -5 -5 -7 -7 -7 -7 -7 -7 -5 -6 -7 -6 -5 -6 -6 -6 -6 -7 -8 -7 -7 -6 -7 -7 -7 -6 -7 -7 -7 -7 -7 -7
-5 -6 -6 -5 -6 -6 -6 -5 -5 -5 -4 -5 -6 -5 -6 -8 -8 -7 -8 -8 -8 -7 -7 -7 -6 -7 -6 -6 -7 -8 -8 -8 -7 -7 -7 -7 -7 -7 -7 -7 -7 -7 -7 -7 -6
-5 -5 -6 -6 -6 -6 -5 -6 -6 -5 -4 -4 -6 -6 -7 -9 -8 -7 -9 -8 -9 -9 -8 -7 -7 -7 -7 -7 -7 -8 -8 -7 -7 -6 -7 -7 -7 -6 -6 -7 -7 -7 -7 -7 -6
-5 -5 -5 -6 -6 -6 -6 -6 -6 -6 -4 -5 -7 -7 -8 -9 -9 -9 -9 -10 -10 -9 -9 -9 -8 -7 -7 -8 -9 -8 -8 -8 -7 -8 -7 -7 -6 -6 -6 -7 -6 -6 -7 -7 -6
-5 -6 -6 -6 -6 -6 -6 -6 -7 -6 -5 -7 -8 -9 -9 -10 -9 -10 -10 -10 -10 -9 -10 -8 -9 -8 -9 -9 -8 -8 -8 -8 -8 -8 -8 -7 -7 -5 -6 -6 -6 -7 -7 -7 -6
-5 -6 -6 -6 -7 -7 -7 -7 -7 -7 -6 -9 -10 -11 -11 -11 -10 -10 -10 -10 -10 -10 -10 -10 -10 -9 -9 -9 -9 -9 -9 -8 -8 -8 -7 -5 -6 -5 -6 -6 -6 -7 -8 -6 -6
-6 -6 -6 -7 -7 -7 -7 -7 -7 -8 -10 -11 -11 -11 -11 -11 -11 -11 -10 -11 -11 -11 -10 -10 -10 -10 -9 -9 -9 -9 -9 -9 -8 -8 -6 -6 -7 -6 -6 -6 -7 -7 -7 -6 -6
-6 -6 -7 -7 -7 -7 -7 -7 -8 -10 -11 -12 -12 -12 -11 -11 -11 -11 -11 -11 -11 -11 -11 -10 -10 -10 -9 -9 -9 -9 -9 -9 -8 -8 -7 -8 -7 -6 -6 -6 -7 -7 -7 -7 -6
-7 -7 -8 -8 -8 -8 -8 -8 -9 -11 -13 -12 -13 -12 -12 -12 -12 -11 -11 -11 -11 -11 -11 -11 -11 -10 -10 -9 -9 -9 -9 -8 -9 -8 -8 -7 -7 -6 -6 -7 -7 -7 -7 -7 -7
-7 -7 -8 -8 -8 -8 -8 -10 -11 -12 -13 -13 -12 -12 -12 -12 -12 -12 -12 -11 -11 -11 -11 -11 -10 -10 -10 -9 -9 -9 -8 -9 -9 -9 -8 -7 -7 -7 -7 -8 -8 -7 -7 -7 -7
-8 -8 -8 -8 -8 -9 -9 -11 -13 -13 -13 -14 -13 -13 -12 -12 -13 -13 -12 -12 -12 -11 -12 -12 -11 -10 -10 -9 -10 -9 -9 -9 -9 -9 -8 -8 -7 -8 -7 -8 -7 -7 -7 -8 -7
-9 -9 -9 -9 -9 -9 -11 -12 -13 -14 -14 -13 -13 -13 -13 -13 -12 -12 -12 -13 -12 -12 -12 -11 -12 -12 -10 -9 -9 -10 -10 -9 -9 -8 -8 -8 -8 -8 -9 -8 -7 -7 -8 -8 -8
-9 -10 -9 -9 -9 -10 -12 -13 -14 -14 -15 -14 -14 -14 -13 -13 -12 -12 -12 -11 -12 -12 -12 -11 -11 -11 -10 -10 -9 -9 -10 -9 -9 -9 -8 -8 -8 -8 -8 -7 -7 -7 -9 -8 -8
-10 -10 -10 -10 -10 -11 -13 -13 -15 -14 -15 -14 -14 -13 -13 -12 -13 -12 -12 -12 -12 -12 -12 -12 -11 -11 -10 -10 -9 -10 -10 -10 -9 -9 -8 -8 -8 -9 -8 -9 -7 -9 -8 -5 -10
-11 -10 -10 -10 -11 -14 -14 -14 -15 -15 -15 -14 -14 -14 -15 -14 -14 -13 -12 -12 -12 -12 -12 -12 -12 -11 -11 -10 -10 -11 -10 -9 -9 -9 -9 -9 -9 -9 -9 -9 -9 -9 -8 -9 -9
-11 -11 -11 -12 -12 -14 -14 -14 -15 -15 -15 -15 -14 -14 -14 -14 -14 -13 -14 -13 -13 -13 -14 -13 -12 -11 -11 -10 -10 -11 -10 -11 -9 -9 -9 -9 -9 -10 -9 -9 -9 -9 -9 -8 -11
-11 -11 -12 -13 -13 -14 -14 -15 -15 -15 -15 -14 -15 -15 -14 -14 -14 -13 -13 -13 -13 -14 -14 -13 -12 -11 -11 -10 -10 -11 -11 -11 -10 -9 -9 -9 -9 -10 -9 -9 -9 -9 -9 -9 -11

GFSSW_500_temp_078.txt.gz
Temp
-3 -3 -3 -3 -3 -3 -3 -3 -3 -3 -3 -3 -3 -3 -3 -3 -3 -3 -4 -4 -4 -5 -5 -6 -5 -6 -6 -7 -6 -6 -7 -7 -7 -7 -7 -7 -7 -8 -8 -7 -8 -7 -7 -7 -7
-3 -3 -3 -3 -3 -3 -3 -2 -2 -2 -2 -2 -2 -2 -2 -3 -3 -3 -3 -4 -4 -4 -5 -6 -5 -6 -6 -6 -6 -6 -6 -7 -8 -8 -7 -7 -7 -7 -7 -7 -8 -7 -7 -7 -7
-2 -2 -2 -2 -2 -3 -3 -3 -2 -2 -2 -2 -2 -2 -3 -3 -3 -3 -3 -3 -4 -4 -4 -5 -6 -5 -6 -7 -7 -6 -6 -7 -8 -8 -7 -7 -7 -8 -7 -7 -7 -7 -8 -7 -7
-3 -3 -3 -2 -2 -3 -3 -3 -3 -2 -2 -2 -2 -2 -2 -2 -4 -4 -3 -3 -3 -4 -4 -4 -5 -6 -6 -6 -7 -6 -6 -6 -7 -8 -7 -7 -8 -7 -7 -7 -7 -7 -7 -6 -7
-3 -3 -3 -3 -3 -3 -3 -3 -3 -3 -3 -3 -2 -2 -2 -2 -3 -4 -4 -4 -4 -4 -4 -4 -4 -5 -5 -5 -6 -5 -5 -4 -6 -6 -7 -8 -7 -7 -7 -7 -7 -7 -7 -7 -7
-3 -3 -3 -3 -3 -3 -3 -3 -3 -3 -3 -3 -3 -3 -3 -3 -3 -3 -4 -4 -4 -4 -4 -4 -5 -5 -5 -5 -5 -4 -4 -5 -3 -5 -7 -8 -7 -8 -7 -7 -7 -7 -7 -7 -7
-5 -5 -5 -5 -4 -4 -4 -4 -4 -3 -3 -3 -3 -3 -3 -4 -3 -4 -4 -4 -4 -5 -5 -4 -5 -4 -4 -5 -5 -5 -5 -5 -5 -6 -7 -7 -7 -7 -7 -7 -7 -7 -7 -7 -7
-5 -5 -5 -5 -5 -5 -5 -5 -5 -4 -4 -4 -3 -2 -2 -5 -3 -3 -5 -5 -4 -5 -5 -5 -5 -4 -4 -4 -5 -5 -5 -5 -5 -7 -7 -7 -6 -7 -7 -7 -7 -7 -6 -7 -7
-5 -5 -5 -5 -5 -5 -5 -4 -5 -5 -5 -4 -4 -4 -3 -6 -6 -6 -4 -5 -4 -4 -5 -5 -5 -5 -4 -5 -5 -5 -5 -5 -6 -7 -7 -7 -6 -7 -7 -7 -7 -7 -7 -7 -7
-5 -5 -5 -5 -5 -5 -5 -4 -5 -4 -4 -4 -3 -4 -4 -5 -5 -5 -5 -6 -6 -6 -5 -6 -5 -5 -5 -5 -5 -6 -6 -6 -6 -7 -7 -7 -7 -7 -7 -7 -7 -7 -7 -7 -6
-5 -5 -5 -5 -5 -5 -5 -5 -5 -4 -4 -4 -4 -4 -4 -5 -5 -5 -7 -7 -7 -8 -7 -7 -6 -5 -6 -5 -6 -6 -6 -6 -6 -7 -7 -7 -7 -7 -7 -7 -7 -7 -7 -7 -7
-5 -5 -5 -5 -5 -5 -5 -5 -4 -3 -4 -5 -5 -4 -5 -5 -4 -5 -7 -7 -8 -7 -8 -8 -5 -7 -7 -6 -6 -7 -6 -6 -6 -5 -7 -7 -7 -7 -7 -7 -7 -7 -7 -7 -7
-5 -5 -5 -5 -5 -5 -4 -5 -4 -3 -3 -6 -5 -4 -5 -5 -5 -7 -8 -8 -8 -9 -9 -9 -6 -9 -8 -7 -7 -7 -7 -7 -7 -7 -7 -7 -7 -7 -7 -7 -7 -7 -7 -6 -7
-5 -5 -5 -5 -5 -5 -4 -5 -4 -4 -4 -6 -5 -6 -5 -5 -4 -7 -9 -10 -9 -9 -9 -9 -9 -9 -9 -8 -7 -8 -8 -8 -9 -7 -6 -7 -6 -7 -7 -6 -7 -7 -6 -6 -7
-5 -5 -5 -6 -5 -5 -5 -5 -5 -5 -5 -6 -6 -7 -6 -6 -7 -9 -9 -11 -10 -10 -10 -9 -10 -10 -9 -8 -9 -7 -9 -9 -9 -8 -7 -7 -6 -5 -6 -7 -7 -7 -7 -7 -6
-6 -6 -5 -5 -5 -5 -5 -5 -5 -6 -6 -7 -6 -6 -7 -9 -10 -11 -10 -11 -11 -11 -11 -10 -10 -10 -9 -9 -9 -9 -9 -9 -9 -8 -7 -6 -6 -5 -6 -6 -6 -7 -7 -7 -7
-6 -6 -6 -5 -5 -6 -6 -6 -6 -7 -6 -7 -7 -8 -9 -12 -12 -11 -10 -11 -11 -12 -11 -11 -10 -10 -10 -9 -9 -9 -9 -9 -9 -9 -6 -7 -8 -6 -7 -7 -6 -7 -7 -7 -7
-6 -6 -6 -6 -5 -6 -7 -7 -7 -7 -7 -8 -8 -9 -11 -12 -12 -11 -11 -11 -11 -11 -11 -11 -11 -10 -10 -9 -9 -9 -9 -9 -9 -9 -7 -7 -7 -6 -7 -6 -6 -6 -6 -7 -7
-6 -6 -6 -6 -6 -7 -7 -8 -8 -8 -8 -8 -10 -11 -12 -12 -12 -12 -12 -12 -12 -12 -12 -11 -11 -11 -10 -10 -9 -9 -10 -10 -9 -9 -8 -7 -7 -7 -7 -7 -6 -6 -7 -7 -7
-7 -7 -7 -7 -7 -8 -8 -8 -8 -8 -9 -10 -12 -12 -12 -12 -12 -12 -12 -13 -12 -12 -13 -13 -12 -11 -11 -11 -10 -10 -10 -9 -10 -9 -9 -7 -7 -8 -8 -7 -7 -7 -7 -7 -7
-7 -7 -7 -8 -8 -8 -8 -8 -9 -10 -11 -12 -13 -13 -12 -12 -12 -12 -13 -13 -12 -13 -12 -13 -11 -10 -10 -11 -10 -10 -11 -10 -11 -9 -9 -8 -7 -8 -9 -8 -7 -7 -7 -7 -7
-7 -7 -8 -9 -9 -9 -9 -9 -9 -11 -13 -13 -13 -13 -13 -12 -12 -12 -13 -13 -13 -13 -12 -12 -11 -11 -10 -10 -11 -11 -11 -11 -10 -9 -9 -9 -8 -9 -8 -8 -8 -9 -8 -8 -8
-8 -8 -9 -9 -9 -9 -9 -10 -10 -12 -13 -13 -13 -13 -13 -13 -12 -12 -13 -13 -13 -12 -12 -12 -12 -11 -10 -10 -10 -11 -10 -10 -11 -10 -10 -9 -8 -9 -9 -9 -8 -8 -8 -8 -8
-9 -9 -10 -10 -10 -10 -10 -10 -12 -13 -14 -14 -13 -13 -13 -13 -12 -12 -13 -13 -13 -13 -13 -12 -12 -11 -11 -11 -11 -11 -11 -11 -11 -10 -10 -9 -9 -9 -8 -8 -8 -8 -8 -8 -8
-10 -10 -10 -10 -10 -10 -10 -10 -12 -14 -14 -13 -14 -14 -14 -13 -13 -13 -13 -13 -14 -13 -12 -12 -11 -12 -12 -11 -12 -11 -10 -11 -11 -11 -11 -10 -9 -9 -10 -8 -8 -8 -9 -9 -9
-10 -11 -11 -11 -11 -11 -11 -11 -13 -14 -14 -14 -13 -13 -14 -14 -13 -13 -13 -13 -13 -13 -13 -13 -12 -13 -12 -12 -11 -11 -10 -10 -10 -9 -11 -10 -9 -9 -9 -9 -9 -9 -9 -9 -9
-11 -11 -12 -11 -12 -12 -11 -12 -14 -14 -14 -14 -14 -13 -14 -14 -14 -14 -13 -13 -13 -13 -13 -13 -13 -13 -12 -12 -11 -11 -11 -10 -11 -11 -11 -10 -9 -9 -9 -10 -9 -9 -9 -10 -9

GFSSW_500_temp_081.txt.gz
Temp
-3 -2 -2 -2 -2 -2 -2 -2 -2 -2 -2 -3 -3 -3 -3 -3 -4 -4 -4 -4 -4 -5 -6 -6 -6 -6 -6 -6 -7 -7 -7 -6 -8 -8 -8 -8 -8 -8 -8 -8 -8 -8 -8 -8 -7
-3 -2 -2 -3 -3 -2 -2 -2 -2 -2 -2 -2 -2 -3 -3 -3 -4 -4 -4 -4 -4 -4 -5 -6 -6 -6 -6 -6 -7 -7 -7 -6 -7 -8 -8 -8 -8 -8 -8 -8 -8 -8 -8 -7 -7
-3 -3 -3 -3 -3 -3 -3 -2 -2 -2 -2 -2 -2 -2 -2 -3 -3 -4 -4 -4 -4 -4 -4 -5 -6 -5 -6 -7 -7 -7 -7 -6 -6 -8 -8 -8 -8 -8 -8 -8 -8 -7 -8 -8 -7
-3 -3 -3 -3 -3 -3 -3 -3 -3 -3 -2 -2 -2 -2 -3 -3 -3 -4 -4 -4 -4 -4 -4 -4 -5 -5 -6 -6 -7 -6 -7 -7 -6 -5 -7 -8 -8 -8 -8 -8 -8 -7 -8 -8 -7
-2 -2 -2 -2 -2 -2 -2 -2 -2 -2 -2 -3 -3 -3 -3 -3 -3 -3 -4 -4 -4 -5 -5 -4 -5 -5 -5 -6 -6 -5 -6 -6 -7 -6 -6 -8 -8 -8 -8 -8 -8 -8 -8 -8 -7
-4 -4 -4 -4 -4 -4 -4 -3 -3 -2 -2 -2 -2 -2 -3 -3 -3 -3 -3 -4 -4 -5 -5 -5 -5 -4 -5 -5 -6 -5 -4 -5 -5 -6 -7 -7 -7 -8 -8 -8 -8 -8 -8 -7 -8
-4 -4 -4 -4 -4 -4 -4 -4 -4 -4 -4 -4 -4 -3 -3 -5 -4 -4 -3 -4 -5 -5 -5 -5 -4 -5 -5 -5 -5 -4 -4 -4 -6 -7 -7 -8 -7 -8 -8 -8 -7 -8 -7 -8 -8
-4 -4 -4 -4 -5 -5 -4 -4 -4 -5 -4 -5 -4 -4 -4 -5 -5 -5 -5 -5 -5 -4 -5 -5 -4 -4 -4 -5 -5 -5 -5 -5 -6 -7 -7 -8 -7 -8 -8 -7 -7 -7 -7 -7 -7
-4 -4 -4 -4 -5 -5 -4 -4 -4 -4 -5 -5 -4 -4 -4 -5 -5 -5 -5 -6 -6 -5 -5 -5 -4 -4 -4 -4 -4 -5 -5 -5 -6 -6 -7 -8 -6 -7 -7 -7 -7 -7 -7 -7 -7
-4 -4 -4 -4 -5 -5 -4 -4 -4 -4 -4 -5 -4 -4 -4 -5 -4 -5 -5 -5 -6 -7 -6 -5 -5 -5 -5 -5 -5 -6 -5 -6 -6 -7 -7 -8 -7 -7 -7 -7 -7 -7 -7 -7 -7
-4 -4 -4 -4 -4 -4 -4 -4 -4 -4 -5 -5 -4 -3 -4 -4 -3 -4 -4 -5 -5 -7 -7 -7 -5 -5 -6 -7 -7 -6 -5 -6 -7 -7 -7 -7 -7 -6 -7 -7 -8 -7 -7 -7 -7
-4 -5 -5 -4 -4 -4 -5 -4 -4 -4 -6 -4 -4 -4 -4 -4 -3 -4 -4 -4 -4 -6 -8 -7 -4 -7 -8 -7 -7 -7 -6 -6 -7 -7 -6 -7 -7 -7 -8 -7 -7 -7 -8 -7 -7
-4 -4 -5 -4 -5 -5 -5 -5 -4 -4 -4 -4 -4 -4 -4 -4 -4 -5 -4 -4 -4 -5 -7 -7 -7 -9 -8 -8 -8 -7 -7 -7 -7 -7 -7 -6 -6 -7 -8 -8 -7 -7 -7 -7 -7
-4 -5 -5 -5 -5 -5 -5 -5 -5 -5 -5 -5 -4 -4 -4 -4 -5 -5 -6 -5 -5 -5 -8 -8 -9 -10 -9 -8 -9 -8 -8 -8 -8 -8 -7 -7 -6 -6 -7 -7 -7 -7 -7 -7 -7
-5 -5 -5 -5 -5 -5 -5 -5 -5 -5 -5 -5 -5 -5 -5 -5 -5 -6 -7 -6 -6 -7 -9 -8 -10 -10 -10 -9 -9 -8 -9 -9 -9 -9 -9 -7 -6 -5 -7 -7 -7 -6 -7 -7 -6
-5 -5 -5 -5 -6 -5 -5 -5 -5 -5 -5 -6 -5 -6 -6 -6 -6 -6 -8 -8 -7 -9 -10 -10 -11 -10 -10 -10 -9 -9 -9 -9 -9 -9 -9 -8 -8 -5 -6 -6 -7 -7 -7 -7 -6
-6 -6 -6 -6 -6 -6 -6 -6 -6 -6 -6 -6 -7 -7 -7 -7 -7 -8 -10 -11 -10 -10 -10 -10 -11 -11 -10 -10 -10 -10 -10 -9 -9 -10 -9 -9 -8 -5 -6 -7 -6 -6 -7 -7 -6
-6 -6 -6 -6 -6 -6 -6 -6 -6 -6 -7 -7 -7 -8 -9 -8 -9 -11 -12 -12 -12 -11 -12 -12 -12 -11 -11 -10 -10 -10 -10 -10 -10 -9 -9 -9 -7 -6 -7 -7 -6 -5 -6 -7 -6
-7 -6 -6 -6 -7 -6 -7 -7 -7 -7 -7 -7 -8 -8 -10 -11 -11 -12 -12 -12 -12 -12 -12 -12 -12 -11 -11 -11 -10 -10 -10 -10 -10 -10 -10 -9 -8 -8 -7 -7 -7 -7 -6 -7 -7
-7 -6 -7 -7 -7 -7 -7 -7 -8 -8 -8 -8 -8 -9 -11 -12 -12 -13 -12 -12 -12 -12 -12 -12 -12 -12 -12 -11 -11 -11 -11 -11 -11 -12 -10 -10 -9 -7 -8 -7 -7 -7 -7 -7 -7
-7 -7 -7 -7 -7 -7 -8 -8 -9 -8 -8 -9 -9 -10 -11 -12 -13 -14 -13 -13 -13 -13 -13 -12 -12 -11 -11 -11 -11 -11 -11 -12 -12 -12 -11 -9 -9 -8 -8 -8 -7 -6 -7 -7 -7
-8 -8 -8 -8 -8 -8 -8 -9 -9 -9 -9 -9 -10 -11 -13 -13 -13 -13 -13 -13 -14 -13 -13 -12 -12 -12 -11 -11 -11 -11 -11 -11 -13 -10 -10 -10 -8 -9 -9 -9 -7 -7 -7 -8 -8
-8 -8 -8 -8 -8 -9 -9 -9 -10 -10 -10 -10 -12 -13 -13 -13 -13 -13 -13 -14 -14 -14 -13 -13 -13 -11 -11 -11 -10 -11 -11 -11 -12 -12 -11 -10 -8 -9 -9 -9 -9 -8 -8 -8 -8
-8 -8 -8 -9 -9 -9 -10 -10 -10 -11 -11 -11 -13 -14 -14 -14 -13 -13 -13 -14 -14 -14 -13 -13 -12 -12 -12 -11 -11 -12 -11 -11 -11 -11 -11 -10 -10 -9 -9 -9 -9 -9 -9 -9 -9
-9 -9 -9 -10 -10 -10 -10 -10 -11 -11 -11 -12 -13 -14 -14 -14 -14 -13 -13 -13 -14 -14 -14 -13 -12 -13 -13 -12 -12 -12 -12 -11 -11 -11 -10 -10 -10 -9 -9 -8 -9 -9 -9 -9 -9
-10 -10 -10 -10 -10 -11 -10 -11 -11 -12 -13 -14 -13 -14 -15 -14 -14 -13 -13 -13 -13 -14 -14 -14 -13 -13 -12 -12 -13 -12 -12 -11 -10 -10 -11 -11 -10 -10 -9 -9 -9 -9 -9 -9 -9
-10 -10 -10 -11 -11 -11 -12 -12 -12 -12 -13 -13 -15 -15 -15 -15 -15 -14 -14 -14 -14 -14 -14 -14 -14 -13 -13 -12 -12 -12 -12 -12 -12 -11 -11 -11 -10 -11 -10 -10 -10 -10 -10 -10 -9

GFSSW_500_temp_084.txt.gz
Temp
-3 -3 -2 -2 -2 -2 -2 -2 -2 -2 -2 -3 -3 -3 -3 -4 -4 -4 -4 -4 -5 -5 -5 -5 -6 -6 -7 -7 -7 -7 -7 -8 -7 -5 -6 -8 -8 -8 -8 -8 -8 -8 -8 -8 -8
-3 -3 -3 -2 -2 -2 -2 -2 -2 -2 -3 -3 -3 -3 -3 -3 -4 -4 -4 -4 -4 -5 -5 -6 -6 -5 -6 -6 -6 -7 -7 -7 -7 -6 -6 -5 -8 -8 -8 -8 -8 -8 -8 -8 -7
-2 -2 -2 -2 -2 -2 -2 -2 -2 -2 -2 -2 -3 -3 -3 -3 -4 -4 -4 -4 -4 -4 -5 -5 -6 -6 -6 -6 -6 -7 -7 -7 -7 -6 -6 -7 -7 -8 -8 -8 -8 -8 -8 -8 -8
-2 -2 -2 -2 -2 -2 -2 -2 -2 -2 -2 -2 -2 -2 -3 -3 -3 -4 -4 -4 -4 -4 -4 -4 -5 -5 -6 -6 -7 -7 -7 -7 -6 -7 -7 -7 -8 -8 -8 -8 -8 -8 -8 -8 -8
-3 -3 -3 -3 -3 -3 -3 -3 -3 -3 -3 -3 -3 -3 -3 -3 -4 -3 -4 -4 -4 -4 -4 -4 -4 -5 -5 -6 -6 -6 -6 -7 -6 -6 -7 -7 -8 -8 -8 -8 -8 -8 -8 -8 -8
-4 -4 -4 -4 -4 -3 -3 -4 -4 -4 -4 -4 -4 -4 -5 -5 -5 -5 -5 -5 -5 -5 -4 -4 -4 -4 -4 -5 -5 -5 -5 -6 -6 -7 -7 -7 -8 -8 -8 -8 -8 -8 -8 -8 -8
-4 -4 -4 -4 -4 -4 -4 -4 -4 -4 -5 -5 -5 -5 -5 -6 -5 -5 -5 -6 -6 -6 -6 -5 -4 -4 -4 -4 -4 -4 -4 -5 -5 -6 -7 -7 -7 -8 -8 -8 -8 -8 -8 -8 -8
-4 -4 -4 -4 -4 -4 -4 -4 -4 -4 -4 -4 -4 -4 -6 -5 -5 -5 -4 -4 -4 -5 -6 -5 -5 -5 -5 -5 -5 -4 -4 -5 -6 -7 -7 -8 -7 -7 -8 -8 -8 -8 -8 -8 -8
-4 -4 -4 -4 -4 -4 -4 -4 -4 -4 -4 -4 -4 -4 -5 -4 -4 -4 -4 -5 -5 -6 -6 -5 -5 -5 -5 -5 -6 -5 -5 -5 -6 -6 -7 -7 -7 -7 -8 -8 -8 -8 -8 -8 -8
-4 -4 -4 -4 -4 -4 -4 -4 -4 -5 -5 -4 -4 -4 -4 -3 -3 -4 -4 -4 -4 -4 -5 -5 -5 -5 -6 -6 -6 -6 -6 -6 -6 -7 -6 -6 -7 -6 -8 -8 -7 -8 -8 -8 -8
-4 -4 -4 -4 -4 -4 -4 -4 -5 -5 -5 -4 -4 -4 -4 -4 -4 -5 -4 -4 -4 -4 -4 -5 -5 -5 -7 -7 -7 -7 -6 -5 -6 -7 -6 -6 -6 -7 -7 -7 -7 -8 -8 -8 -8
-4 -4 -4 -4 -4 -4 -5 -5 -5 -5 -5 -4 -4 -4 -4 -4 -4 -5 -4 -4 -4 -4 -5 -4 -4 -6 -8 -8 -8 -8 -7 -6 -7 -8 -8 -7 -6 -8 -7 -6 -6 -7 -8 -8 -8
-5 -5 -5 -4 -4 -4 -4 -4 -4 -5 -5 -4 -4 -4 -4 -4 -4 -5 -5 -4 -4 -4 -5 -5 -5 -8 -8 -9 -9 -9 -8 -8 -7 -8 -8 -8 -7 -7 -7 -8 -6 -6 -7 -7 -7
-5 -5 -5 -4 -4 -4 -4 -4 -4 -4 -4 -4 -4 -4 -4 -5 -5 -5 -5 -5 -5 -5 -6 -6 -6 -8 -9 -9 -10 -9 -10 -9 -8 -8 -8 -9 -6 -7 -7 -8 -7 -6 -7 -7 -7
-5 -5 -5 -5 -5 -5 -5 -5 -5 -5 -5 -5 -5 -5 -5 -5 -5 -6 -5 -6 -6 -6 -7 -6 -7 -9 -9 -10 -10 -9 -10 -10 -9 -9 -8 -8 -8 -7 -8 -7 -8 -7 -6 -7 -6
-5 -5 -5 -5 -5 -5 -5 -5 -5 -5 -5 -5 -5 -5 -5 -5 -6 -6 -6 -7 -7 -7 -7 -7 -8 -9 -10 -10 -11 -10 -10 -10 -10 -10 -9 -8 -8 -7 -7 -7 -7 -7 -6 -7 -7
-5 -5 -6 -5 -6 -6 -6 -6 -6 -6 -6 -6 -6 -6 -6 -6 -7 -7 -7 -7 -8 -8 -8 -9 -9 -10 -10 -11 -11 -11 -10 -10 -10 -10 -10 -9 -8 -7 -7 -7 -7 -6 -7 -7 -7
-6 -6 -6 -6 -6 -6 -6 -6 -6 -6 -6 -6 -6 -7 -8 -7 -8 -8 -9 -9 -10 -10 -10 -10 -10 -10 -11 -12 -11 -11 -11 -10 -10 -10 -10 -10 -9 -8 -7 -8 -8 -7 -7 -7 -6
-6 -6 -6 -7 -7 -7 -7 -7 -7 -7 -7 -7 -8 -8 -8 -8 -8 -9 -11 -12 -13 -13 -12 -12 -11 -11 -12 -12 -12 -11 -11 -11 -11 -10 -10 -10 -10 -9 -8 -8 -8 -8 -8 -7 -6
-7 -7 -7 -7 -7 -7 -7 -7 -7 -7 -7 -8 -8 -8 -9 -9 -9 -10 -13 -13 -13 -13 -13 -12 -12 -12 -12 -12 -12 -12 -12 -12 -12 -12 -11 -10 -9 -9 -8 -8 -8 -8 -8 -8 -7
-7 -7 -7 -7 -7 -8 -8 -8 -8 -8 -8 -9 -9 -9 -9 -9 -11 -12 -13 -14 -14 -14 -14 -12 -12 -12 -12 -12 -12 -12 -12 -12 -13 -12 -12 -10 -9 -9 -8 -9 -8 -8 -8 -7 -7
-8 -8 -8 -8 -8 -8 -8 -8 -9 -9 -9 -9 -9 -9 -10 -10 -12 -13 -14 -14 -14 -14 -13 -13 -13 -12 -12 -12 -12 -12 -13 -13 -13 -13 -12 -11 -8 -10 -9 -9 -8 -8 -8 -8 -7
-8 -8 -8 -8 -8 -8 -8 -9 -10 -10 -10 -10 -10 -10 -11 -11 -13 -13 -14 -15 -14 -14 -13 -13 -13 -12 -12 -12 -12 -12 -11 -11 -12 -12 -12 -11 -9 -10 -9 -9 -8 -9 -9 -8 -8
-9 -9 -8 -8 -9 -9 -9 -10 -10 -10 -11 -10 -11 -12 -13 -13 -14 -13 -14 -14 -15 -15 -14 -14 -14 -13 -13 -13 -13 -13 -12 -12 -11 -12 -11 -11 -9 -10 -9 -9 -8 -9 -9 -9 -8
-9 -9 -9 -9 -9 -9 -10 -10 -11 -11 -11 -11 -11 -12 -13 -14 -15 -15 -14 -14 -14 -15 -15 -15 -15 -14 -13 -14 -13 -12 -11 -11 -12 -11 -11 -11 -10 -10 -10 -9 -9 -9 -9 -9 -9
-10 -10 -9 -9 -9 -10 -10 -11 -11 -12 -12 -12 -12 -13 -14 -13 -13 -13 -13 -13 -13 -14 -14 -14 -14 -14 -14 -14 -13 -13 -13 -12 -11 -12 -11 -11 -11 -10 -10 -9 -9 -9 -9 -9 -9
-10 -10 -10 -10 -10 -10 -11 -11 -11 -12 -12 -12 -12 -13 -14 -14 -14 -14 -14 -14 -14 -13 -14 -14 -14 -14 -14 -13 -13 -13 -13 -12 -11 -12 -12 -11 -10 -10 -10 -10 -9 -10 -10 -9 -9

GFSSW_500_temp_090.txt.gz
Temp
-3 -3 -3 -2 -2 -2 -2 -2 -2 -3 -3 -3 -3 -3 -3 -3 -3 -3 -3 -4 -4 -4 -4 -4 -4 -5 -6 -6 -7 -7 -7 -7 -7 -6 -6 -7 -7 -7 -7 -8 -8 -8 -8 -8 -8
-2 -2 -2 -2 -2 -2 -2 -2 -3 -3 -3 -3 -3 -3 -3 -3 -4 -4 -4 -3 -3 -4 -4 -4 -4 -4 -5 -6 -7 -7 -7 -8 -7 -7 -7 -7 -7 -7 -7 -8 -8 -8 -8 -8 -8
-2 -2 -2 -2 -2 -2 -2 -3 -3 -3 -3 -3 -4 -4 -4 -4 -4 -4 -4 -4 -4 -4 -4 -4 -5 -5 -5 -5 -6 -6 -7 -7 -7 -8 -7 -7 -7 -7 -7 -7 -8 -8 -8 -8 -8
-2 -2 -2 -2 -3 -3 -3 -3 -3 -3 -3 -3 -4 -4 -4 -4 -4 -4 -4 -5 -4 -4 -4 -4 -5 -5 -5 -5 -5 -5 -6 -6 -7 -6 -7 -7 -7 -7 -7 -7 -7 -8 -8 -8 -8
-3 -3 -3 -3 -3 -4 -3 -3 -3 -3 -4 -4 -4 -4 -4 -4 -4 -3 -4 -4 -4 -4 -4 -4 -4 -4 -4 -5 -5 -5 -6 -6 -7 -6 -7 -7 -8 -8 -7 -7 -7 -7 -8 -8 -8
-3 -4 -4 -3 -3 -4 -4 -3 -3 -4 -4 -4 -4 -4 -4 -4 -4 -4 -4 -4 -5 -5 -5 -5 -5 -5 -5 -5 -5 -5 -5 -6 -6 -7 -7 -8 -8 -8 -7 -7 -7 -7 -8 -8 -8
-4 -4 -4 -4 -4 -4 -4 -4 -4 -4 -4 -4 -4 -4 -4 -4 -4 -4 -4 -4 -4 -4 -5 -5 -5 -5 -5 -5 -5 -5 -6 -6 -6 -6 -6 -6 -7 -8 -8 -6 -7 -8 -8 -8 -8
-4 -4 -4 -4 -4 -4 -4 -4 -4 -4 -4 -4 -4 -4 -4 -4 -4 -4 -4 -4 -4 -4 -4 -5 -4 -4 -5 -6 -6 -6 -6 -7 -7 -7 -6 -5 -5 -7 -7 -7 -7 -7 -7 -8 -8
-4 -4 -4 -4 -4 -4 -4 -4 -4 -4 -4 -4 -4 -4 -4 -4 -4 -4 -4 -4 -4 -4 -4 -5 -5 -5 -4 -5 -6 -6 -6 -8 -8 -7 -7 -6 -6 -6 -6 -6 -6 -7 -7 -8 -8
-4 -4 -4 -4 -4 -4 -4 -4 -4 -4 -4 -4 -4 -4 -4 -4 -4 -4 -4 -4 -4 -4 -4 -4 -5 -4 -5 -5 -5 -7 -9 -9 -7 -8 -7 -7 -6 -5 -7 -6 -5 -7 -7 -7 -8
-4 -4 -4 -4 -4 -4 -4 -4 -4 -4 -4 -4 -4 -4 -4 -4 -4 -4 -4 -4 -5 -5 -5 -4 -5 -5 -5 -5 -6 -7 -7 -7 -7 -7 -7 -7 -6 -6 -6 -6 -6 -6 -6 -7 -7
-4 -4 -4 -4 -4 -4 -4 -4 -4 -4 -4 -4 -4 -4 -4 -4 -4 -5 -5 -5 -5 -5 -5 -5 -5 -5 -5 -6 -6 -7 -7 -7 -7 -8 -8 -7 -7 -7 -7 -7 -6 -7 -7 -7 -7
-5 -4 -4 -4 -4 -4 -4 -4 -4 -4 -4 -4 -4 -4 -4 -4 -4 -4 -5 -5 -5 -5 -5 -5 -6 -6 -6 -6 -6 -7 -8 -8 -8 -9 -8 -8 -7 -8 -7 -7 -8 -7 -8 -7 -8
-5 -5 -4 -4 -4 -4 -4 -5 -5 -5 -5 -4 -4 -4 -4 -4 -4 -4 -4 -4 -5 -5 -5 -5 -6 -6 -6 -7 -7 -7 -8 -9 -9 -10 -10 -10 -9 -8 -8 -8 -8 -8 -8 -8 -8
-5 -5 -5 -5 -5 -5 -5 -5 -5 -5 -5 -5 -5 -4 -4 -4 -5 -4 -4 -5 -5 -5 -5 -6 -5 -6 -7 -7 -8 -7 -9 -10 -10 -10 -10 -10 -10 -9 -9 -8 -9 -9 -9 -8 -8
-5 -5 -5 -5 -5 -5 -5 -5 -5 -5 -5 -5 -5 -5 -5 -5 -5 -5 -5 -5 -5 -5 -6 -6 -6 -7 -7 -7 -8 -9 -9 -10 -10 -11 -11 -10 -10 -10 -9 -9 -9 -9 -9 -8 -8
-6 -6 -6 -6 -5 -5 -5 -5 -5 -5 -5 -5 -5 -5 -5 -5 -5 -5 -6 -6 -6 -6 -7 -7 -7 -8 -8 -9 -10 -11 -11 -12 -11 -11 -10 -10 -10 -10 -10 -10 -9 -9 -9 -9 -8
-6 -6 -6 -6 -6 -6 -6 -5 -5 -5 -5 -5 -6 -6 -6 -6 -6 -6 -6 -7 -6 -7 -7 -7 -7 -9 -10 -11 -12 -12 -12 -12 -11 -10 -10 -10 -11 -10 -11 -10 -10 -9 -9 -9 -8
-7 -6 -6 -6 -6 -6 -6 -6 -6 -6 -6 -6 -6 -6 -6 -6 -7 -7 -7 -8 -7 -7 -8 -8 -8 -10 -12 -12 -12 -12 -13 -12 -12 -11 -11 -11 -11 -11 -11 -11 -10 -10 -9 -9 -9
-7 -7 -7 -7 -6 -6 -6 -6 -6 -6 -6 -6 -6 -7 -7 -7 -7 -8 -8 -8 -8 -8 -9 -9 -9 -12 -13 -13 -12 -12 -13 -12 -12 -12 -12 -11 -11 -10 -11 -11 -10 -10 -10 -9 -9
-7 -7 -7 -7 -7 -7 -7 -7 -7 -7 -7 -7 -7 -7 -7 -8 -8 -9 -9 -9 -9 -10 -10 -10 -11 -12 -13 -13 -13 -13 -13 -13 -12 -13 -13 -12 -11 -11 -11 -11 -10 -10 -10 -10 -9
-7 -7 -7 -7 -7 -7 -7 -7 -7 -7 -7 -7 -7 -8 -8 -8 -9 -9 -10 -10 -10 -10 -11 -12 -12 -13 -14 -14 -13 -14 -13 -13 -12 -12 -12 -11 -11 -11 -11 -10 -10 -10 -10 -10 -9
-8 -8 -8 -8 -8 -8 -8 -8 -8 -8 -8 -8 -8 -8 -9 -9 -9 -10 -10 -11 -11 -11 -12 -12 -13 -13 -14 -13 -12 -13 -13 -13 -13 -13 -13 -12 -11 -12 -11 -11 -10 -10 -10 -10 -9
-9 -9 -9 -9 -9 -9 -9 -9 -9 -9 -8 -8 -9 -9 -9 -10 -10 -10 -10 -11 -12 -12 -13 -13 -13 -13 -14 -14 -13 -13 -14 -14 -14 -13 -12 -11 -11 -12 -12 -11 -11 -11 -10 -10 -10
-10 -10 -10 -9 -9 -9 -9 -9 -9 -9 -9 -9 -9 -10 -10 -10 -10 -11 -11 -11 -12 -13 -13 -13 -13 -13 -13 -13 -13 -14 -13 -14 -14 -13 -13 -12 -13 -11 -11 -11 -11 -11 -11 -10 -10
-11 -10 -10 -10 -10 -10 -10 -10 -10 -10 -10 -10 -10 -10 -11 -11 -11 -11 -11 -12 -12 -14 -13 -13 -13 -13 -13 -13 -14 -15 -14 -13 -13 -13 -13 -14 -12 -12 -11 -11 -11 -11 -11 -10 -10
-11 -11 -11 -10 -10 -10 -10 -10 -11 -11 -10 -10 -11 -11 -11 -11 -11 -11 -11 -12 -12 -13 -13 -13 -13 -13 -13 -15 -15 -13 -14 -14 -13 -13 -13 -13 -13 -12 -12 -12 -11 -11 -12 -11 -10

GFSSW_500_temp_093.txt.gz
Temp
-3 -2 -2 -2 -2 -2 -2 -2 -2 -2 -2 -2 -2 -3 -3 -3 -3 -3 -3 -3 -3 -4 -4 -4 -4 -5 -6 -6 -6 -6 -6 -7 -6 -6 -7 -7 -7 -8 -7 -8 -7 -7 -8 -8 -8
-2 -2 -2 -2 -2 -2 -2 -2 -2 -2 -3 -3 -3 -3 -4 -4 -4 -4 -4 -4 -4 -4 -4 -4 -4 -4 -5 -6 -7 -7 -8 -7 -6 -7 -7 -7 -8 -8 -8 -7 -7 -7 -7 -8 -8
-2 -2 -2 -2 -2 -2 -2 -2 -2 -2 -3 -3 -3 -3 -3 -3 -4 -3 -4 -4 -4 -4 -4 -4 -4 -4 -5 -5 -6 -7 -7 -8 -8 -8 -8 -7 -8 -8 -7 -7 -7 -7 -7 -7 -8
-2 -2 -2 -2 -2 -2 -3 -3 -3 -3 -3 -3 -3 -4 -4 -4 -3 -4 -4 -4 -4 -4 -4 -4 -4 -5 -5 -5 -5 -5 -6 -7 -7 -8 -8 -8 -7 -7 -7 -8 -8 -8 -7 -7 -7
-2 -2 -2 -3 -3 -3 -3 -3 -3 -3 -3 -3 -4 -4 -4 -3 -4 -4 -4 -4 -4 -5 -5 -5 -5 -5 -5 -6 -6 -6 -6 -6 -6 -7 -7 -7 -8 -8 -7 -8 -8 -7 -7 -7 -8
-3 -3 -4 -3 -3 -3 -3 -4 -4 -3 -4 -4 -4 -4 -4 -4 -4 -4 -4 -4 -4 -4 -5 -5 -5 -5 -6 -6 -6 -6 -6 -5 -6 -6 -6 -6 -6 -8 -7 -8 -8 -7 -7 -7 -8
-4 -4 -4 -4 -4 -4 -4 -4 -4 -4 -4 -4 -4 -4 -4 -4 -4 -4 -4 -4 -4 -4 -4 -4 -5 -5 -6 -5 -6 -6 -6 -6 -6 -6 -6 -6 -6 -6 -7 -8 -8 -6 -7 -7 -7
-4 -4 -4 -4 -3 -4 -4 -4 -3 -4 -4 -4 -4 -4 -4 -4 -4 -4 -4 -4 -4 -4 -4 -4 -4 -4 -5 -5 -5 -5 -5 -5 -8 -8 -8 -6 -5 -7 -8 -8 -8 -7 -6 -7 -8
-4 -4 -4 -4 -4 -3 -3 -3 -3 -4 -4 -4 -4 -4 -4 -4 -4 -4 -4 -4 -4 -4 -4 -4 -4 -4 -4 -4 -4 -5 -5 -8 -8 -8 -8 -7 -6 -6 -7 -8 -7 -6 -7 -6 -7
-4 -4 -4 -4 -4 -4 -3 -3 -3 -4 -4 -4 -4 -4 -4 -4 -4 -4 -4 -4 -4 -4 -4 -4 -4 -4 -4 -5 -4 -6 -8 -7 -7 -7 -8 -8 -8 -8 -8 -8 -7 -7 -6 -6 -7
-4 -4 -4 -4 -4 -4 -4 -4 -4 -4 -4 -4 -4 -4 -4 -4 -4 -4 -4 -4 -4 -4 -4 -4 -5 -5 -5 -5 -5 -5 -5 -6 -6 -8 -9 -8 -8 -7 -8 -7 -7 -8 -6 -6 -6
-4 -4 -4 -4 -4 -4 -4 -4 -4 -4 -4 -4 -4 -4 -4 -4 -4 -4 -4 -4 -4 -4 -4 -5 -5 -5 -5 -5 -5 -6 -6 -5 -6 -8 -9 -9 -9 -8 -8 -8 -7 -8 -8 -6 -6
-4 -4 -4 -4 -4 -4 -4 -4 -4 -4 -4 -4 -4 -4 -4 -4 -4 -4 -4 -4 -4 -5 -5 -5 -6 -6 -6 -6 -6 -6 -6 -6 -6 -7 -9 -9 -9 -9 -8 -8 -9 -8 -8 -8 -6
-5 -5 -5 -4 -4 -4 -4 -4 -4 -5 -5 -4 -4 -4 -5 -4 -4 -4 -4 -4 -4 -4 -5 -5 -6 -6 -6 -6 -6 -6 -7 -7 -8 -9 -9 -9 -8 -8 -9 -9 -9 -8 -8 -8 -7
-5 -5 -5 -5 -5 -5 -5 -5 -5 -5 -5 -5 -5 -5 -5 -5 -5 -4 -4 -4 -4 -5 -5 -5 -6 -6 -6 -6 -6 -6 -7 -8 -8 -9 -9 -9 -9 -8 -9 -9 -9 -9 -8 -8 -8
-5 -5 -5 -5 -6 -5 -5 -5 -5 -5 -5 -5 -5 -5 -5 -4 -4 -5 -4 -4 -4 -5 -5 -5 -6 -6 -5 -6 -6 -7 -7 -8 -9 -10 -9 -10 -10 -9 -8 -8 -8 -8 -8 -8 -8
-6 -6 -6 -6 -6 -6 -6 -6 -6 -6 -5 -5 -5 -5 -5 -5 -5 -5 -5 -5 -5 -6 -6 -7 -9 -9 -7 -7 -8 -9 -11 -10 -10 -10 -9 -9 -9 -9 -9 -9 -9 -9 -9 -8 -8
-6 -6 -6 -6 -6 -6 -6 -6 -6 -6 -6 -5 -5 -5 -5 -5 -5 -5 -6 -6 -6 -6 -6 -7 -7 -10 -9 -10 -10 -11 -11 -11 -10 -9 -9 -9 -10 -9 -9 -10 -10 -9 -9 -9 -9
-7 -7 -7 -7 -7 -7 -6 -7 -6 -6 -6 -6 -6 -6 -6 -5 -6 -6 -6 -7 -7 -7 -7 -8 -7 -8 -9 -12 -12 -11 -11 -11 -11 -10 -10 -9 -9 -10 -10 -10 -10 -10 -10 -9 -9
-7 -7 -7 -7 -7 -7 -7 -7 -6 -6 -6 -6 -6 -6 -7 -6 -7 -7 -7 -7 -7 -7 -8 -8 -8 -8 -9 -11 -12 -11 -11 -11 -11 -11 -11 -10 -10 -10 -11 -11 -11 -10 -10 -10 -9
-7 -7 -7 -7 -7 -7 -7 -7 -7 -6 -7 -7 -7 -7 -7 -7 -7 -8 -8 -8 -8 -8 -8 -9 -9 -9 -10 -12 -12 -12 -11 -12 -12 -11 -11 -11 -10 -10 -11 -11 -11 -10 -11 -10 -10
-8 -7 -8 -7 -7 -7 -7 -7 -7 -7 -7 -7 -7 -7 -7 -8 -8 -8 -9 -9 -9 -9 -9 -9 -10 -10 -10 -12 -13 -12 -13 -12 -12 -12 -11 -12 -11 -12 -10 -12 -11 -12 -11 -10 -10
-8 -8 -8 -8 -8 -8 -7 -8 -8 -8 -8 -8 -8 -8 -8 -8 -8 -9 -9 -9 -9 -9 -9 -10 -10 -11 -11 -12 -12 -12 -13 -13 -12 -13 -11 -12 -9 -12 -11 -10 -11 -11 -10 -10 -10
-9 -9 -8 -9 -9 -9 -8 -8 -8 -8 -8 -8 -8 -8 -9 -9 -9 -9 -10 -10 -10 -10 -10 -10 -11 -11 -12 -12 -13 -13 -13 -13 -13 -12 -12 -12 -11 -12 -12 -11 -12 -11 -11 -10 -10
-9 -9 -10 -9 -9 -9 -9 -9 -9 -9 -8 -8 -9 -9 -9 -9 -9 -10 -10 -10 -10 -10 -10 -11 -11 -12 -12 -12 -12 -14 -13 -13 -13 -13 -12 -12 -12 -11 -12 -11 -12 -11 -11 -11 -11
-10 -10 -10 -10 -10 -10 -10 -10 -10 -9 -9 -9 -9 -10 -10 -10 -10 -10 -10 -11 -10 -11 -11 -11 -11 -12 -12 -12 -13 -13 -14 -13 -13 -13 -13 -13 -12 -11 -11 -12 -12 -12 -11 -11 -11
-11 -11 -10 -10 -10 -10 -10 -10 -10 -10 -10 -10 -10 -10 -11 -10 -11 -11 -11 -11 -11 -11 -12 -12 -12 -12 -12 -15 -14 -14 -13 -13 -13 -12 -13 -14 -11 -11 -11 -11 -11 -11 -11 -11 -11

GFSSW_500_temp_096.txt.gz
Temp
-2 -2 -2 -1 -1 -1 -1 -1 -1 -2 -2 -2 -3 -3 -3 -3 -3 -3 -3 -3 -3 -4 -4 -4 -4 -5 -5 -6 -5 -4 -4 -5 -5 -6 -6 -7 -7 -7 -7 -7 -6 -6 -6 -7 -6
-2 -2 -1 -1 -1 -1 -1 -1 -2 -2 -2 -2 -2 -3 -3 -3 -3 -3 -3 -3 -4 -4 -4 -4 -4 -5 -5 -5 -6 -5 -4 -4 -6 -6 -6 -7 -7 -7 -7 -7 -7 -6 -6 -7 -7
-1 -1 -1 -1 -1 -1 -1 -2 -2 -2 -2 -2 -3 -3 -3 -3 -3 -4 -4 -4 -4 -4 -4 -4 -4 -5 -5 -5 -6 -5 -5 -5 -5 -6 -7 -6 -7 -7 -7 -7 -7 -8 -6 -7 -7
-1 -1 -1 -1 -2 -2 -2 -3 -3 -3 -3 -3 -3 -3 -3 -3 -3 -3 -4 -4 -4 -5 -5 -5 -5 -5 -5 -5 -5 -6 -6 -6 -6 -4 -5 -6 -8 -8 -8 -8 -8 -8 -7 -7 -7
-1 -2 -2 -2 -3 -3 -3 -3 -3 -3 -3 -3 -3 -3 -3 -3 -3 -4 -4 -4 -4 -4 -4 -4 -5 -5 -5 -5 -6 -6 -6 -6 -5 -5 -5 -5 -7 -7 -7 -7 -8 -8 -8 -7 -7
-2 -2 -3 -3 -3 -3 -3 -3 -3 -3 -3 -3 -3 -3 -3 -3 -3 -4 -4 -4 -4 -4 -4 -4 -4 -4 -4 -5 -5 -6 -5 -5 -6 -5 -5 -5 -5 -7 -7 -7 -8 -8 -8 -7 -7
-3 -3 -4 -3 -3 -3 -3 -3 -3 -3 -3 -3 -3 -3 -3 -3 -3 -3 -4 -4 -4 -4 -4 -4 -4 -4 -4 -4 -5 -4 -4 -5 -5 -5 -6 -7 -7 -7 -7 -8 -7 -8 -8 -7 -7
-4 -4 -4 -3 -3 -3 -3 -3 -3 -3 -3 -3 -3 -3 -3 -3 -3 -3 -3 -3 -4 -4 -4 -4 -4 -4 -4 -4 -4 -4 -4 -4 -5 -7 -7 -7 -7 -7 -7 -7 -7 -7 -7 -7 -5
-4 -4 -4 -4 -3 -3 -3 -3 -3 -3 -3 -3 -3 -3 -4 -4 -3 -3 -3 -3 -4 -4 -4 -4 -4 -4 -4 -4 -4 -4 -4 -4 -6 -7 -7 -7 -7 -7 -7 -8 -7 -7 -8 -8 -7
-4 -4 -4 -4 -3 -3 -3 -3 -3 -3 -3 -3 -4 -4 -4 -4 -4 -3 -4 -4 -4 -4 -4 -4 -4 -4 -4 -4 -4 -4 -5 -6 -6 -7 -7 -7 -7 -8 -8 -8 -8 -8 -8 -7 -7
-4 -4 -4 -4 -4 -4 -4 -3 -3 -3 -3 -3 -4 -4 -4 -4 -4 -4 -4 -4 -4 -4 -4 -4 -4 -5 -5 -5 -5 -5 -5 -5 -5 -6 -6 -7 -8 -8 -8 -8 -8 -8 -8 -8 -7
-4 -4 -4 -4 -4 -4 -4 -4 -3 -3 -4 -4 -4 -4 -4 -4 -4 -4 -4 -4 -4 -4 -4 -4 -4 -5 -4 -5 -5 -5 -5 -5 -5 -5 -7 -7 -7 -8 -8 -8 -8 -8 -8 -8 -8
-4 -4 -4 -4 -4 -4 -4 -4 -4 -4 -4 -4 -4 -4 -4 -4 -4 -4 -4 -4 -4 -4 -4 -4 -5 -6 -6 -6 -6 -6 -6 -6 -6 -6 -6 -8 -6 -7 -8 -8 -8 -8 -8 -8 -8
-4 -4 -4 -4 -4 -4 -4 -4 -4 -4 -5 -4 -4 -4 -4 -4 -4 -5 -5 -5 -5 -5 -4 -5 -5 -5 -6 -6 -6 -6 -7 -7 -7 -7 -6 -8 -8 -8 -8 -8 -8 -8 -8 -8 -8
-5 -5 -5 -5 -5 -5 -5 -5 -5 -5 -5 -5 -5 -5 -5 -5 -5 -4 -5 -5 -5 -4 -4 -5 -5 -6 -6 -6 -6 -6 -6 -6 -6 -6 -6 -7 -9 -8 -8 -8 -8 -8 -8 -8 -8
-5 -5 -5 -5 -5 -5 -6 -6 -6 -6 -6 -5 -5 -5 -5 -5 -5 -5 -5 -4 -4 -4 -4 -5 -5 -6 -7 -6 -6 -6 -6 -6 -7 -9 -8 -8 -9 -9 -8 -8 -8 -8 -8 -8 -8
-6 -6 -6 -5 -6 -6 -6 -6 -6 -6 -6 -6 -6 -6 -6 -6 -6 -5 -5 -6 -5 -5 -5 -6 -8 -10 -8 -7 -8 -9 -9 -9 -9 -9 -9 -9 -9 -8 -9 -9 -8 -8 -10 -9 -8
-6 -6 -6 -6 -6 -6 -6 -6 -7 -7 -6 -6 -6 -6 -6 -6 -6 -5 -6 -6 -7 -5 -6 -6 -7 -8 -7 -8 -8 -10 -11 -11 -11 -10 -10 -9 -9 -9 -9 -9 -9 -10 -9 -9 -9
-7 -7 -7 -7 -7 -7 -7 -7 -7 -6 -6 -6 -7 -6 -7 -6 -6 -6 -6 -6 -7 -6 -6 -6 -6 -7 -8 -8 -9 -10 -11 -11 -11 -10 -10 -9 -9 -10 -10 -10 -11 -10 -10 -10 -10
-7 -6 -7 -7 -7 -7 -7 -7 -7 -6 -7 -7 -7 -7 -7 -8 -7 -7 -7 -8 -7 -6 -7 -7 -7 -7 -7 -8 -9 -11 -11 -11 -11 -11 -11 -9 -10 -10 -10 -10 -11 -9 -10 -9 -9
-7 -7 -7 -7 -7 -7 -7 -7 -7 -7 -7 -7 -7 -7 -7 -7 -7 -8 -8 -9 -7 -7 -7 -7 -7 -8 -8 -8 -9 -11 -11 -11 -11 -11 -12 -11 -10 -10 -11 -10 -10 -11 -10 -10 -10
-7 -7 -7 -7 -7 -8 -8 -7 -7 -7 -7 -7 -7 -8 -8 -8 -8 -8 -9 -10 -7 -8 -8 -8 -8 -8 -8 -9 -10 -12 -12 -11 -12 -12 -12 -11 -10 -11 -11 -11 -11 -10 -11 -9 -11
-8 -8 -7 -8 -8 -8 -8 -7 -8 -8 -8 -8 -8 -8 -8 -8 -8 -8 -9 -9 -9 -8 -8 -8 -8 -8 -9 -10 -12 -12 -12 -12 -12 -12 -11 -12 -10 -11 -11 -11 -10 -10 -11 -10 -11
-8 -9 -8 -8 -9 -8 -9 -8 -8 -8 -8 -8 -8 -9 -9 -9 -9 -9 -9 -9 -9 -9 -9 -9 -9 -9 -9 -10 -11 -11 -11 -12 -12 -11 -12 -11 -12 -12 -11 -12 -11 -9 -10 -10 -11
-9 -9 -9 -9 -9 -8 -9 -9 -9 -9 -9 -8 -9 -9 -9 -9 -9 -9 -9 -9 -10 -10 -9 -9 -9 -9 -9 -10 -11 -11 -11 -12 -13 -13 -13 -12 -12 -12 -12 -12 -12 -10 -10 -10 -11
-9 -9 -9 -10 -10 -9 -9 -9 -9 -10 -10 -10 -9 -10 -10 -10 -9 -9 -9 -10 -10 -10 -10 -10 -10 -10 -9 -10 -11 -12 -12 -13 -13 -13 -13 -13 -11 -11 -12 -11 -11 -11 -10 -10 -12
-10 -10 -10 -10 -10 -10 -10 -10 -10 -9 -10 -10 -10 -10 -10 -10 -10 -10 -10 -10 -11 -11 -11 -11 -10 -10 -10 -10 -11 -13 -12 -12 -13 -13 -12 -12 -12 -11 -11 -11 -10 -10 -11 -11 -11

GFSSW_500_temp_099.txt.gz
Temp
-2 -2 -1 -1 -1 -1 -1 -1 -2 -2 -2 -2 -2 -3 -3 -3 -3 -3 -3 -4 -4 -4 -4 -4 -4 -4 -4 -5 -5 -4 -6 -7 -6 -6 -7 -7 -7 -8 -7 -8 -7 -7 -6 -7 -7
-1 -1 -1 -1 -1 -1 -1 -1 -1 -2 -2 -2 -2 -3 -3 -3 -3 -4 -4 -4 -4 -4 -4 -4 -4 -4 -4 -5 -5 -4 -4 -6 -7 -7 -7 -6 -7 -7 -7 -8 -8 -8 -8 -7 -7
-1 -1 -1 -1 -1 -1 -1 -2 -2 -2 -2 -3 -3 -3 -3 -3 -3 -3 -3 -3 -4 -4 -4 -4 -4 -5 -5 -5 -5 -5 -4 -5 -6 -8 -9 -8 -7 -7 -7 -8 -8 -8 -8 -7 -7
-1 -1 -1 -1 -1 -2 -2 -2 -2 -2 -2 -3 -3 -3 -3 -3 -4 -4 -3 -3 -3 -3 -3 -3 -4 -4 -4 -4 -4 -4 -4 -4 -5 -6 -6 -6 -7 -7 -7 -8 -7 -6 -6 -6 -6
-1 -1 -1 -1 -2 -2 -3 -3 -3 -3 -3 -3 -3 -3 -3 -3 -3 -4 -4 -4 -3 -3 -3 -3 -3 -3 -4 -4 -4 -4 -4 -4 -4 -5 -5 -5 -5 -6 -6 -6 -7 -6 -7 -6 -6
-1 -2 -2 -2 -3 -3 -3 -3 -3 -3 -3 -3 -3 -3 -3 -3 -3 -3 -3 -4 -4 -4 -4 -3 -3 -3 -3 -3 -3 -4 -4 -4 -4 -4 -4 -5 -5 -6 -7 -8 -8 -7 -7 -8 -6
-2 -2 -3 -3 -3 -3 -3 -3 -3 -3 -3 -3 -3 -3 -3 -3 -2 -3 -3 -3 -4 -4 -4 -4 -4 -4 -4 -4 -4 -4 -4 -4 -4 -5 -5 -5 -5 -7 -8 -7 -8 -8 -7 -7 -7
-3 -3 -3 -3 -3 -3 -3 -3 -3 -3 -3 -3 -3 -3 -3 -3 -3 -3 -3 -3 -3 -3 -4 -4 -4 -4 -4 -4 -4 -4 -4 -4 -4 -4 -6 -7 -7 -7 -7 -7 -7 -8 -8 -8 -7
-4 -4 -4 -4 -3 -3 -3 -3 -3 -3 -3 -3 -3 -3 -3 -3 -3 -3 -3 -3 -3 -4 -4 -4 -4 -4 -4 -4 -4 -5 -4 -4 -4 -5 -7 -7 -7 -7 -7 -7 -7 -8 -8 -8 -7
-4 -4 -4 -4 -4 -3 -3 -3 -3 -3 -3 -3 -3 -3 -4 -4 -4 -4 -3 -3 -3 -4 -4 -4 -4 -4 -4 -4 -5 -5 -5 -4 -5 -5 -6 -7 -7 -7 -7 -8 -8 -8 -7 -8 -8
-4 -4 -4 -4 -4 -3 -3 -3 -3 -3 -3 -3 -3 -4 -3 -4 -4 -4 -4 -4 -4 -4 -4 -4 -4 -4 -4 -4 -4 -4 -5 -5 -5 -5 -5 -5 -7 -7 -7 -8 -8 -8 -8 -8 -8
-4 -4 -4 -4 -4 -4 -4 -4 -4 -3 -4 -4 -4 -4 -4 -4 -4 -4 -4 -4 -4 -4 -4 -4 -5 -4 -4 -4 -5 -5 -5 -5 -5 -7 -7 -6 -6 -6 -7 -7 -7 -8 -7 -8 -8
-4 -4 -4 -4 -4 -4 -4 -4 -4 -4 -4 -4 -4 -4 -4 -4 -4 -4 -4 -4 -4 -4 -4 -4 -4 -4 -5 -6 -6 -6 -6 -6 -6 -6 -7 -6 -6 -7 -7 -8 -8 -8 -8 -8 -8
-4 -4 -4 -4 -4 -4 -4 -4 -4 -4 -4 -4 -5 -5 -5 -5 -5 -5 -5 -5 -5 -5 -5 -5 -5 -5 -5 -6 -6 -5 -6 -6 -6 -6 -7 -7 -5 -6 -7 -8 -8 -8 -8 -8 -8
-5 -5 -5 -5 -5 -5 -5 -5 -5 -5 -5 -5 -4 -5 -5 -5 -5 -5 -5 -5 -5 -5 -5 -5 -5 -5 -6 -5 -5 -6 -6 -6 -6 -6 -6 -7 -8 -7 -8 -9 -8 -9 -8 -9 -8
-5 -5 -5 -5 -5 -5 -5 -6 -6 -6 -6 -6 -5 -5 -6 -5 -5 -5 -5 -5 -5 -5 -5 -4 -5 -6 -6 -6 -7 -7 -7 -7 -7 -7 -7 -8 -9 -9 -9 -9 -9 -9 -9 -9 -9
-6 -6 -6 -6 -6 -6 -6 -6 -6 -7 -7 -6 -5 -6 -6 -6 -6 -6 -6 -6 -5 -5 -5 -6 -7 -7 -6 -7 -7 -7 -8 -7 -7 -8 -8 -9 -9 -9 -9 -9 -10 -9 -9 -10 -9
-6 -6 -6 -6 -6 -6 -6 -6 -7 -7 -6 -5 -6 -7 -7 -6 -6 -6 -6 -6 -6 -5 -5 -5 -6 -7 -8 -8 -7 -7 -8 -9 -8 -9 -9 -10 -10 -10 -10 -10 -10 -10 -8 -9 -9
-6 -6 -6 -6 -6 -6 -7 -7 -7 -7 -6 -6 -7 -7 -7 -7 -6 -7 -7 -6 -7 -6 -6 -6 -6 -7 -7 -7 -8 -8 -9 -9 -10 -10 -10 -10 -10 -10 -10 -10 -10 -11 -10 -10 -9
-7 -6 -7 -7 -7 -7 -7 -7 -7 -6 -6 -7 -7 -7 -8 -8 -7 -8 -7 -8 -8 -6 -6 -7 -6 -7 -7 -8 -8 -8 -9 -9 -10 -11 -10 -11 -11 -10 -10 -10 -10 -10 -10 -10 -10
-7 -7 -7 -7 -7 -7 -7 -7 -7 -7 -7 -7 -7 -8 -8 -8 -8 -8 -8 -9 -8 -7 -7 -7 -7 -7 -8 -8 -8 -9 -9 -10 -11 -11 -11 -11 -11 -11 -11 -11 -10 -10 -10 -10 -10
-7 -7 -7 -7 -7 -7 -7 -7 -7 -7 -7 -7 -8 -8 -8 -8 -8 -8 -8 -9 -8 -7 -7 -7 -7 -8 -8 -9 -9 -9 -10 -9 -10 -10 -11 -12 -12 -12 -12 -11 -11 -11 -9 -10 -9
-8 -8 -7 -7 -7 -7 -8 -7 -7 -8 -8 -8 -8 -8 -8 -8 -8 -9 -9 -9 -9 -9 -8 -8 -8 -8 -8 -9 -9 -9 -10 -11 -11 -12 -11 -12 -11 -12 -12 -11 -11 -11 -10 -10 -10
-8 -8 -8 -8 -8 -8 -7 -8 -7 -8 -7 -9 -8 -8 -9 -9 -9 -9 -9 -9 -9 -9 -8 -8 -9 -9 -9 -9 -9 -9 -10 -11 -12 -12 -12 -12 -11 -12 -13 -10 -11 -10 -10 -10 -9
-9 -8 -8 -8 -8 -8 -9 -9 -9 -9 -9 -8 -7 -8 -9 -9 -9 -9 -9 -9 -9 -9 -9 -9 -9 -9 -9 -9 -9 -9 -9 -11 -12 -13 -13 -13 -13 -13 -12 -11 -11 -11 -10 -10 -10
-9 -9 -9 -9 -9 -9 -9 -9 -9 -9 -9 -9 -8 -8 -9 -10 -9 -8 -9 -10 -10 -11 -10 -10 -10 -10 -10 -10 -10 -9 -10 -11 -12 -13 -13 -13 -12 -13 -12 -12 -11 -11 -10 -10 -10
-10 -9 -9 -10 -10 -10 -10 -10 -9 -9 -9 -9 -10 -9 -9 -11 -9 -10 -10 -11 -11 -11 -11 -11 -10 -10 -10 -10 -10 -10 -11 -12 -12 -13 -13 -13 -13 -12 -12 -12 -11 -11 -10 -10 -10

GFSSW_500_temp_102.txt.gz
Temp
-2 -1 -1 -1 -1 -1 -1 -1 -1 -1 -2 -2 -2 -2 -3 -3 -4 -4 -4 -4 -4 -5 -5 -5 -5 -5 -5 -6 -5 -5 -6 -7 -7 -6 -7 -7 -7 -8 -9 -8 -8 -8 -8 -8 -8
-1 -1 -1 -1 -1 -1 -1 -1 -1 -2 -2 -2 -3 -3 -3 -3 -3 -3 -3 -3 -3 -4 -4 -5 -5 -5 -5 -5 -5 -5 -5 -6 -7 -6 -6 -7 -7 -8 -8 -8 -8 -8 -8 -8 -8
-1 -1 -1 -1 -1 -1 -1 -2 -2 -2 -2 -3 -3 -3 -3 -3 -3 -3 -3 -3 -3 -3 -4 -4 -4 -5 -5 -5 -5 -5 -5 -5 -5 -5 -6 -6 -6 -7 -8 -8 -8 -8 -8 -8 -7
-1 -1 -1 -1 -1 -1 -2 -2 -2 -3 -3 -3 -3 -3 -3 -3 -3 -3 -3 -3 -3 -3 -4 -4 -4 -4 -4 -5 -4 -5 -5 -4 -4 -4 -5 -6 -6 -6 -7 -8 -7 -7 -8 -7 -7
-1 -1 -1 -1 -1 -2 -3 -3 -3 -3 -3 -3 -3 -3 -3 -3 -3 -4 -4 -3 -3 -3 -3 -3 -3 -4 -4 -4 -4 -4 -4 -4 -4 -5 -5 -6 -6 -6 -7 -7 -7 -6 -7 -7 -7
-1 -1 -1 -2 -2 -3 -3 -3 -3 -3 -3 -3 -3 -3 -3 -3 -3 -3 -3 -3 -3 -3 -4 -4 -4 -4 -4 -4 -4 -4 -4 -4 -5 -5 -5 -6 -7 -6 -7 -8 -7 -7 -7 -8 -7
-1 -1 -2 -2 -3 -3 -3 -3 -3 -3 -3 -3 -3 -3 -3 -3 -3 -4 -3 -4 -4 -3 -4 -4 -4 -4 -4 -4 -4 -4 -4 -5 -5 -5 -7 -5 -7 -8 -8 -7 -7 -7 -7 -7 -8
-2 -2 -2 -3 -3 -3 -3 -3 -3 -3 -3 -3 -3 -3 -3 -3 -3 -3 -4 -3 -3 -4 -4 -4 -4 -4 -4 -4 -5 -4 -4 -5 -5 -5 -6 -5 -5 -6 -7 -8 -8 -8 -8 -7 -7
-2 -2 -3 -3 -3 -3 -3 -3 -3 -3 -3 -3 -3 -3 -4 -4 -4 -4 -3 -4 -4 -4 -4 -4 -4 -4 -4 -4 -4 -4 -5 -5 -5 -6 -5 -5 -5 -6 -8 -8 -8 -8 -8 -8 -7
-3 -3 -4 -4 -4 -4 -3 -3 -3 -3 -3 -3 -3 -3 -4 -4 -4 -4 -4 -4 -4 -4 -4 -4 -4 -4 -4 -4 -5 -5 -5 -5 -5 -5 -5 -5 -5 -5 -7 -8 -8 -8 -8 -8 -8
-4 -4 -4 -4 -4 -4 -4 -3 -3 -3 -3 -3 -3 -4 -4 -4 -4 -4 -4 -4 -4 -4 -4 -4 -4 -4 -4 -5 -4 -4 -4 -4 -5 -5 -6 -6 -6 -6 -7 -8 -8 -8 -8 -8 -8
-4 -4 -4 -4 -4 -4 -4 -4 -4 -4 -4 -4 -4 -4 -4 -4 -4 -4 -4 -5 -5 -4 -4 -4 -5 -5 -5 -4 -4 -4 -5 -5 -5 -6 -6 -6 -6 -6 -6 -7 -8 -8 -8 -8 -8
-5 -4 -4 -4 -4 -4 -4 -4 -4 -4 -4 -4 -4 -4 -5 -5 -5 -5 -5 -5 -5 -5 -5 -5 -4 -5 -4 -4 -4 -5 -6 -6 -6 -6 -6 -6 -6 -7 -7 -7 -7 -7 -8 -8 -8
-5 -4 -4 -4 -4 -4 -4 -4 -4 -4 -4 -5 -5 -5 -5 -5 -5 -5 -5 -5 -5 -5 -5 -5 -5 -5 -5 -5 -5 -5 -6 -6 -6 -6 -6 -6 -5 -7 -7 -7 -7 -8 -8 -8 -8
-5 -5 -5 -5 -4 -5 -5 -5 -5 -5 -5 -5 -5 -5 -5 -5 -5 -5 -5 -5 -5 -6 -5 -5 -5 -5 -5 -5 -5 -5 -6 -6 -6 -7 -6 -6 -6 -6 -8 -9 -9 -9 -9 -9 -9
-5 -5 -5 -5 -5 -5 -5 -5 -5 -5 -6 -5 -5 -5 -6 -6 -6 -6 -6 -6 -5 -5 -5 -6 -5 -5 -5 -6 -6 -6 -6 -7 -7 -7 -7 -7 -8 -8 -8 -9 -10 -9 -9 -9 -9
-6 -6 -6 -6 -6 -6 -6 -6 -6 -5 -5 -5 -5 -6 -7 -6 -6 -6 -6 -6 -5 -5 -5 -6 -6 -6 -6 -6 -7 -8 -8 -7 -6 -7 -7 -8 -8 -8 -9 -10 -10 -10 -10 -10 -11
-6 -6 -6 -6 -6 -6 -6 -6 -6 -6 -6 -6 -6 -7 -6 -6 -6 -6 -6 -6 -6 -6 -5 -5 -7 -8 -8 -8 -8 -8 -8 -8 -7 -7 -7 -8 -9 -10 -10 -11 -11 -11 -10 -10 -10
-6 -6 -6 -6 -6 -6 -6 -6 -6 -6 -6 -6 -7 -7 -7 -6 -6 -6 -7 -7 -6 -6 -6 -6 -6 -7 -8 -8 -8 -8 -8 -8 -8 -8 -8 -9 -10 -10 -11 -11 -11 -12 -12 -11 -10
-7 -6 -6 -6 -6 -6 -6 -6 -6 -6 -7 -7 -7 -7 -8 -8 -7 -7 -8 -7 -7 -6 -6 -6 -6 -7 -8 -8 -9 -9 -8 -8 -8 -9 -9 -9 -9 -10 -11 -11 -12 -11 -11 -11 -10
-7 -7 -7 -7 -6 -7 -7 -7 -6 -6 -7 -7 -7 -7 -7 -8 -7 -7 -8 -8 -8 -7 -7 -7 -7 -7 -8 -9 -9 -9 -9 -9 -9 -9 -10 -10 -10 -11 -12 -11 -12 -12 -12 -11 -11
-7 -7 -7 -7 -7 -7 -7 -7 -7 -7 -6 -7 -7 -7 -7 -8 -8 -8 -8 -9 -9 -8 -7 -7 -7 -7 -8 -10 -9 -9 -9 -9 -9 -10 -10 -11 -10 -12 -12 -12 -11 -12 -11 -11 -10
-8 -7 -7 -8 -7 -7 -7 -7 -7 -7 -8 -7 -8 -8 -8 -8 -8 -8 -9 -10 -9 -8 -8 -8 -8 -8 -8 -10 -10 -10 -10 -10 -10 -12 -11 -12 -11 -11 -12 -12 -11 -11 -11 -11 -10
-8 -8 -7 -8 -8 -8 -8 -8 -8 -8 -7 -7 -7 -7 -7 -8 -8 -7 -8 -9 -9 -9 -9 -9 -9 -9 -9 -9 -10 -10 -10 -11 -11 -10 -10 -10 -11 -12 -12 -12 -11 -11 -11 -11 -10
-9 -8 -8 -8 -8 -8 -8 -8 -8 -8 -8 -7 -7 -7 -7 -7 -8 -8 -8 -8 -10 -11 -11 -10 -9 -10 -10 -10 -10 -10 -10 -10 -10 -11 -11 -11 -11 -11 -11 -12 -12 -11 -11 -11 -11
-9 -9 -9 -9 -9 -8 -9 -9 -9 -9 -8 -8 -7 -7 -7 -7 -8 -8 -8 -9 -10 -12 -11 -11 -9 -10 -10 -11 -11 -11 -10 -10 -10 -11 -11 -11 -12 -12 -12 -11 -12 -12 -11 -11 -11
-9 -9 -9 -9 -9 -9 -9 -9 -9 -9 -9 -8 -8 -8 -9 -9 -8 -8 -8 -9 -10 -11 -12 -12 -12 -11 -11 -11 -11 -11 -11 -11 -11 -11 -12 -13 -12 -12 -12 -12 -11 -11 -12 -11 -11

GFSSW_500_temp_105.txt.gz
Temp
-2 -1 -1 -1 -1 -1 -1 -1 -1 -2 -2 -2 -3 -3 -3 -3 -3 -4 -4 -4 -4 -5 -5 -5 -5 -5 -5 -5 -5 -5 -6 -6 -7 -7 -6 -7 -7 -7 -8 -9 -8 -9 -8 -8 -8
-1 -1 -1 -1 -1 -1 -1 -1 -2 -2 -3 -3 -3 -3 -3 -3 -3 -3 -3 -3 -4 -4 -5 -4 -5 -5 -5 -5 -5 -5 -5 -6 -5 -6 -5 -6 -7 -6 -6 -8 -9 -9 -9 -9 -9
-1 -1 -1 -1 -1 -1 -1 -2 -2 -2 -3 -3 -3 -3 -3 -3 -3 -3 -3 -4 -4 -4 -4 -4 -4 -4 -4 -4 -4 -4 -5 -5 -5 -5 -5 -5 -5 -7 -7 -7 -8 -9 -8 -8 -8
-1 -1 -1 -1 -1 -1 -2 -2 -2 -3 -3 -3 -3 -3 -3 -3 -3 -3 -3 -4 -4 -4 -4 -4 -4 -5 -4 -4 -4 -4 -4 -5 -6 -6 -5 -5 -6 -6 -6 -7 -8 -7 -8 -8 -8
-1 -1 -1 -1 -1 -2 -2 -3 -3 -3 -3 -3 -3 -3 -3 -3 -3 -3 -3 -3 -4 -4 -4 -4 -4 -4 -5 -5 -5 -5 -5 -5 -5 -6 -5 -5 -6 -7 -7 -8 -8 -8 -7 -8 -8
-1 -1 -1 -1 -2 -2 -3 -3 -3 -3 -3 -3 -3 -3 -3 -3 -3 -3 -4 -4 -4 -4 -4 -4 -4 -4 -4 -5 -5 -5 -5 -5 -5 -5 -5 -4 -5 -7 -8 -8 -6 -7 -8 -8 -8
-1 -1 -1 -1 -2 -3 -3 -3 -3 -3 -3 -3 -3 -3 -3 -4 -4 -4 -4 -4 -4 -4 -4 -4 -4 -4 -4 -5 -4 -4 -5 -5 -5 -5 -5 -5 -5 -6 -7 -8 -7 -7 -8 -8 -8
-1 -2 -2 -2 -2 -3 -3 -3 -3 -3 -3 -3 -3 -3 -3 -3 -4 -4 -4 -4 -4 -4 -4 -4 -4 -4 -4 -5 -5 -5 -5 -5 -6 -6 -5 -5 -6 -7 -7 -7 -7 -8 -7 -8 -8
-2 -2 -2 -2 -3 -3 -3 -3 -3 -3 -3 -3 -3 -3 -4 -4 -4 -4 -4 -4 -4 -4 -4 -4 -4 -4 -4 -5 -5 -5 -5 -5 -6 -7 -6 -6 -6 -6 -7 -6 -8 -7 -8 -8 -8
-2 -2 -2 -3 -3 -3 -3 -3 -3 -3 -3 -3 -3 -3 -4 -4 -4 -4 -4 -4 -4 -4 -4 -5 -5 -5 -5 -5 -5 -5 -5 -5 -6 -6 -6 -6 -6 -6 -6 -8 -8 -8 -8 -8 -8
-2 -2 -3 -3 -4 -4 -4 -4 -3 -4 -4 -4 -4 -4 -4 -4 -4 -4 -5 -4 -5 -5 -5 -5 -5 -5 -5 -5 -5 -5 -5 -5 -5 -6 -6 -6 -6 -6 -7 -7 -8 -8 -8 -8 -8
-3 -3 -3 -4 -4 -4 -4 -4 -4 -4 -4 -4 -4 -4 -4 -4 -5 -5 -5 -5 -5 -5 -5 -5 -5 -5 -5 -5 -5 -5 -5 -5 -5 -6 -6 -6 -7 -7 -6 -6 -6 -7 -8 -8 -8
-4 -4 -4 -4 -4 -4 -4 -4 -4 -4 -4 -4 -4 -4 -4 -5 -5 -5 -5 -5 -5 -5 -5 -5 -5 -5 -5 -5 -5 -5 -5 -5 -6 -6 -7 -6 -7 -7 -7 -8 -7 -7 -7 -8 -8
-5 -5 -5 -4 -4 -4 -4 -4 -4 -4 -5 -4 -4 -5 -5 -5 -5 -5 -5 -5 -5 -5 -5 -5 -5 -5 -5 -5 -6 -6 -6 -6 -6 -6 -6 -6 -6 -6 -7 -8 -8 -8 -8 -7 -8
-5 -5 -5 -4 -4 -4 -5 -5 -5 -5 -5 -4 -5 -5 -6 -6 -6 -6 -6 -6 -6 -5 -6 -5 -5 -6 -6 -6 -6 -6 -6 -6 -6 -6 -6 -7 -7 -6 -7 -8 -8 -9 -9 -9 -8
-6 -6 -5 -5 -5 -5 -5 -5 -5 -5 -5 -5 -5 -6 -6 -6 -6 -6 -6 -6 -6 -6 -6 -6 -6 -6 -6 -7 -6 -6 -6 -7 -7 -7 -7 -7 -7 -8 -8 -8 -9 -9 -10 -9 -9
-6 -6 -6 -6 -6 -6 -6 -6 -6 -6 -5 -5 -5 -6 -6 -6 -6 -6 -6 -6 -6 -6 -6 -7 -7 -6 -6 -6 -7 -7 -7 -7 -7 -7 -7 -7 -7 -9 -9 -9 -10 -11 -11 -10 -10
-6 -6 -6 -6 -6 -6 -6 -6 -6 -6 -6 -6 -6 -6 -6 -6 -6 -6 -6 -6 -5 -6 -6 -6 -7 -7 -7 -7 -6 -7 -8 -8 -7 -7 -7 -8 -8 -9 -9 -10 -10 -11 -12 -11 -10
-6 -6 -6 -6 -6 -6 -6 -6 -6 -6 -6 -6 -6 -7 -6 -6 -6 -6 -6 -6 -6 -6 -6 -6 -6 -7 -8 -8 -8 -7 -8 -8 -8 -8 -8 -8 -8 -10 -10 -10 -11 -11 -12 -11 -11
-7 -6 -6 -6 -6 -6 -6 -6 -6 -6 -6 -6 -6 -6 -6 -7 -6 -6 -6 -6 -6 -6 -6 -6 -6 -8 -8 -9 -9 -8 -8 -9 -9 -9 -9 -9 -9 -10 -10 -11 -12 -12 -12 -12 -12
-7 -7 -6 -6 -6 -6 -6 -6 -6 -6 -6 -6 -7 -7 -7 -7 -7 -7 -7 -7 -7 -6 -6 -6 -7 -8 -9 -9 -9 -10 -9 -9 -9 -9 -10 -9 -9 -9 -10 -10 -11 -12 -12 -12 -12
-7 -7 -7 -7 -7 -7 -7 -6 -6 -6 -6 -7 -7 -7 -7 -7 -7 -8 -7 -7 -7 -7 -6 -7 -8 -8 -9 -10 -10 -9 -10 -10 -10 -10 -10 -10 -9 -10 -10 -10 -11 -11 -12 -11 -11
-8 -7 -7 -7 -7 -8 -8 -8 -8 -7 -7 -7 -7 -7 -7 -7 -7 -7 -8 -7 -7 -8 -8 -8 -8 -7 -9 -10 -10 -10 -10 -10 -10 -10 -10 -10 -10 -10 -10 -10 -11 -11 -11 -11 -11
-8 -8 -8 -8 -8 -8 -8 -8 -8 -8 -7 -7 -7 -7 -7 -7 -7 -7 -8 -8 -8 -9 -9 -8 -8 -8 -8 -8 -10 -11 -11 -11 -11 -11 -10 -10 -10 -11 -11 -11 -11 -12 -12 -12 -11
-9 -9 -8 -8 -8 -8 -8 -8 -8 -8 -7 -7 -7 -7 -7 -7 -7 -7 -7 -8 -9 -9 -9 -9 -8 -8 -9 -9 -10 -10 -10 -11 -11 -11 -11 -11 -11 -11 -11 -11 -11 -11 -12 -12 -11
-9 -9 -9 -9 -8 -8 -8 -8 -8 -8 -8 -8 -8 -7 -7 -7 -7 -8 -8 -8 -9 -9 -10 -10 -9 -9 -9 -10 -11 -10 -11 -12 -11 -11 -11 -11 -11 -12 -12 -11 -12 -11 -11 -11 -11
-10 -10 -10 -9 -9 -9 -9 -9 -9 -9 -9 -9 -8 -8 -8 -9 -8 -8 -8 -8 -9 -10 -11 -10 -10 -10 -8 -11 -11 -11 -12 -12 -12 -12 -12 -12 -12 -12 -12 -12 -12 -12 -11 -11 -10

GFSSW_500_temp_108.txt.gz
Temp
-2 -2 -1 -1 -1 -1 -1 -1 -2 -2 -3 -3 -3 -3 -3 -3 -3 -4 -4 -4 -4 -4 -5 -5 -5 -5 -5 -5 -5 -5 -6 -6 -6 -7 -7 -6 -7 -6 -7 -8 -9 -8 -9 -9 -9
-2 -1 -1 -1 -1 -1 -1 -2 -3 -3 -3 -3 -4 -3 -3 -3 -4 -4 -4 -4 -4 -4 -4 -4 -5 -4 -4 -4 -4 -5 -5 -5 -6 -6 -6 -6 -7 -7 -7 -7 -8 -8 -9 -8 -9
-2 -1 -1 -1 -1 -1 -2 -2 -3 -3 -3 -3 -3 -3 -3 -3 -4 -4 -4 -4 -4 -4 -4 -4 -4 -4 -4 -4 -5 -5 -5 -5 -5 -6 -6 -7 -7 -7 -7 -7 -8 -8 -8 -8 -8
-1 -1 -1 -1 -1 -1 -2 -3 -3 -3 -3 -3 -3 -3 -3 -3 -3 -3 -4 -4 -4 -4 -4 -4 -5 -5 -4 -4 -5 -5 -5 -5 -4 -4 -4 -5 -6 -6 -6 -6 -6 -7 -8 -8 -8
-1 -1 -1 -1 -1 -2 -2 -3 -3 -3 -3 -3 -3 -4 -4 -4 -4 -3 -3 -4 -4 -4 -4 -4 -5 -5 -5 -5 -4 -5 -5 -5 -5 -5 -5 -5 -5 -5 -5 -5 -5 -7 -8 -8 -8
-1 -1 -1 -1 -2 -2 -3 -3 -3 -3 -3 -3 -3 -4 -4 -4 -4 -4 -4 -4 -4 -4 -4 -4 -4 -5 -5 -4 -5 -5 -5 -5 -5 -5 -5 -5 -5 -5 -6 -6 -5 -7 -7 -8 -8
-1 -1 -1 -1 -2 -2 -3 -3 -3 -3 -3 -3 -3 -4 -4 -4 -4 -4 -4 -4 -4 -4 -4 -4 -4 -5 -5 -5 -5 -5 -5 -5 -5 -5 -5 -6 -6 -6 -6 -6 -6 -7 -7 -7 -8
-1 -2 -1 -2 -2 -3 -3 -3 -3 -3 -3 -3 -3 -4 -4 -4 -4 -4 -4 -4 -5 -5 -5 -5 -5 -5 -5 -5 -5 -5 -5 -5 -5 -5 -5 -6 -7 -7 -7 -7 -7 -6 -6 -7 -7
-2 -2 -2 -2 -2 -3 -3 -3 -3 -3 -3 -3 -3 -4 -4 -4 -4 -4 -4 -4 -5 -5 -5 -5 -5 -5 -5 -5 -5 -5 -6 -6 -6 -6 -7 -6 -7 -8 -8 -8 -7 -6 -7 -6 -7
-2 -2 -2 -2 -2 -3 -3 -4 -4 -4 -4 -4 -4 -4 -4 -4 -4 -4 -5 -5 -5 -5 -5 -5 -5 -5 -5 -5 -5 -5 -6 -6 -6 -7 -7 -7 -7 -6 -6 -6 -6 -6 -6 -6 -7
-2 -2 -2 -2 -2 -3 -4 -4 -4 -4 -4 -4 -4 -4 -4 -4 -5 -5 -5 -5 -5 -5 -5 -5 -5 -5 -5 -5 -5 -5 -6 -6 -6 -6 -6 -7 -7 -6 -6 -6 -6 -6 -6 -6 -8
-3 -3 -3 -3 -3 -4 -4 -4 -4 -4 -4 -4 -4 -4 -5 -5 -5 -5 -5 -5 -5 -5 -5 -6 -6 -5 -6 -6 -6 -6 -6 -6 -6 -6 -6 -6 -7 -7 -6 -7 -7 -7 -7 -8 -7
-3 -3 -3 -4 -4 -4 -4 -4 -4 -4 -4 -4 -4 -5 -5 -5 -5 -5 -6 -6 -6 -5 -5 -6 -6 -6 -6 -6 -6 -7 -6 -6 -6 -6 -7 -7 -7 -8 -6 -6 -7 -7 -7 -7 -8
-4 -4 -4 -4 -5 -5 -4 -4 -4 -4 -4 -5 -4 -5 -5 -5 -5 -6 -6 -6 -6 -6 -6 -6 -6 -6 -6 -6 -6 -7 -6 -6 -7 -6 -7 -7 -6 -7 -8 -7 -7 -8 -8 -7 -8
-5 -5 -5 -5 -5 -5 -5 -5 -4 -4 -5 -5 -5 -5 -5 -6 -6 -6 -6 -6 -6 -6 -6 -6 -6 -6 -6 -6 -6 -6 -7 -7 -7 -7 -7 -7 -7 -7 -7 -8 -8 -8 -7 -7 -7
-6 -6 -6 -6 -5 -5 -5 -5 -5 -5 -5 -5 -5 -5 -5 -6 -7 -6 -6 -6 -6 -6 -6 -6 -6 -7 -7 -7 -7 -7 -6 -6 -7 -7 -7 -8 -8 -8 -8 -8 -8 -7 -8 -8 -8
-6 -6 -6 -6 -6 -6 -5 -5 -5 -6 -6 -5 -6 -6 -6 -6 -6 -6 -6 -6 -7 -7 -7 -7 -7 -7 -7 -7 -7 -7 -7 -7 -7 -8 -8 -8 -8 -8 -8 -8 -8 -8 -9 -8 -9
-7 -6 -6 -6 -6 -6 -6 -6 -6 -6 -6 -6 -6 -6 -6 -6 -6 -6 -6 -6 -6 -6 -7 -7 -7 -8 -8 -8 -8 -7 -7 -7 -7 -7 -7 -8 -8 -8 -9 -9 -9 -9 -9 -9 -9
-7 -6 -6 -6 -6 -6 -6 -6 -6 -6 -6 -6 -6 -6 -6 -6 -6 -6 -6 -6 -6 -6 -7 -7 -7 -8 -8 -8 -8 -7 -7 -8 -8 -8 -7 -7 -8 -9 -9 -9 -9 -10 -10 -10 -10
-6 -6 -6 -6 -6 -6 -6 -6 -6 -6 -6 -6 -6 -6 -7 -7 -7 -7 -7 -7 -7 -7 -7 -7 -7 -8 -9 -9 -9 -8 -8 -8 -8 -8 -8 -8 -8 -9 -9 -10 -10 -10 -10 -11 -11
-7 -6 -6 -6 -6 -6 -6 -6 -6 -6 -6 -6 -7 -7 -7 -7 -7 -8 -7 -7 -6 -7 -7 -7 -8 -8 -9 -9 -9 -9 -9 -9 -9 -9 -9 -8 -8 -10 -10 -10 -10 -10 -10 -11 -11
-7 -7 -7 -6 -7 -7 -7 -7 -7 -6 -7 -7 -7 -7 -7 -7 -7 -8 -7 -7 -7 -7 -7 -8 -8 -8 -8 -9 -9 -9 -9 -9 -9 -9 -10 -10 -8 -10 -10 -10 -10 -10 -10 -10 -11
-7 -7 -7 -7 -7 -7 -7 -7 -7 -6 -6 -6 -7 -7 -7 -7 -7 -7 -7 -7 -7 -8 -8 -8 -8 -8 -8 -8 -8 -9 -10 -10 -10 -10 -10 -10 -10 -11 -11 -10 -10 -10 -10 -10 -11
-8 -8 -8 -8 -8 -8 -8 -7 -7 -7 -7 -7 -7 -7 -7 -7 -7 -7 -8 -8 -8 -8 -8 -8 -7 -7 -7 -7 -7 -9 -10 -11 -11 -11 -11 -11 -11 -11 -11 -11 -11 -11 -11 -10 -10
-9 -9 -8 -8 -8 -8 -8 -8 -8 -8 -8 -7 -7 -8 -8 -8 -8 -8 -8 -9 -9 -9 -9 -9 -8 -8 -8 -8 -8 -9 -9 -11 -11 -12 -12 -11 -11 -12 -11 -11 -11 -11 -11 -11 -11
-9 -10 -9 -9 -9 -9 -9 -8 -8 -8 -8 -8 -8 -8 -8 -8 -8 -8 -8 -8 -9 -9 -9 -9 -8 -8 -8 -9 -9 -9 -10 -11 -11 -12 -12 -12 -12 -12 -12 -11 -11 -11 -11 -11 -10
-10 -10 -10 -9 -9 -9 -9 -9 -9 -9 -9 -9 -8 -8 -8 -8 -8 -8 -8 -8 -8 -9 -10 -9 -10 -9 -8 -9 -10 -9 -11 -11 -11 -12 -12 -12 -12 -12 -12 -12 -11 -11 -11 -10 -10

GFSSW_500_temp_111.txt.gz
Temp
-2 -2 -1 -1 -1 -1 -1 -2 -2 -3 -3 -3 -3 -3 -4 -4 -4 -4 -4 -4 -4 -4 -4 -4 -5 -5 -5 -5 -6 -6 -6 -5 -6 -6 -7 -7 -7 -7 -7 -8 -8 -8 -8 -9 -9
-2 -2 -1 -1 -1 -1 -2 -2 -2 -3 -3 -3 -3 -3 -3 -3 -4 -4 -4 -4 -4 -4 -4 -4 -4 -4 -5 -5 -5 -6 -5 -6 -6 -6 -7 -7 -8 -8 -8 -8 -8 -7 -8 -9 -9
-2 -1 -1 -1 -1 -1 -2 -2 -3 -3 -3 -3 -3 -3 -3 -3 -4 -4 -4 -4 -4 -4 -4 -4 -4 -4 -4 -5 -5 -5 -5 -5 -5 -5 -6 -7 -8 -8 -7 -8 -7 -7 -8 -8 -9
-2 -1 -1 -1 -1 -1 -2 -3 -3 -3 -3 -3 -3 -3 -3 -3 -4 -4 -4 -4 -4 -4 -4 -4 -4 -4 -4 -5 -5 -5 -5 -5 -4 -5 -5 -5 -5 -5 -5 -5 -5 -7 -7 -8 -8
-2 -1 -1 -1 -1 -2 -2 -3 -3 -3 -3 -3 -3 -3 -3 -4 -4 -4 -4 -4 -4 -4 -4 -5 -5 -5 -4 -4 -5 -5 -5 -5 -5 -4 -5 -5 -5 -5 -5 -5 -5 -6 -7 -8 -8
-2 -1 -1 -1 -2 -2 -2 -3 -3 -4 -4 -4 -3 -4 -4 -4 -4 -4 -4 -4 -4 -4 -4 -5 -5 -5 -5 -5 -5 -5 -5 -5 -5 -5 -5 -6 -5 -5 -5 -6 -6 -6 -7 -7 -8
-2 -2 -2 -2 -2 -2 -3 -3 -4 -4 -4 -3 -3 -4 -4 -4 -4 -4 -4 -4 -4 -4 -5 -5 -5 -5 -5 -5 -5 -5 -5 -5 -5 -5 -5 -6 -6 -6 -6 -6 -6 -6 -7 -7 -8
-2 -2 -2 -2 -2 -2 -3 -4 -4 -4 -4 -3 -4 -4 -4 -4 -4 -4 -4 -5 -5 -5 -5 -5 -5 -5 -5 -5 -5 -5 -5 -5 -5 -6 -6 -7 -7 -7 -7 -7 -7 -7 -7 -8 -8
-2 -2 -2 -2 -2 -3 -3 -3 -4 -4 -4 -4 -4 -4 -4 -4 -4 -4 -5 -5 -5 -5 -5 -5 -5 -5 -5 -5 -5 -5 -5 -6 -6 -6 -6 -7 -7 -7 -7 -7 -7 -7 -7 -7 -8
-2 -2 -2 -2 -2 -3 -3 -3 -4 -4 -4 -4 -4 -4 -4 -4 -5 -5 -5 -5 -5 -5 -5 -5 -5 -5 -5 -5 -6 -6 -6 -6 -6 -6 -6 -6 -7 -7 -7 -6 -6 -6 -6 -7 -7
-2 -2 -2 -3 -3 -3 -3 -4 -4 -4 -4 -4 -4 -4 -4 -5 -5 -5 -5 -5 -5 -5 -5 -6 -6 -6 -6 -6 -6 -6 -6 -6 -6 -6 -6 -6 -7 -7 -6 -6 -6 -6 -6 -6 -7
-3 -3 -3 -3 -3 -3 -4 -4 -4 -4 -4 -4 -4 -4 -5 -5 -5 -5 -5 -5 -6 -6 -6 -6 -6 -6 -6 -6 -6 -6 -6 -6 -6 -6 -6 -7 -7 -7 -6 -7 -6 -7 -7 -7 -7
-3 -3 -3 -3 -3 -4 -4 -4 -4 -4 -5 -5 -5 -5 -5 -5 -5 -5 -5 -6 -6 -6 -6 -6 -6 -6 -6 -6 -6 -6 -6 -7 -7 -7 -7 -7 -7 -7 -6 -6 -6 -6 -7 -7 -7
-4 -4 -4 -4 -4 -4 -4 -4 -5 -5 -5 -5 -5 -5 -5 -5 -5 -6 -6 -6 -6 -6 -6 -6 -6 -6 -6 -6 -7 -7 -7 -7 -7 -7 -7 -7 -6 -7 -6 -7 -7 -7 -7 -7 -7
-4 -4 -4 -5 -5 -5 -5 -5 -5 -5 -5 -5 -5 -5 -5 -5 -6 -6 -6 -7 -7 -7 -7 -7 -7 -7 -6 -6 -7 -7 -7 -7 -7 -7 -7 -7 -7 -7 -7 -8 -7 -8 -7 -7 -7
-5 -5 -5 -5 -5 -5 -5 -5 -5 -5 -5 -5 -5 -6 -6 -6 -6 -6 -7 -7 -7 -7 -7 -7 -7 -7 -7 -7 -7 -7 -7 -7 -7 -7 -7 -7 -8 -7 -8 -8 -8 -8 -8 -8 -8
-5 -6 -6 -6 -6 -6 -6 -6 -6 -6 -6 -6 -6 -6 -6 -6 -6 -7 -7 -7 -7 -7 -7 -7 -7 -7 -7 -7 -7 -7 -7 -7 -7 -7 -8 -8 -8 -8 -8 -8 -8 -8 -8 -8 -8
-6 -6 -6 -6 -6 -6 -6 -6 -6 -6 -6 -6 -6 -6 -7 -7 -7 -7 -7 -7 -7 -7 -7 -8 -8 -8 -8 -8 -8 -7 -7 -8 -7 -7 -7 -8 -8 -8 -8 -9 -9 -9 -9 -9 -9
-6 -6 -6 -6 -6 -6 -6 -6 -6 -6 -6 -6 -6 -6 -6 -7 -7 -7 -7 -7 -7 -7 -7 -7 -8 -8 -8 -8 -8 -7 -7 -7 -7 -7 -7 -7 -7 -8 -9 -9 -9 -9 -9 -10 -9
-6 -6 -6 -6 -6 -6 -6 -6 -6 -6 -6 -6 -6 -6 -6 -7 -7 -7 -7 -7 -7 -7 -7 -7 -8 -8 -8 -9 -8 -7 -7 -7 -7 -7 -7 -6 -7 -9 -9 -9 -9 -9 -9 -10 -10
-7 -6 -6 -6 -6 -6 -6 -6 -6 -6 -6 -6 -6 -6 -6 -7 -7 -7 -7 -7 -7 -7 -8 -8 -8 -8 -8 -8 -8 -8 -7 -7 -8 -8 -8 -7 -6 -9 -8 -8 -8 -9 -9 -10 -10
-7 -7 -7 -6 -6 -6 -6 -6 -6 -6 -6 -6 -6 -6 -7 -7 -7 -7 -7 -7 -7 -8 -8 -8 -8 -7 -7 -7 -8 -8 -8 -9 -8 -8 -8 -8 -6 -9 -8 -8 -8 -9 -10 -10 -10
-7 -7 -7 -7 -7 -7 -7 -7 -6 -6 -7 -7 -7 -7 -7 -7 -7 -7 -8 -8 -8 -8 -8 -8 -8 -7 -7 -7 -7 -7 -8 -9 -9 -9 -9 -8 -8 -9 -9 -8 -9 -9 -10 -10 -11
-8 -7 -7 -7 -7 -7 -7 -7 -7 -7 -7 -7 -7 -7 -7 -7 -8 -8 -8 -8 -8 -8 -8 -8 -8 -7 -7 -7 -8 -8 -8 -10 -10 -9 -9 -9 -9 -10 -10 -10 -10 -11 -11 -11 -11
-9 -8 -8 -8 -8 -8 -8 -8 -8 -8 -8 -7 -7 -7 -7 -7 -8 -8 -8 -8 -8 -8 -8 -8 -7 -7 -8 -8 -8 -8 -9 -10 -9 -10 -9 -10 -10 -11 -10 -11 -11 -11 -11 -11 -11
-9 -9 -9 -9 -9 -9 -9 -9 -9 -8 -8 -8 -8 -8 -8 -8 -8 -8 -9 -9 -9 -8 -8 -8 -8 -8 -8 -9 -9 -9 -9 -10 -10 -10 -10 -10 -10 -11 -11 -12 -11 -11 -11 -11 -11
-9 -10 -10 -9 -9 -9 -9 -9 -9 -9 -9 -9 -8 -8 -9 -9 -9 -9 -9 -9 -9 -9 -9 -9 -9 -9 -8 -9 -9 -9 -10 -10 -10 -11 -10 -10 -11 -12 -12 -11 -11 -11 -12 -12 -11

GFSSW_500_temp_114.txt.gz
Temp
-2 -2 -2 -1 -1 -1 -2 -2 -2 -3 -3 -3 -3 -3 -3 -3 -3 -3 -4 -4 -4 -4 -4 -4 -4 -5 -5 -5 -5 -6 -6 -6 -6 -6 -7 -7 -8 -7 -8 -8 -7 -8 -8 -7 -8
-2 -2 -1 -1 -1 -1 -2 -2 -2 -3 -3 -3 -3 -3 -3 -3 -3 -3 -4 -4 -4 -4 -4 -4 -4 -5 -5 -5 -5 -5 -5 -5 -5 -5 -6 -6 -6 -7 -7 -7 -8 -7 -8 -8 -8
-2 -2 -1 -1 -1 -1 -2 -2 -3 -3 -3 -3 -3 -3 -3 -3 -3 -3 -3 -3 -4 -4 -4 -4 -4 -4 -5 -5 -5 -4 -5 -5 -5 -5 -5 -5 -5 -5 -5 -6 -6 -7 -8 -8 -8
-2 -2 -2 -1 -1 -2 -2 -2 -3 -3 -3 -3 -3 -3 -3 -3 -3 -4 -4 -4 -4 -4 -4 -4 -4 -4 -5 -5 -5 -5 -5 -4 -5 -5 -5 -6 -5 -5 -5 -6 -6 -7 -8 -8 -8
-2 -2 -2 -2 -2 -2 -2 -3 -3 -3 -3 -3 -3 -3 -4 -4 -4 -4 -4 -4 -4 -4 -4 -4 -4 -4 -4 -5 -5 -5 -5 -5 -5 -5 -5 -5 -5 -5 -5 -6 -6 -7 -7 -8 -8
-2 -2 -2 -2 -2 -2 -2 -3 -3 -3 -3 -4 -4 -3 -4 -4 -4 -4 -4 -4 -4 -4 -5 -5 -5 -5 -5 -5 -5 -5 -5 -5 -5 -5 -5 -5 -5 -6 -6 -6 -7 -7 -7 -8 -8
-2 -2 -2 -2 -2 -2 -2 -3 -3 -4 -4 -4 -4 -3 -4 -4 -4 -4 -4 -4 -4 -5 -5 -5 -5 -5 -5 -5 -5 -5 -5 -5 -5 -5 -5 -5 -5 -6 -6 -6 -7 -7 -7 -8 -8
-2 -2 -2 -2 -2 -2 -2 -3 -3 -4 -4 -4 -4 -4 -4 -4 -4 -4 -4 -5 -5 -5 -5 -5 -5 -5 -5 -5 -5 -5 -5 -5 -5 -6 -6 -6 -6 -6 -6 -6 -6 -7 -7 -7 -8
-2 -2 -2 -2 -2 -2 -3 -3 -3 -4 -4 -4 -4 -4 -4 -4 -4 -4 -4 -5 -5 -5 -5 -5 -5 -5 -5 -5 -5 -6 -6 -6 -6 -6 -6 -6 -6 -6 -7 -7 -7 -6 -7 -7 -8
-2 -2 -2 -2 -2 -2 -3 -3 -3 -4 -4 -4 -4 -4 -4 -4 -4 -4 -4 -5 -5 -5 -5 -5 -5 -5 -6 -6 -6 -6 -6 -6 -6 -6 -6 -6 -6 -6 -6 -6 -6 -6 -6 -7 -7
-3 -2 -2 -2 -3 -3 -3 -3 -4 -4 -4 -4 -4 -4 -4 -5 -5 -5 -5 -5 -5 -5 -6 -6 -6 -6 -6 -6 -6 -6 -6 -6 -6 -6 -6 -6 -7 -7 -6 -6 -6 -5 -6 -6 -6
-3 -3 -3 -3 -3 -3 -3 -4 -4 -4 -4 -4 -5 -5 -5 -5 -5 -5 -5 -5 -5 -6 -6 -6 -6 -6 -6 -6 -6 -6 -6 -6 -6 -6 -6 -7 -7 -7 -6 -6 -6 -6 -6 -6 -6
-3 -3 -3 -3 -3 -3 -3 -4 -4 -5 -5 -5 -5 -5 -5 -5 -5 -5 -5 -5 -6 -6 -6 -6 -6 -6 -6 -6 -6 -6 -6 -6 -6 -6 -7 -7 -7 -7 -7 -7 -7 -6 -6 -7 -6
-4 -3 -3 -3 -3 -4 -4 -4 -5 -5 -5 -5 -5 -5 -5 -5 -5 -5 -6 -6 -6 -6 -7 -7 -6 -6 -7 -6 -7 -7 -7 -7 -7 -7 -8 -7 -7 -7 -7 -7 -6 -7 -7 -6 -6
-4 -4 -4 -4 -4 -4 -5 -5 -5 -5 -5 -5 -5 -5 -5 -5 -6 -6 -6 -6 -7 -7 -7 -7 -7 -7 -7 -7 -7 -7 -7 -7 -7 -7 -7 -7 -7 -9 -7 -7 -7 -7 -7 -7 -6
-5 -5 -5 -5 -5 -5 -5 -5 -5 -5 -5 -5 -6 -6 -6 -6 -6 -6 -6 -6 -7 -7 -7 -7 -7 -7 -7 -7 -7 -7 -7 -7 -7 -7 -7 -7 -7 -9 -8 -8 -8 -7 -7 -7 -7
-5 -5 -5 -5 -5 -5 -6 -6 -6 -6 -6 -6 -6 -6 -6 -7 -7 -7 -7 -7 -7 -7 -7 -7 -7 -7 -7 -7 -7 -7 -7 -8 -9 -9 -9 -7 -7 -8 -7 -8 -8 -8 -8 -8 -7
-6 -6 -6 -6 -6 -6 -6 -6 -6 -6 -6 -6 -6 -6 -7 -7 -7 -7 -7 -7 -7 -7 -8 -8 -8 -7 -7 -7 -7 -7 -7 -7 -7 -9 -9 -7 -7 -7 -8 -8 -8 -8 -8 -8 -8
-6 -6 -6 -6 -6 -6 -6 -6 -6 -6 -6 -6 -6 -6 -6 -7 -7 -7 -7 -7 -7 -8 -8 -8 -8 -8 -8 -8 -8 -7 -7 -7 -7 -7 -7 -7 -7 -7 -8 -7 -8 -8 -8 -8 -8
-6 -6 -6 -6 -6 -6 -6 -6 -6 -6 -6 -6 -6 -6 -6 -6 -7 -7 -7 -7 -7 -7 -8 -7 -8 -7 -7 -8 -7 -8 -7 -7 -7 -7 -7 -8 -7 -7 -8 -8 -7 -8 -8 -8 -8
-7 -6 -6 -6 -6 -6 -6 -6 -6 -6 -6 -6 -6 -6 -6 -7 -7 -7 -7 -7 -7 -7 -7 -7 -8 -8 -7 -7 -8 -7 -7 -7 -8 -7 -7 -7 -9 -7 -8 -7 -7 -8 -8 -8 -9
-7 -6 -7 -6 -6 -6 -6 -6 -6 -6 -6 -6 -6 -7 -7 -7 -7 -7 -7 -7 -7 -7 -7 -7 -8 -8 -8 -7 -7 -8 -8 -8 -8 -8 -7 -7 -7 -7 -8 -8 -7 -8 -8 -8 -9
-7 -7 -7 -7 -7 -7 -7 -6 -6 -6 -6 -6 -7 -7 -7 -7 -7 -7 -7 -7 -7 -7 -7 -7 -8 -8 -7 -7 -7 -7 -7 -8 -8 -8 -8 -8 -8 -9 -8 -8 -8 -8 -8 -9 -9
-7 -7 -7 -7 -7 -7 -7 -7 -7 -7 -7 -7 -7 -7 -7 -8 -8 -8 -8 -8 -8 -8 -8 -7 -7 -7 -8 -9 -8 -8 -8 -8 -8 -8 -8 -8 -9 -9 -9 -9 -9 -9 -9 -9 -9
-8 -8 -8 -7 -8 -8 -8 -8 -8 -7 -7 -8 -7 -7 -7 -8 -8 -8 -8 -8 -8 -8 -8 -8 -8 -8 -8 -9 -9 -9 -9 -9 -9 -9 -9 -9 -9 -10 -9 -9 -9 -9 -9 -10 -10
-9 -9 -9 -8 -8 -9 -8 -8 -8 -8 -8 -8 -8 -8 -8 -8 -8 -8 -9 -9 -9 -8 -8 -8 -8 -8 -8 -9 -9 -9 -9 -9 -9 -9 -9 -9 -10 -9 -9 -10 -10 -10 -10 -10 -11
-9 -9 -9 -9 -9 -9 -9 -9 -9 -9 -9 -9 -9 -9 -9 -8 -9 -9 -9 -9 -9 -9 -9 -9 -9 -9 -9 -9 -9 -9 -9 -9 -10 -10 -10 -10 -10 -10 -10 -10 -10 -11 -11 -11 -11

GFSSW_500_temp_117.txt.gz
Temp
-2 -2 -2 -1 -1 -1 -1 -2 -2 -3 -3 -3 -3 -3 -3 -3 -3 -3 -3 -3 -3 -4 -4 -4 -4 -4 -4 -4 -4 -5 -6 -7 -8 -6 -7 -7 -7 -8 -8 -8 -8 -8 -8 -8 -8
-2 -2 -2 -1 -1 -1 -2 -2 -2 -3 -3 -3 -3 -3 -3 -3 -3 -3 -3 -3 -3 -4 -4 -4 -4 -4 -4 -4 -4 -5 -8 -7 -5 -5 -5 -5 -5 -6 -7 -8 -8 -7 -8 -8 -8
-2 -2 -1 -1 -1 -1 -2 -2 -3 -3 -3 -3 -3 -3 -3 -3 -3 -3 -3 -3 -3 -3 -4 -4 -4 -4 -4 -4 -4 -5 -5 -5 -5 -5 -5 -5 -5 -5 -6 -6 -6 -7 -7 -8 -8
-2 -2 -2 -1 -1 -1 -2 -2 -3 -3 -3 -3 -3 -3 -3 -3 -3 -3 -4 -4 -4 -4 -4 -4 -4 -4 -4 -5 -5 -5 -4 -4 -5 -5 -5 -5 -5 -5 -5 -6 -6 -7 -7 -8 -8
-2 -2 -2 -2 -2 -2 -2 -2 -3 -3 -3 -3 -3 -3 -3 -3 -4 -4 -4 -4 -4 -4 -4 -4 -4 -4 -4 -5 -5 -5 -5 -5 -5 -5 -5 -5 -5 -5 -5 -6 -6 -7 -7 -7 -8
-2 -2 -2 -2 -2 -2 -2 -2 -3 -3 -3 -3 -3 -3 -4 -4 -4 -4 -4 -4 -4 -4 -4 -4 -4 -4 -5 -5 -5 -5 -5 -5 -5 -5 -5 -5 -5 -6 -6 -6 -7 -7 -7 -8 -8
-2 -2 -2 -2 -2 -2 -2 -2 -3 -3 -3 -3 -4 -3 -4 -4 -4 -4 -4 -4 -4 -5 -5 -5 -5 -5 -5 -5 -5 -5 -5 -5 -5 -5 -5 -5 -5 -5 -6 -6 -6 -7 -8 -8 -8
-2 -2 -2 -2 -2 -2 -2 -2 -3 -3 -3 -3 -4 -4 -4 -4 -4 -4 -4 -4 -4 -5 -5 -5 -5 -5 -5 -5 -5 -5 -5 -6 -5 -5 -5 -6 -8 -6 -6 -6 -6 -7 -7 -7 -8
-2 -2 -2 -2 -2 -2 -2 -2 -3 -3 -3 -4 -4 -4 -4 -4 -4 -4 -4 -5 -5 -5 -5 -5 -5 -5 -5 -5 -6 -6 -6 -7 -6 -5 -5 -6 -7 -6 -6 -6 -6 -6 -6 -6 -7
-3 -2 -2 -2 -2 -2 -2 -3 -3 -3 -3 -4 -4 -4 -4 -4 -4 -4 -4 -5 -5 -5 -5 -5 -5 -5 -6 -6 -7 -7 -7 -7 -6 -5 -6 -6 -6 -6 -6 -6 -5 -6 -6 -6 -6
-3 -3 -2 -2 -2 -3 -2 -3 -3 -3 -4 -4 -4 -4 -4 -4 -4 -5 -5 -5 -5 -5 -5 -6 -6 -7 -8 -6 -6 -6 -6 -6 -7 -6 -6 -6 -6 -6 -6 -7 -6 -6 -6 -6 -6
-3 -3 -3 -3 -3 -3 -3 -3 -3 -3 -4 -4 -4 -4 -4 -4 -5 -5 -5 -5 -5 -5 -6 -6 -6 -6 -6 -6 -6 -6 -6 -8 -7 -6 -6 -7 -6 -6 -7 -7 -6 -6 -6 -5 -5
-3 -3 -3 -3 -3 -3 -3 -3 -4 -4 -4 -4 -4 -5 -5 -5 -5 -5 -5 -5 -5 -6 -6 -7 -7 -6 -6 -6 -6 -6 -7 -7 -7 -7 -6 -7 -7 -8 -7 -7 -7 -6 -6 -6 -6
-3 -3 -3 -3 -3 -4 -4 -4 -4 -4 -4 -4 -5 -5 -5 -5 -5 -5 -5 -5 -6 -6 -6 -7 -6 -6 -6 -6 -6 -8 -5 -6 -6 -6 -8 -8 -8 -8 -8 -7 -7 -7 -6 -6 -6
-4 -4 -4 -4 -4 -4 -4 -4 -5 -5 -6 -4 -5 -5 -5 -5 -5 -5 -5 -6 -6 -6 -7 -8 -7 -7 -7 -6 -7 -7 -6 -6 -6 -7 -7 -8 -8 -8 -8 -8 -7 -7 -7 -6 -6
-5 -4 -4 -4 -5 -5 -5 -5 -5 -5 -6 -5 -5 -5 -5 -6 -6 -6 -6 -6 -6 -6 -7 -7 -7 -7 -7 -6 -6 -6 -6 -6 -7 -8 -8 -8 -8 -7 -8 -9 -7 -5 -6 -6 -6
-5 -5 -5 -5 -5 -5 -5 -6 -6 -6 -6 -5 -6 -6 -6 -6 -6 -6 -6 -6 -6 -6 -8 -6 -6 -7 -7 -7 -6 -6 -7 -8 -7 -7 -6 -7 -8 -9 -9 -8 -8 -7 -6 -7 -6
-5 -5 -5 -5 -5 -6 -6 -6 -6 -7 -6 -6 -6 -6 -7 -7 -7 -6 -7 -7 -6 -7 -8 -9 -9 -7 -6 -7 -7 -7 -7 -7 -9 -8 -7 -8 -9 -9 -7 -7 -6 -7 -7 -7 -7
-6 -6 -6 -6 -6 -6 -6 -6 -7 -7 -6 -6 -6 -6 -6 -6 -7 -6 -7 -8 -9 -7 -7 -9 -9 -8 -7 -7 -7 -9 -7 -7 -7 -7 -9 -8 -9 -9 -7 -7 -7 -7 -7 -7 -7
-6 -6 -6 -6 -6 -6 -6 -6 -6 -6 -6 -6 -6 -7 -7 -8 -6 -7 -9 -7 -7 -7 -8 -9 -8 -9 -6 -7 -7 -8 -7 -7 -9 -9 -9 -8 -9 -9 -10 -8 -7 -7 -7 -7 -7
-7 -6 -7 -6 -6 -6 -6 -6 -6 -6 -6 -6 -6 -7 -6 -9 -7 -10 -10 -8 -6 -7 -7 -8 -7 -9 -8 -7 -7 -7 -7 -7 -8 -8 -9 -10 -9 -10 -10 -9 -8 -8 -7 -8 -7
-7 -7 -7 -6 -7 -7 -7 -6 -6 -6 -6 -6 -6 -6 -7 -7 -7 -7 -9 -8 -6 -8 -7 -8 -7 -8 -10 -9 -7 -7 -7 -8 -8 -8 -10 -8 -8 -9 -9 -8 -8 -8 -7 -8 -8
-7 -7 -7 -7 -7 -7 -7 -7 -6 -6 -6 -6 -7 -7 -7 -7 -7 -7 -7 -6 -7 -7 -7 -7 -7 -8 -8 -9 -8 -7 -7 -8 -8 -8 -7 -8 -9 -12 -10 -8 -9 -8 -8 -8 -8
-7 -7 -7 -7 -7 -7 -7 -7 -6 -7 -7 -7 -7 -7 -7 -7 -7 -8 -8 -7 -7 -7 -7 -7 -8 -8 -8 -10 -10 -8 -7 -8 -8 -8 -8 -8 -9 -8 -9 -8 -8 -9 -8 -9 -8
-8 -7 -7 -7 -7 -7 -7 -7 -7 -7 -7 -7 -7 -7 -8 -8 -8 -8 -8 -8 -7 -7 -8 -8 -8 -8 -8 -8 -9 -9 -8 -9 -9 -9 -9 -9 -9 -9 -9 -8 -9 -8 -8 -9 -9
-8 -8 -8 -8 -8 -8 -8 -8 -8 -8 -7 -8 -8 -8 -8 -8 -8 -9 -9 -9 -8 -8 -7 -8 -8 -8 -8 -9 -9 -8 -9 -9 -9 -9 -9 -9 -9 -11 -8 -9 -9 -9 -9 -9 -9
-9 -9 -9 -8 -9 -9 -9 -8 -8 -9 -8 -9 -8 -9 -9 -9 -8 -8 -9 -9 -9 -8 -8 -8 -8 -9 -9 -9 -9 -8 -9 -8 -9 -9 -10 -10 -10 -10 -9 -9 -9 -9 -10 -10 -10

GFSSW_500_temp_120.txt.gz
Temp
-2 -2 -1 -1 -1 -1 -1 -2 -2 -2 -2 -2 -2 -2 -3 -3 -3 -3 -3 -3 -3 -3 -3 -3 -3 -4 -4 -4 -4 -5 -7 -7 -7 -6 -6 -7 -6 -8 -7 -8 -8 -6 -7 -8 -8
-2 -2 -1 -1 -1 -1 -1 -2 -2 -2 -3 -3 -3 -3 -3 -3 -3 -3 -3 -3 -3 -4 -4 -4 -4 -4 -4 -4 -5 -5 -7 -7 -5 -5 -5 -5 -5 -6 -8 -8 -8 -7 -7 -8 -8
-2 -2 -1 -1 -1 -1 -1 -2 -2 -3 -3 -3 -3 -3 -3 -3 -3 -3 -3 -3 -3 -4 -4 -4 -4 -4 -4 -4 -4 -5 -6 -5 -5 -5 -5 -5 -5 -7 -7 -8 -6 -7 -5 -6 -7
-2 -2 -1 -1 -1 -1 -1 -2 -2 -3 -3 -3 -3 -3 -3 -3 -3 -3 -4 -4 -4 -4 -4 -4 -4 -4 -4 -4 -5 -5 -5 -5 -5 -5 -5 -5 -5 -5 -6 -6 -6 -6 -6 -6 -6
-2 -2 -2 -1 -1 -1 -2 -2 -2 -3 -3 -3 -3 -3 -3 -3 -3 -4 -4 -4 -4 -4 -4 -4 -4 -4 -4 -5 -5 -5 -5 -5 -5 -5 -5 -5 -5 -6 -6 -6 -6 -6 -7 -7 -7
-2 -2 -2 -1 -2 -2 -2 -2 -2 -3 -3 -3 -3 -3 -3 -3 -4 -4 -4 -4 -4 -4 -4 -4 -4 -4 -5 -5 -5 -5 -5 -5 -5 -5 -5 -5 -5 -6 -6 -6 -6 -7 -7 -7 -8
-2 -2 -2 -2 -2 -2 -2 -2 -2 -3 -3 -3 -3 -3 -3 -3 -4 -4 -4 -4 -4 -4 -4 -5 -5 -5 -5 -5 -5 -5 -5 -5 -5 -5 -5 -5 -6 -6 -6 -6 -6 -7 -7 -8 -7
-2 -2 -2 -2 -2 -2 -2 -2 -2 -3 -3 -3 -3 -3 -3 -4 -4 -4 -4 -4 -4 -4 -5 -5 -5 -5 -5 -5 -5 -5 -5 -7 -5 -6 -6 -6 -8 -6 -7 -6 -6 -6 -6 -7 -7
-3 -2 -2 -2 -2 -2 -2 -2 -2 -3 -3 -3 -3 -3 -3 -4 -4 -4 -4 -4 -5 -5 -5 -5 -5 -5 -5 -5 -5 -6 -6 -6 -7 -5 -6 -6 -8 -5 -7 -6 -6 -6 -6 -6 -6
-3 -3 -2 -2 -2 -2 -2 -2 -2 -2 -3 -3 -3 -3 -4 -4 -4 -4 -4 -4 -5 -5 -5 -5 -5 -5 -5 -6 -7 -6 -6 -6 -6 -7 -6 -6 -8 -5 -6 -6 -5 -5 -6 -5 -5
-3 -3 -2 -2 -2 -2 -2 -2 -2 -2 -3 -3 -3 -3 -4 -4 -4 -4 -4 -4 -5 -5 -5 -5 -6 -6 -7 -7 -6 -6 -6 -6 -7 -6 -6 -6 -8 -6 -6 -7 -6 -5 -4 -5 -5
-3 -3 -3 -3 -2 -2 -2 -2 -2 -3 -3 -3 -3 -3 -4 -4 -4 -5 -5 -5 -5 -5 -5 -6 -6 -8 -6 -6 -6 -6 -6 -7 -7 -6 -6 -6 -7 -7 -6 -7 -7 -6 -5 -5 -5
-3 -3 -3 -3 -3 -3 -3 -3 -3 -3 -3 -3 -3 -4 -4 -4 -4 -5 -5 -5 -5 -5 -6 -6 -8 -6 -6 -6 -6 -7 -7 -7 -7 -7 -6 -7 -7 -8 -7 -7 -7 -7 -5 -5 -6
-4 -3 -3 -3 -3 -3 -3 -3 -3 -3 -3 -3 -4 -4 -4 -4 -4 -4 -5 -5 -5 -6 -7 -7 -7 -7 -7 -7 -6 -8 -7 -6 -6 -6 -6 -8 -7 -7 -7 -7 -7 -6 -6 -5 -5
-4 -4 -3 -3 -3 -3 -3 -4 -4 -4 -4 -4 -4 -4 -4 -5 -5 -5 -5 -5 -6 -6 -7 -8 -7 -6 -7 -8 -6 -7 -6 -7 -6 -6 -6 -7 -7 -7 -8 -7 -8 -6 -6 -6 -5
-4 -4 -4 -4 -4 -4 -4 -4 -4 -5 -6 -5 -4 -5 -5 -5 -5 -5 -5 -6 -6 -6 -7 -7 -6 -6 -7 -6 -6 -6 -6 -6 -6 -6 -7 -7 -7 -8 -8 -9 -9 -7 -6 -6 -6
-5 -4 -4 -4 -5 -5 -5 -5 -5 -5 -6 -7 -5 -5 -5 -5 -6 -6 -6 -6 -6 -6 -7 -7 -7 -6 -7 -6 -6 -6 -6 -7 -7 -7 -7 -7 -7 -7 -7 -8 -8 -7 -7 -6 -7
-5 -5 -5 -5 -5 -5 -5 -5 -5 -6 -8 -8 -6 -6 -6 -7 -7 -6 -6 -6 -6 -6 -7 -8 -8 -8 -5 -6 -8 -8 -6 -7 -7 -7 -7 -8 -8 -8 -8 -7 -8 -8 -8 -7 -7
-6 -6 -6 -6 -6 -6 -6 -6 -6 -8 -8 -7 -6 -7 -8 -8 -8 -9 -7 -7 -9 -9 -7 -8 -8 -8 -8 -6 -6 -9 -7 -7 -7 -7 -7 -7 -7 -8 -8 -8 -8 -6 -6 -7 -7
-6 -6 -6 -6 -6 -6 -6 -7 -7 -6 -6 -6 -7 -7 -7 -8 -8 -8 -9 -9 -9 -8 -6 -7 -7 -9 -9 -6 -7 -7 -7 -7 -8 -9 -8 -8 -8 -8 -9 -9 -8 -7 -7 -7 -6
-7 -7 -6 -6 -6 -6 -6 -7 -7 -7 -6 -6 -6 -7 -8 -8 -8 -9 -9 -9 -9 -8 -6 -7 -7 -8 -9 -8 -7 -8 -7 -8 -9 -9 -9 -9 -9 -9 -9 -9 -9 -9 -8 -7 -7
-7 -7 -6 -7 -6 -6 -6 -7 -6 -6 -6 -6 -6 -6 -6 -7 -7 -9 -9 -9 -9 -7 -7 -8 -7 -7 -8 -10 -10 -9 -9 -8 -8 -9 -10 -10 -9 -10 -10 -9 -9 -9 -7 -7 -7
-7 -7 -7 -7 -7 -7 -7 -7 -6 -7 -6 -6 -7 -7 -7 -7 -7 -7 -9 -8 -8 -7 -7 -7 -7 -7 -8 -8 -9 -10 -8 -8 -7 -8 -8 -8 -8 -11 -10 -11 -9 -7 -7 -7 -8
-8 -8 -7 -7 -7 -7 -7 -7 -6 -7 -7 -6 -7 -7 -7 -7 -7 -7 -8 -7 -7 -7 -7 -7 -8 -7 -7 -8 -9 -9 -10 -9 -8 -8 -9 -8 -10 -11 -11 -11 -9 -8 -8 -8 -8
-8 -8 -7 -7 -7 -7 -7 -7 -7 -7 -7 -7 -7 -7 -7 -7 -7 -8 -8 -9 -7 -6 -7 -7 -7 -7 -7 -8 -8 -8 -8 -8 -9 -9 -9 -8 -9 -9 -10 -9 -8 -9 -9 -8 -8
-8 -7 -7 -8 -7 -7 -8 -8 -8 -8 -8 -7 -7 -8 -8 -8 -8 -8 -11 -10 -9 -8 -6 -7 -8 -7 -7 -8 -8 -8 -8 -8 -9 -9 -9 -9 -9 -12 -9 -8 -9 -9 -9 -9 -9
-8 -8 -8 -8 -8 -8 -8 -8 -8 -8 -9 -7 -7 -7 -9 -8 -7 -8 -8 -9 -9 -9 -8 -7 -8 -8 -8 -8 -9 -8 -9 -9 -9 -9 -9 -9 -11 -9 -9 -9 -9 -9 -9 -9 -9

GFSSW_500_temp_123.txt.gz
Temp
-2 -2 -1 -1 -1 -1 -1 -2 -2 -2 -2 -2 -2 -2 -3 -3 -3 -3 -3 -3 -3 -3 -3 -4 -4 -4 -5 -6 -6 -7 -8 -8 -7 -6 -6 -6 -6 -7 -8 -8 -6 -6 -8 -7 -7
-2 -2 -1 -1 -1 -1 -1 -1 -2 -2 -2 -2 -2 -3 -3 -3 -3 -3 -3 -3 -3 -3 -3 -4 -4 -4 -4 -5 -5 -6 -8 -8 -7 -6 -6 -5 -6 -6 -8 -8 -7 -5 -7 -6 -6
-2 -2 -1 -1 -1 -1 -1 -2 -2 -2 -2 -2 -3 -3 -3 -3 -3 -3 -3 -3 -4 -4 -4 -4 -4 -4 -5 -4 -5 -5 -6 -5 -6 -5 -5 -5 -5 -6 -6 -7 -6 -5 -7 -6 -7
-2 -2 -1 -1 -1 -1 -1 -2 -2 -2 -2 -3 -3 -3 -3 -3 -3 -3 -3 -4 -4 -4 -4 -4 -4 -4 -4 -4 -4 -5 -5 -5 -5 -5 -5 -5 -6 -5 -6 -6 -6 -6 -6 -6 -7
-2 -2 -1 -1 -1 -1 -1 -2 -2 -2 -3 -3 -3 -3 -3 -3 -3 -3 -3 -4 -4 -4 -4 -4 -4 -4 -4 -4 -4 -5 -5 -5 -5 -5 -5 -5 -5 -6 -6 -6 -6 -6 -6 -7 -7
-2 -2 -2 -1 -1 -1 -1 -2 -2 -2 -3 -3 -3 -3 -3 -3 -4 -4 -4 -4 -4 -4 -4 -4 -5 -4 -4 -4 -5 -5 -5 -5 -5 -5 -5 -5 -5 -6 -6 -6 -7 -7 -6 -6 -6
-2 -2 -2 -2 -1 -1 -2 -2 -2 -2 -2 -3 -3 -3 -3 -3 -3 -4 -4 -4 -4 -4 -4 -4 -5 -5 -5 -5 -5 -5 -5 -5 -5 -5 -6 -6 -5 -6 -6 -6 -6 -7 -7 -6 -5
-2 -2 -2 -2 -2 -2 -2 -2 -2 -2 -2 -3 -3 -3 -3 -3 -3 -4 -4 -4 -4 -5 -5 -4 -5 -5 -5 -5 -6 -6 -6 -5 -6 -6 -7 -7 -6 -7 -6 -6 -6 -7 -7 -7 -6
-3 -2 -2 -2 -2 -2 -2 -2 -2 -2 -2 -2 -3 -3 -3 -3 -3 -4 -4 -4 -5 -5 -4 -4 -5 -5 -6 -5 -6 -6 -6 -7 -7 -6 -6 -7 -7 -8 -6 -6 -6 -7 -6 -6 -6
-3 -3 -2 -2 -2 -2 -2 -2 -2 -2 -2 -2 -3 -3 -3 -3 -4 -4 -4 -4 -4 -5 -5 -5 -5 -6 -6 -6 -5 -7 -6 -7 -7 -6 -6 -7 -7 -7 -6 -6 -5 -5 -6 -6 -6
-3 -3 -2 -2 -2 -2 -2 -2 -2 -2 -2 -2 -2 -3 -3 -3 -4 -4 -4 -4 -4 -5 -5 -5 -6 -6 -6 -6 -6 -7 -6 -6 -7 -7 -6 -7 -7 -7 -7 -7 -6 -4 -5 -6 -6
-3 -3 -3 -3 -2 -2 -2 -2 -2 -2 -2 -2 -3 -3 -3 -4 -4 -4 -4 -4 -4 -5 -5 -5 -6 -6 -6 -6 -7 -6 -6 -6 -7 -7 -7 -7 -7 -8 -7 -6 -6 -5 -4 -5 -6
-4 -3 -3 -3 -3 -2 -2 -2 -2 -2 -2 -2 -3 -3 -3 -3 -4 -4 -4 -4 -4 -5 -5 -6 -6 -7 -7 -7 -6 -7 -7 -7 -7 -7 -6 -7 -7 -8 -8 -7 -7 -6 -5 -5 -6
-4 -3 -3 -3 -3 -3 -3 -2 -2 -2 -3 -3 -3 -3 -4 -3 -4 -4 -4 -5 -5 -5 -5 -7 -7 -7 -7 -7 -7 -7 -6 -6 -6 -7 -6 -7 -6 -7 -8 -7 -7 -6 -5 -5 -4
-4 -4 -3 -3 -3 -3 -3 -3 -3 -3 -3 -3 -4 -3 -4 -4 -4 -4 -5 -5 -5 -5 -6 -7 -8 -6 -7 -7 -6 -7 -7 -7 -7 -7 -6 -7 -7 -7 -7 -7 -8 -6 -5 -5 -5
-4 -4 -4 -3 -3 -3 -4 -3 -3 -4 -4 -4 -4 -4 -4 -4 -5 -4 -5 -5 -5 -6 -6 -7 -7 -7 -7 -7 -7 -7 -7 -6 -7 -7 -7 -7 -7 -8 -8 -8 -8 -6 -7 -6 -5
-4 -4 -4 -4 -4 -4 -4 -4 -4 -5 -5 -6 -4 -5 -5 -5 -5 -5 -6 -6 -6 -6 -7 -7 -7 -7 -7 -7 -6 -6 -6 -6 -6 -7 -7 -8 -8 -8 -8 -8 -8 -8 -7 -7 -6
-5 -5 -5 -5 -5 -5 -4 -4 -5 -6 -7 -8 -7 -5 -5 -6 -6 -5 -6 -6 -6 -6 -7 -7 -8 -8 -7 -7 -7 -7 -6 -7 -6 -8 -8 -9 -8 -8 -8 -8 -8 -8 -8 -7 -7
-6 -6 -5 -5 -5 -5 -5 -4 -6 -7 -7 -8 -8 -8 -7 -7 -7 -8 -7 -6 -6 -6 -7 -8 -9 -8 -8 -7 -6 -8 -7 -7 -6 -7 -8 -8 -8 -8 -8 -9 -9 -9 -9 -8 -8
-6 -6 -6 -6 -6 -6 -5 -6 -6 -6 -6 -5 -6 -7 -7 -8 -8 -8 -8 -8 -7 -9 -8 -7 -8 -8 -9 -8 -7 -8 -7 -7 -7 -7 -7 -8 -8 -9 -9 -8 -8 -8 -8 -8 -7
-7 -7 -7 -7 -7 -6 -6 -7 -7 -7 -7 -7 -7 -7 -7 -7 -8 -8 -8 -8 -8 -9 -7 -7 -8 -8 -8 -9 -8 -8 -7 -7 -7 -7 -8 -8 -9 -9 -9 -9 -9 -9 -8 -7 -7
-7 -7 -6 -7 -7 -7 -7 -7 -7 -7 -6 -6 -6 -7 -7 -7 -7 -8 -9 -9 -9 -9 -8 -6 -6 -7 -7 -8 -9 -10 -9 -9 -7 -8 -9 -9 -9 -10 -10 -10 -9 -9 -9 -8 -7
-8 -8 -7 -7 -7 -7 -7 -7 -7 -7 -7 -6 -6 -6 -7 -7 -7 -7 -9 -7 -9 -9 -9 -7 -7 -7 -7 -8 -9 -10 -10 -9 -8 -8 -8 -8 -8 -10 -11 -11 -9 -8 -7 -7 -7
-8 -8 -7 -7 -7 -7 -7 -7 -7 -6 -7 -7 -6 -6 -6 -7 -7 -7 -8 -7 -7 -8 -8 -7 -7 -7 -7 -8 -8 -9 -9 -9 -9 -8 -8 -8 -9 -9 -11 -11 -10 -8 -7 -7 -8
-8 -8 -7 -7 -7 -7 -7 -7 -7 -7 -6 -7 -7 -7 -7 -7 -7 -7 -7 -9 -7 -7 -7 -7 -7 -7 -7 -7 -9 -9 -8 -8 -8 -9 -9 -8 -9 -10 -10 -9 -9 -8 -8 -9 -9
-8 -8 -8 -8 -8 -8 -8 -8 -8 -8 -8 -7 -7 -7 -8 -7 -7 -7 -8 -8 -8 -7 -6 -6 -7 -7 -7 -7 -7 -8 -8 -8 -9 -9 -10 -10 -10 -10 -9 -8 -8 -8 -8 -9 -9
-9 -9 -9 -9 -8 -8 -8 -8 -8 -9 -9 -8 -8 -6 -7 -6 -6 -7 -7 -8 -8 -7 -7 -7 -7 -6 -7 -8 -8 -7 -8 -9 -9 -9 -9 -9 -9 -9 -8 -8 -8 -9 -10 -9 -9

GFSSW_500_temp_126.txt.gz
Temp
-2 -2 -1 -1 -1 -1 -1 -2 -2 -2 -2 -2 -3 -3 -3 -3 -3 -3 -3 -4 -4 -4 -4 -5 -5 -5 -5 -5 -5 -4 -5 -7 -8 -8 -9 -7 -7 -8 -7 -5 -6 -6 -6 -6 -6
-2 -2 -1 -1 -1 -1 -1 -2 -2 -2 -2 -3 -3 -3 -3 -3 -3 -3 -4 -4 -4 -4 -4 -5 -5 -5 -6 -6 -6 -6 -7 -9 -9 -8 -7 -7 -6 -6 -6 -6 -6 -6 -6 -6 -6
-2 -2 -2 -1 -1 -1 -1 -2 -2 -2 -2 -3 -3 -3 -3 -3 -3 -4 -4 -4 -4 -4 -4 -5 -5 -5 -5 -6 -5 -5 -7 -8 -6 -6 -6 -6 -6 -6 -7 -6 -6 -7 -6 -6 -7
-2 -2 -2 -1 -1 -1 -1 -2 -2 -2 -2 -3 -3 -3 -3 -3 -3 -4 -4 -4 -4 -4 -5 -5 -5 -5 -5 -5 -4 -5 -7 -6 -6 -6 -6 -6 -6 -7 -6 -7 -7 -7 -6 -6 -6
-2 -2 -2 -2 -1 -1 -1 -1 -2 -2 -2 -3 -3 -3 -3 -3 -3 -4 -4 -4 -4 -5 -5 -5 -5 -5 -5 -5 -5 -5 -6 -6 -6 -6 -6 -6 -6 -6 -6 -6 -7 -6 -6 -6 -6
-2 -2 -2 -2 -1 -1 -1 -1 -2 -2 -2 -2 -3 -3 -3 -3 -4 -4 -4 -4 -4 -4 -5 -5 -5 -6 -5 -5 -5 -5 -5 -6 -6 -6 -6 -5 -6 -5 -5 -6 -7 -6 -6 -7 -7
-3 -2 -2 -2 -2 -1 -1 -1 -1 -2 -2 -2 -3 -3 -3 -3 -3 -4 -4 -4 -4 -5 -5 -5 -5 -5 -5 -6 -5 -5 -6 -6 -6 -6 -7 -6 -6 -6 -5 -6 -7 -7 -6 -5 -6
-3 -2 -2 -2 -2 -2 -2 -1 -1 -2 -2 -2 -3 -3 -3 -3 -3 -4 -4 -4 -4 -5 -5 -5 -5 -5 -6 -6 -6 -7 -6 -6 -6 -7 -7 -7 -6 -6 -5 -6 -7 -8 -7 -6 -5
-3 -3 -2 -2 -2 -2 -2 -1 -2 -2 -2 -2 -3 -3 -3 -3 -3 -3 -4 -4 -4 -4 -5 -5 -5 -6 -6 -6 -6 -7 -7 -6 -7 -7 -7 -7 -7 -6 -6 -7 -8 -8 -7 -7 -6
-3 -3 -2 -2 -2 -2 -2 -2 -2 -2 -2 -2 -3 -3 -3 -3 -3 -3 -4 -4 -5 -5 -5 -5 -5 -6 -6 -6 -6 -6 -7 -7 -7 -7 -7 -7 -7 -7 -6 -6 -7 -7 -7 -7 -7
-3 -3 -3 -2 -2 -2 -2 -2 -2 -2 -2 -2 -2 -3 -3 -3 -3 -4 -4 -4 -4 -5 -5 -5 -5 -6 -6 -6 -6 -6 -7 -8 -8 -7 -8 -7 -7 -7 -7 -6 -6 -6 -7 -8 -6
-4 -3 -3 -3 -2 -2 -2 -2 -2 -2 -2 -2 -2 -3 -3 -3 -3 -4 -4 -4 -4 -5 -5 -5 -5 -6 -7 -6 -6 -7 -7 -7 -7 -8 -7 -7 -8 -7 -7 -6 -5 -5 -7 -8 -8
-4 -4 -3 -3 -3 -3 -2 -2 -2 -2 -2 -2 -2 -2 -3 -3 -3 -4 -4 -4 -4 -5 -5 -5 -6 -6 -6 -7 -7 -7 -7 -7 -7 -7 -6 -7 -7 -8 -7 -5 -5 -5 -6 -7 -7
-4 -4 -4 -3 -3 -3 -3 -3 -2 -2 -2 -2 -3 -3 -3 -3 -3 -4 -4 -4 -5 -5 -5 -6 -5 -6 -7 -7 -7 -7 -6 -6 -6 -7 -7 -7 -6 -8 -7 -6 -5 -5 -6 -6 -7
-4 -4 -4 -4 -3 -3 -3 -3 -3 -3 -3 -3 -3 -3 -3 -3 -4 -4 -4 -4 -5 -5 -6 -5 -5 -7 -7 -7 -7 -7 -7 -7 -7 -7 -7 -7 -7 -7 -7 -7 -7 -6 -7 -6 -6
-5 -4 -4 -4 -4 -4 -3 -3 -3 -3 -3 -4 -4 -4 -4 -4 -4 -4 -4 -5 -5 -6 -6 -6 -6 -7 -7 -7 -7 -7 -6 -6 -7 -7 -7 -8 -8 -8 -7 -7 -7 -8 -8 -6 -6
-5 -5 -4 -4 -4 -4 -3 -3 -3 -4 -4 -4 -4 -4 -5 -4 -4 -5 -5 -5 -6 -6 -6 -6 -7 -7 -7 -8 -7 -7 -7 -7 -7 -7 -7 -7 -7 -7 -7 -8 -8 -8 -7 -6 -6
-5 -5 -5 -5 -4 -4 -4 -4 -5 -5 -4 -4 -4 -3 -5 -5 -5 -5 -5 -6 -6 -7 -6 -7 -8 -7 -7 -7 -7 -7 -7 -7 -7 -7 -8 -7 -7 -7 -8 -8 -8 -7 -7 -7 -6
-6 -6 -5 -5 -5 -5 -4 -4 -6 -5 -5 -5 -5 -4 -4 -6 -6 -5 -6 -6 -7 -7 -6 -7 -6 -6 -7 -6 -7 -7 -7 -6 -7 -7 -8 -8 -8 -8 -8 -8 -8 -8 -9 -9 -8
-7 -6 -6 -6 -5 -5 -5 -5 -6 -6 -6 -6 -6 -5 -6 -6 -6 -7 -7 -6 -6 -7 -6 -6 -7 -8 -7 -7 -7 -7 -7 -7 -7 -7 -8 -9 -9 -9 -9 -9 -9 -9 -9 -9 -8
-7 -7 -7 -6 -6 -5 -5 -6 -7 -7 -6 -7 -7 -6 -7 -8 -8 -8 -7 -8 -9 -9 -8 -6 -7 -8 -8 -9 -9 -7 -7 -7 -8 -7 -7 -8 -9 -9 -10 -10 -9 -9 -9 -8 -8
-8 -7 -7 -7 -7 -6 -7 -7 -8 -7 -6 -6 -7 -6 -7 -8 -8 -8 -7 -8 -8 -8 -9 -7 -6 -7 -8 -9 -9 -9 -9 -8 -7 -8 -8 -8 -9 -9 -9 -9 -9 -8 -8 -8 -8
-9 -8 -8 -8 -7 -8 -8 -7 -7 -7 -7 -6 -7 -7 -7 -7 -8 -8 -7 -7 -8 -9 -9 -8 -7 -7 -8 -8 -8 -9 -9 -8 -9 -9 -8 -8 -8 -10 -9 -9 -9 -9 -9 -8 -8
-9 -8 -8 -7 -8 -7 -7 -7 -8 -7 -7 -7 -7 -7 -7 -7 -7 -8 -8 -8 -8 -8 -8 -8 -7 -6 -6 -7 -8 -9 -9 -9 -8 -8 -8 -8 -8 -9 -9 -9 -8 -8 -8 -8 -8
-9 -8 -8 -8 -8 -8 -8 -8 -8 -8 -8 -7 -7 -6 -6 -7 -7 -7 -8 -7 -8 -8 -7 -7 -7 -7 -6 -7 -7 -8 -8 -9 -9 -9 -8 -8 -9 -9 -9 -9 -9 -9 -9 -8 -9
-9 -9 -9 -9 -8 -8 -8 -8 -8 -8 -7 -7 -7 -7 -7 -6 -7 -7 -7 -7 -7 -6 -7 -7 -7 -7 -6 -7 -7 -7 -7 -8 -8 -10 -9 -9 -9 -9 -8 -8 -8 -8 -9 -9 -10
-9 -9 -9 -9 -8 -9 -8 -8 -9 -9 -8 -8 -8 -7 -7 -7 -7 -7 -7 -8 -7 -7 -6 -6 -7 -7 -7 -7 -8 -8 -8 -9 -9 -9 -9 -9 -10 -9 -9 -9 -9 -9 -10 -11 -11